GFSGBSN_250_spd_000.txt.gz
Wind_Speed
26 28 29 29 28 26 21 13 12 14 16 18 18 21 24 26 22 25 25 25 25 26 29 32 33 34 36 38 39 42 46 50 53 60 68 73 84 92 93 94 96 96 93 91 100 93 87
26 27 27 27 23 20 13 10 11 14 17 18 21 23 25 25 26 24 24 25 26 26 25 25 24 23 24 25 29 32 34 37 42 49 58 67 74 87 95 87 94 91 94 86 84 73 71
21 26 26 23 18 15 11 11 13 16 21 24 25 26 27 27 27 26 26 25 24 24 22 22 23 21 21 22 22 24 29 31 32 35 38 41 45 53 62 66 67 66 66 68 66 70 64
23 23 22 19 13 14 12 16 19 23 27 30 32 31 29 28 29 27 25 25 23 22 21 19 19 19 17 18 19 19 19 22 25 26 30 34 38 39 41 44 49 47 52 54 57 46 32
21 22 16 13 14 17 19 23 26 30 34 35 33 32 30 29 27 26 25 25 23 21 20 20 20 22 20 19 19 17 18 20 21 24 28 29 32 32 30 27 26 27 29 28 26 32 29
20 16 13 17 20 24 30 32 29 32 38 33 32 30 28 28 28 26 24 24 23 22 20 19 18 14 13 10 10 11 11 11 13 15 16 17 15 14 15 16 17 19 19 16 17 19 19
18 15 22 23 27 34 35 37 33 31 32 30 31 31 31 31 31 31 29 26 23 21 16 15 13 11 11 10 11 11 11 10 11 13 12 11 8 10 11 13 15 15 15 15 16 17 16
15 21 28 32 38 38 38 38 39 32 32 33 35 36 34 34 31 26 24 22 20 19 17 15 15 14 13 12 13 13 12 11 12 12 12 12 12 11 13 16 17 15 13 13 14 16 20
17 30 36 38 42 41 39 41 35 32 35 36 36 35 33 29 27 25 24 22 21 21 20 19 18 17 15 12 10 7 5 7 10 13 14 11 12 13 13 14 14 13 10 11 14 18 21
26 37 39 41 46 43 43 39 34 34 35 33 32 31 31 31 29 26 23 22 23 20 19 18 15 13 11 9 6 4 4 4 7 10 12 14 15 15 14 14 16 17 16 15 16 19 19
41 41 43 48 47 42 39 37 34 33 33 31 31 31 29 29 29 23 23 23 21 18 15 13 12 9 6 3 1 2 4 7 8 9 12 16 19 20 19 19 17 17 18 19 20 20 22
46 44 47 47 44 43 38 36 33 32 32 31 30 29 28 28 26 23 22 19 16 14 13 12 11 9 8 6 3 3 4 6 9 11 14 17 20 23 24 23 22 20 21 22 23 24 24
50 52 49 47 47 42 39 35 32 31 32 30 27 27 26 25 24 22 20 17 14 12 11 11 9 7 6 3 5 6 7 9 10 11 11 13 19 23 22 24 26 26 24 24 25 26 27
52 56 53 50 48 41 37 34 34 30 31 31 27 27 27 26 27 23 19 15 12 11 11 9 5 5 5 6 6 5 6 7 9 9 9 11 14 16 19 21 22 25 26 26 27 27 29
53 57 56 53 49 43 39 36 32 33 32 31 28 28 26 25 25 21 17 14 10 11 9 6 5 4 4 5 3 4 4 6 7 10 11 11 12 12 15 18 19 21 24 27 29 29 29
53 58 58 56 47 44 42 35 29 33 32 32 31 28 25 25 24 20 16 11 10 10 9 7 5 3 4 3 3 4 1 3 5 8 9 11 12 12 12 12 14 16 20 24 28 27 27
52 61 62 57 49 46 39 36 31 29 30 33 32 28 27 26 24 18 16 14 11 10 9 8 7 3 4 4 3 2 2 2 4 5 5 7 9 11 12 11 11 11 12 16 20 23 27
56 62 62 60 55 48 42 37 33 30 32 34 32 29 27 26 24 20 18 16 14 13 13 12 9 7 5 5 6 6 6 7 7 9 10 10 12 14 16 16 17 18 19 19 20 25 31
58 62 61 61 55 51 46 40 33 29 31 35 35 31 27 26 25 22 21 19 18 16 16 15 12 10 9 9 8 9 11 12 14 15 18 21 23 23 21 23 23 22 23 23 26 28 32
58 60 62 62 58 54 53 39 40 31 31 34 37 33 31 28 25 24 24 23 21 18 19 17 15 14 15 15 15 15 16 17 20 22 24 26 27 28 27 27 26 26 24 26 27 27 30
59 61 61 62 58 58 54 47 41 35 31 31 31 30 32 34 30 27 27 25 24 21 21 19 17 18 19 21 21 21 22 23 25 27 28 27 30 32 32 32 35 34 30 31 32 35 36
61 65 65 63 62 60 56 47 47 41 37 33 32 28 31 34 34 31 30 29 28 25 24 23 22 22 23 25 26 27 28 28 29 30 29 28 32 36 40 35 37 36 33 34 38 36 38
63 64 61 63 64 59 55 49 49 46 42 37 32 32 28 32 35 34 32 31 31 30 29 28 26 26 27 28 30 32 34 35 34 33 32 34 36 38 41 40 43 37 39 40 41 42 45
56 65 65 62 63 62 57 56 53 51 47 42 35 34 37 34 35 36 37 34 34 33 32 31 31 31 31 32 33 34 37 38 39 40 39 40 42 41 40 39 44 38 41 43 47 49 52
58 59 67 65 64 64 62 60 57 54 50 47 43 42 39 39 38 38 41 41 40 38 36 36 35 38 38 39 39 39 41 43 45 46 45 44 45 40 37 37 44 44 45 47 49 56 60
53 61 64 69 65 60 60 63 63 59 56 52 49 45 42 42 41 40 39 40 43 44 45 44 44 44 44 45 43 44 47 48 50 51 51 49 47 44 42 43 45 43 47 51 55 58 63
58 52 63 67 70 65 63 61 61 62 60 58 56 52 48 49 46 45 44 42 43 44 46 48 49 50 48 47 48 49 51 53 53 55 54 53 51 47 47 46 46 48 52 58 61 64 69
61 56 53 63 69 69 69 64 64 62 63 60 62 59 55 56 53 51 49 50 50 51 50 51 51 53 52 52 52 52 54 56 58 57 58 57 53 50 51 52 52 55 59 62 65 67 71
63 60 55 53 60 74 70 64 65 66 64 63 65 65 61 58 57 56 55 56 53 54 55 55 53 53 53 52 51 53 56 56 56 57 60 58 55 55 53 57 57 60 63 64 68 71 76

GFSGBSN_250_spd_003.txt.gz
Wind_Speed
22 20 24 28 31 30 31 29 25 21 19 20 19 19 19 23 26 28 29 29 27 25 27 29 32 34 36 37 37 39 41 45 50 55 61 65 72 77 80 80 79 81 82 82 87 86 85
19 22 25 29 29 28 29 23 16 13 16 19 20 19 20 23 25 25 26 26 25 24 24 26 27 29 30 32 34 37 41 42 44 48 52 57 60 59 65 73 70 76 84 80 77 76 73
22 23 25 25 27 27 24 17 13 11 14 19 19 19 23 24 25 25 25 24 22 22 23 24 24 24 27 27 29 32 36 36 38 41 46 50 54 55 55 51 54 58 62 64 68 67 77
24 23 23 25 25 24 16 14 10 13 16 20 22 25 27 27 26 25 24 25 26 25 24 25 25 24 23 24 26 25 27 28 29 30 32 34 36 35 36 39 43 45 48 51 55 55 52
22 21 24 22 23 18 13 13 12 18 25 28 29 29 28 27 27 27 27 28 27 26 25 24 24 23 20 20 21 22 24 27 28 29 30 32 33 34 37 38 39 39 38 38 38 39 38
21 23 22 19 17 14 16 17 21 26 31 33 33 31 31 32 30 29 29 28 27 27 25 23 22 20 24 24 24 23 22 24 26 26 28 29 29 29 29 29 26 26 25 21 20 21 24
22 24 19 17 16 19 23 27 29 35 36 37 38 37 33 32 30 29 29 28 29 27 25 23 21 22 21 19 19 17 16 15 14 13 15 14 15 15 17 17 18 19 17 15 15 17 19
23 21 18 16 21 29 33 32 35 37 36 37 35 34 34 33 31 30 30 28 25 25 23 19 17 16 14 13 12 11 10 10 11 11 12 12 13 14 14 14 14 13 13 13 15 16 17
22 19 21 22 31 36 36 35 38 35 35 35 35 35 32 32 30 27 24 22 20 19 18 16 15 14 14 13 11 9 9 8 9 9 10 11 13 14 14 15 14 14 16 17 18 18 21
23 20 25 32 39 37 41 35 35 34 36 36 34 34 33 30 27 24 22 21 19 19 19 18 18 18 16 15 10 7 5 4 5 9 12 14 14 15 17 17 18 18 19 20 19 19 21
21 25 31 39 42 42 43 40 30 36 37 35 34 33 31 28 23 23 21 21 21 21 22 21 18 16 13 9 6 4 3 2 4 6 9 14 19 22 21 20 20 21 22 22 23 25 25
23 33 39 46 47 44 42 39 32 37 36 34 33 33 30 26 24 24 24 23 22 20 17 15 12 10 9 7 6 5 5 6 5 5 8 11 13 16 19 22 25 25 24 24 27 29 29
27 39 43 45 49 43 43 42 37 37 34 34 33 32 31 27 24 24 25 23 19 16 13 14 13 11 9 8 5 6 7 7 9 9 8 8 11 12 15 20 23 26 28 29 30 30 30
33 42 45 48 49 45 43 40 38 39 36 35 35 31 30 27 24 24 23 20 17 15 15 15 13 11 10 7 6 4 2 3 4 5 3 5 8 11 12 14 16 20 23 27 31 33 33
41 44 45 54 51 46 43 40 40 39 36 34 31 29 27 26 25 24 21 17 15 17 15 13 10 8 7 3 4 4 3 1 3 5 6 7 7 7 8 8 12 16 19 20 25 29 34
46 46 50 54 50 46 44 40 39 37 36 33 31 30 26 26 27 24 19 17 15 16 15 11 8 6 4 3 3 2 3 2 3 4 4 5 8 11 12 10 9 11 13 17 20 24 29
50 53 56 53 51 49 43 41 41 36 36 35 32 31 30 30 29 24 20 18 15 15 13 10 8 6 4 4 2 3 1 0 2 4 6 8 9 11 13 13 14 15 17 18 19 22 25
48 58 58 56 55 50 46 44 40 38 36 35 33 33 31 31 29 25 22 19 13 13 12 11 11 9 5 5 4 4 3 4 6 7 9 11 13 16 18 19 18 20 21 24 28 31 34
49 59 61 59 57 54 48 45 39 38 37 35 36 34 32 31 30 27 23 19 16 13 13 13 14 12 10 8 7 7 8 9 11 13 15 17 19 21 21 23 24 24 23 25 27 30 34
47 54 62 62 61 57 51 48 42 39 36 37 37 36 33 32 31 30 25 21 19 17 16 16 16 15 14 13 12 13 14 15 17 18 20 22 24 25 27 26 27 27 29 33 34 35 39
46 55 59 64 63 58 53 50 44 39 36 35 40 39 37 35 33 30 26 23 22 21 20 20 19 19 18 18 17 17 18 20 22 23 24 26 29 30 32 32 35 36 38 38 38 39 40
49 53 56 64 66 61 54 50 47 41 36 35 41 41 40 37 32 29 26 25 24 24 24 23 22 23 23 22 20 20 22 23 26 28 29 30 31 35 39 39 41 41 40 39 41 40 42
53 54 57 63 67 63 60 53 52 44 39 35 40 41 40 37 37 36 33 29 27 27 27 26 27 26 25 25 25 25 27 28 30 31 32 33 36 38 41 43 44 46 44 39 39 39 44
56 56 60 62 64 67 62 59 54 51 47 40 36 38 40 38 35 34 35 34 32 32 31 31 30 30 30 30 31 32 33 34 36 37 38 40 41 41 44 45 48 45 46 45 46 45 44
56 59 61 61 64 66 65 61 58 57 54 47 42 39 36 35 34 32 33 36 37 36 35 33 32 34 35 35 37 38 40 41 43 45 45 45 46 47 48 49 51 50 48 47 49 49 49
58 62 63 63 60 62 65 63 61 59 56 55 50 44 39 35 35 35 35 34 36 39 38 39 39 40 41 43 45 46 47 48 48 48 50 51 52 53 51 51 52 50 48 51 49 51 53
64 58 65 66 64 64 65 64 62 63 57 55 56 51 47 44 42 38 38 39 38 37 37 39 42 44 46 47 49 51 53 53 54 54 55 55 54 57 52 54 53 52 53 56 56 56 61
65 61 61 66 69 66 66 66 65 65 62 60 57 54 52 49 49 45 43 42 41 40 42 44 45 46 49 49 51 51 53 55 55 57 56 56 56 58 58 60 56 54 54 56 59 62 65
68 64 60 63 67 71 65 65 65 70 68 66 60 60 60 55 54 53 52 48 49 50 50 51 51 53 52 54 56 57 57 57 57 57 58 62 60 61 61 65 61 59 57 60 64 67 71

GFSGBSN_250_spd_006.txt.gz
Wind_Speed
42 34 28 22 22 25 29 31 32 31 30 24 22 20 21 22 20 21 23 25 26 27 25 27 29 33 36 38 39 40 41 44 49 53 55 55 59 62 68 74 80 85 87 87 89 89 87
41 27 23 23 24 27 28 32 32 26 22 21 17 21 20 20 19 21 23 25 26 24 23 23 26 28 32 34 34 36 39 41 44 47 47 49 51 55 62 64 68 73 78 82 83 83 83
36 22 21 24 24 26 29 32 28 19 18 16 20 22 20 20 21 22 23 23 22 20 20 21 21 23 26 28 29 32 34 35 38 41 43 43 44 47 52 58 62 67 72 71 75 77 75
33 25 22 22 22 27 29 29 20 14 14 15 21 19 20 20 21 21 21 21 20 19 18 19 19 20 23 24 26 27 30 31 34 36 38 40 42 43 46 50 53 56 58 57 58 59 66
31 24 25 20 23 29 28 23 15 11 13 15 19 20 22 21 21 21 21 21 20 21 21 22 21 21 20 22 24 25 27 29 30 33 36 35 34 34 36 39 41 44 47 49 51 54 54
30 27 22 19 25 28 24 17 10 12 13 17 21 23 26 26 25 25 26 26 25 23 22 23 22 19 22 21 22 22 23 25 27 28 28 29 30 31 33 36 35 37 42 44 46 44 43
33 28 21 23 27 24 18 14 13 18 23 26 29 31 32 30 29 29 28 28 29 28 29 21 22 25 20 19 19 20 21 21 21 22 23 25 26 29 28 29 32 36 39 37 36 36 33
32 26 22 23 25 18 18 17 19 27 33 33 33 33 33 32 32 31 31 28 27 26 24 24 20 21 19 20 18 18 16 15 17 19 20 21 25 25 26 26 27 26 24 24 25 24 24
32 25 23 23 19 20 23 27 30 35 35 36 37 35 33 32 32 31 30 30 24 23 22 22 21 18 15 13 11 11 11 10 9 9 11 13 16 17 18 19 20 22 22 22 23 24 25
31 25 24 22 18 26 33 32 36 36 38 37 35 35 34 33 32 30 27 26 22 19 19 18 18 16 15 13 11 8 7 5 6 8 9 11 13 15 17 20 20 21 21 22 23 24 22
30 26 25 20 25 34 35 36 36 36 35 35 35 34 33 31 27 27 20 20 19 19 19 18 18 17 16 12 9 8 9 8 7 7 9 11 14 17 18 19 19 22 22 22 22 24 25
30 27 26 23 34 39 38 40 36 35 35 36 35 35 32 30 30 23 22 21 21 22 22 20 17 15 12 9 8 5 3 1 1 2 5 8 12 14 17 20 23 23 23 24 25 27 30
31 30 27 32 40 42 39 42 34 37 36 36 35 32 31 29 22 25 25 24 23 21 20 18 16 13 10 8 6 3 3 3 2 3 4 4 6 8 10 14 18 22 24 25 28 30 34
32 32 31 40 44 46 42 38 35 38 35 35 33 33 28 25 27 26 26 24 21 18 16 14 12 9 7 5 4 4 4 3 1 2 1 2 4 5 7 8 9 10 14 17 22 26 28
36 33 36 45 48 47 42 45 35 38 37 35 34 32 28 27 24 27 25 22 18 16 16 15 13 11 9 7 6 7 5 3 3 4 6 7 7 7 9 9 9 9 9 12 15 19 23
40 37 43 45 53 50 44 41 39 39 37 37 37 31 29 28 25 27 24 22 19 17 16 15 11 9 7 6 9 7 6 5 4 3 2 3 5 7 9 11 13 15 17 19 21 23 26
42 40 47 48 55 50 43 44 42 41 38 38 36 31 29 28 26 25 23 21 17 18 17 14 11 9 8 8 8 7 5 3 2 1 2 4 6 9 12 13 15 17 21 24 24 27 29
43 44 48 50 58 48 44 44 44 43 40 36 34 32 29 28 29 28 23 19 16 19 18 15 12 10 9 9 8 8 5 4 4 5 6 8 10 11 13 15 16 17 19 23 27 30 32
45 46 48 50 58 52 47 45 45 43 42 39 34 32 30 30 31 29 23 21 18 19 18 14 12 11 11 9 9 8 8 8 9 10 12 14 16 16 18 22 26 28 31 32 36 38 39
46 47 49 51 59 55 48 48 45 44 40 38 36 33 30 31 32 31 27 24 23 19 16 14 13 13 14 13 11 11 11 12 12 14 16 19 21 22 22 24 25 28 31 34 35 40 45
50 52 52 56 59 54 49 49 47 44 39 36 35 33 33 34 34 33 30 25 24 22 19 15 15 16 17 16 17 16 16 15 15 17 20 23 25 26 27 29 32 34 36 38 41 43 42
54 55 55 59 59 55 51 48 47 44 39 36 36 36 37 37 34 33 32 30 27 24 22 19 18 19 21 21 21 21 21 19 19 20 23 26 29 32 32 34 36 40 41 44 46 47 46
53 55 59 60 61 57 55 51 49 45 41 36 37 38 39 37 37 33 33 31 31 28 25 23 22 22 25 25 24 25 25 24 25 26 29 31 34 37 41 43 44 45 46 48 51 51 49
52 55 57 62 62 62 59 56 52 48 44 41 36 35 38 40 39 37 33 32 30 28 27 26 24 26 26 27 29 30 29 30 31 33 34 37 40 42 44 47 51 50 52 51 51 52 54
53 54 54 60 61 63 63 60 57 55 49 44 38 34 38 40 38 38 39 36 37 37 32 32 31 31 31 32 33 33 33 34 37 40 42 45 47 48 49 50 54 54 52 56 52 55 54
55 52 54 55 59 64 65 64 61 57 54 52 44 39 35 35 38 39 34 35 34 33 35 35 35 35 35 37 39 39 41 42 44 47 48 48 50 52 54 53 55 56 54 57 54 57 55
58 55 53 55 58 60 64 65 64 60 57 52 51 45 44 39 37 34 31 34 33 34 30 32 33 35 38 40 39 38 39 42 43 48 52 53 54 55 54 55 56 57 59 61 60 60 60
60 59 56 57 56 57 61 62 67 64 60 57 53 52 51 49 47 39 36 33 34 34 35 36 38 37 38 40 42 45 47 50 53 55 58 60 64 62 61 62 60 60 60 62 65 63 61
63 62 59 59 59 59 60 62 62 67 66 62 59 58 57 55 55 52 48 42 43 41 42 44 42 47 47 50 52 54 56 59 61 62 65 70 69 64 62 64 66 63 63 63 64 63 63

GFSGBSN_250_spd_009.txt.gz
Wind_Speed
54 56 48 39 35 33 24 23 27 27 28 30 33 30 28 25 23 22 21 23 25 24 23 23 24 26 29 32 33 35 36 40 42 43 43 48 50 53 58 62 68 73 77 78 75 74 79
55 55 41 34 31 25 24 27 25 27 30 31 30 26 24 22 18 19 19 20 20 21 21 20 20 23 26 29 31 32 34 35 37 39 40 44 49 50 52 58 63 69 71 73 73 77 76
59 55 38 32 32 28 25 25 26 28 29 29 26 23 20 18 18 18 18 19 19 19 19 19 21 23 25 27 27 28 30 31 34 37 40 43 46 48 51 55 62 67 72 71 71 76 83
58 53 38 31 31 27 23 24 28 27 26 24 21 17 18 18 18 18 18 19 19 18 17 17 18 19 21 22 24 26 27 28 30 33 35 39 41 44 49 52 53 59 64 70 70 72 73
60 40 34 26 29 24 22 25 31 25 20 18 14 17 19 17 18 18 18 18 18 17 17 17 18 18 18 20 22 23 24 27 28 29 32 35 36 39 40 42 44 48 53 58 60 63 63
61 34 29 28 27 22 21 28 31 21 16 12 14 18 19 20 21 21 20 19 17 16 15 15 16 16 18 18 19 20 22 24 24 27 28 29 30 31 33 38 41 42 43 43 49 51 51
52 32 28 31 26 20 22 28 26 16 10 13 16 20 24 23 22 20 19 19 21 24 24 21 18 22 17 15 16 17 18 19 19 21 25 27 31 33 34 35 35 37 38 36 38 35 37
40 34 31 30 25 19 24 29 17 13 14 19 22 25 25 27 28 28 27 25 22 20 23 22 17 20 15 16 16 17 16 15 15 18 19 21 22 22 21 23 25 26 27 28 30 32 34
35 36 34 32 23 20 25 23 17 17 23 27 28 30 31 32 33 32 31 29 24 24 24 25 20 18 15 13 12 11 10 10 11 13 14 15 17 20 25 26 26 27 27 26 29 30 30
37 39 37 33 21 22 24 20 20 29 31 32 33 32 30 31 31 30 30 30 25 22 20 20 18 17 18 16 15 14 13 13 13 12 11 11 13 14 17 15 16 19 19 22 24 26 28
45 41 40 28 19 22 22 25 28 36 34 34 33 32 32 32 32 31 28 29 26 21 21 21 21 19 20 16 14 13 11 8 7 5 5 5 7 10 12 11 16 19 19 22 24 26 29
50 44 39 25 21 22 26 32 38 36 36 36 34 34 34 34 32 30 26 25 26 21 24 21 21 20 18 15 14 12 10 8 7 5 5 8 9 13 14 15 17 21 22 22 22 25 28
52 45 37 25 24 27 36 40 38 39 37 37 36 35 34 33 30 27 26 25 25 24 24 22 20 18 14 13 11 9 7 5 5 4 5 6 5 6 7 7 10 13 15 20 23 25 27
51 45 35 27 26 36 42 39 39 40 38 38 36 35 34 31 28 26 26 25 24 23 21 18 16 14 13 11 8 6 6 6 6 4 4 5 6 5 3 2 2 4 7 9 12 17 22
52 45 34 30 32 44 46 43 40 40 39 37 37 33 29 27 27 28 27 25 23 21 18 17 16 12 9 8 6 6 7 7 6 8 9 10 9 8 6 7 7 9 10 12 15 18 21
53 44 35 34 41 48 46 45 41 41 38 37 34 31 28 28 28 28 27 25 22 19 18 16 12 11 9 7 8 9 9 9 9 9 8 5 4 3 4 7 10 11 13 15 18 21 27
52 43 38 39 49 51 48 45 40 41 40 36 35 33 28 29 27 29 27 23 20 19 18 16 14 12 10 11 11 11 10 10 8 7 5 3 1 2 4 7 9 12 16 15 16 20 26
54 43 40 44 54 53 46 48 40 43 39 37 36 35 28 27 26 27 25 22 20 19 18 17 14 14 13 13 12 11 10 9 7 5 5 5 6 8 10 10 13 15 17 18 23 26 30
53 46 42 49 56 55 49 45 45 44 40 40 38 36 29 27 25 27 25 23 20 19 18 16 16 14 13 13 12 11 10 10 9 10 10 9 10 14 16 19 19 19 23 27 32 34 34
52 48 44 52 57 58 50 44 42 45 42 40 38 35 29 27 28 28 27 25 21 19 19 18 16 14 13 12 11 12 11 11 12 13 13 13 14 16 19 21 22 24 27 28 30 35 42
53 51 46 55 55 61 53 47 44 49 43 40 38 36 33 31 31 32 30 26 23 20 18 18 16 15 15 14 14 15 14 13 14 15 16 17 18 20 22 24 28 31 35 37 39 40 43
54 52 48 57 56 60 53 47 44 48 45 43 38 35 32 30 27 30 32 29 25 23 22 20 17 15 16 18 20 19 17 17 17 18 20 22 24 25 28 32 35 38 41 43 45 47 51
55 52 51 54 56 60 55 46 44 48 45 41 37 37 33 35 29 32 34 33 28 27 22 21 19 19 22 20 18 21 19 19 20 23 24 26 29 32 35 39 42 45 48 49 51 52 53
56 53 50 53 55 60 57 50 45 47 44 44 43 35 32 31 31 34 36 34 31 30 25 23 23 24 24 20 21 21 22 23 24 27 28 31 34 38 41 43 43 44 49 51 52 54 57
56 55 49 52 56 59 60 51 50 49 47 47 38 34 31 33 34 33 35 35 32 30 25 28 28 26 25 27 27 27 26 27 28 30 34 37 37 38 42 46 49 49 55 60 58 59 61
57 56 51 51 54 59 62 56 50 49 49 44 39 41 37 29 29 32 35 35 32 31 32 31 31 33 33 33 32 31 31 33 32 35 33 35 40 45 48 52 55 56 61 61 57 59 61
59 56 53 51 53 58 61 56 55 52 50 48 44 43 41 34 29 28 29 35 37 37 36 34 33 29 29 29 30 31 33 31 31 36 41 44 47 52 55 58 59 62 57 58 58 58 60
59 58 54 53 53 55 58 59 57 58 55 52 50 48 44 44 38 30 27 30 34 35 34 31 31 30 31 31 35 38 40 42 43 45 50 52 56 60 61 63 63 61 59 60 61 59 58
60 58 58 55 53 53 56 57 59 58 59 57 54 52 53 52 47 43 38 34 33 32 37 37 33 37 35 37 41 43 44 46 50 52 57 58 62 66 68 68 68 62 62 60 59 62 61

GFSGBSN_250_spd_015.txt.gz
Wind_Speed
75 74 66 58 58 53 53 62 56 56 55 52 43 36 36 34 34 33 31 29 28 25 23 26 30 32 32 33 35 34 33 33 34 34 32 31 35 36 36 35 41 46 50 51 57 63 61
83 73 58 57 57 49 54 61 49 56 54 47 39 35 35 34 35 31 26 24 20 17 19 21 27 31 32 32 33 32 30 29 29 30 30 28 31 34 33 35 38 45 47 50 54 55 58
85 73 48 56 54 52 51 57 47 55 50 44 36 34 34 35 32 26 23 19 17 17 17 22 26 26 27 28 28 29 30 29 29 32 31 33 32 34 37 39 43 39 43 49 49 49 51
84 70 50 51 53 51 51 52 45 57 46 44 31 31 35 32 24 21 18 16 15 15 17 20 22 25 26 28 31 33 33 32 32 32 32 32 31 30 31 37 39 37 37 40 42 49 51
74 59 52 49 56 48 52 48 47 58 42 39 28 32 32 22 18 15 16 15 16 16 18 20 21 23 25 25 28 28 28 28 27 27 27 29 26 26 29 31 32 36 36 38 42 47 49
72 61 51 49 56 48 52 42 53 57 41 34 29 30 23 16 14 15 15 17 18 19 20 19 19 19 20 23 25 25 26 28 28 28 27 28 29 31 32 34 35 36 38 41 45 41 40
68 67 51 52 53 47 47 41 51 50 38 32 31 22 16 14 14 17 18 21 22 21 20 20 20 21 22 23 24 26 27 26 26 27 28 30 29 27 28 30 34 36 37 36 36 35 39
66 67 59 54 54 51 42 47 46 46 36 31 23 15 12 16 19 21 23 23 24 24 23 22 22 22 23 23 23 24 25 24 25 25 24 24 25 24 24 27 28 32 31 30 29 30 34
68 68 61 56 54 49 45 44 45 41 35 29 19 14 16 21 21 21 21 21 21 20 20 20 20 20 21 21 22 20 21 21 21 21 19 23 24 22 22 23 22 24 25 26 25 27 29
73 72 62 57 52 51 48 45 48 38 34 25 18 16 23 22 22 24 24 22 21 19 19 20 19 20 20 19 19 18 16 15 14 17 17 17 16 16 15 17 21 23 25 24 21 22 23
78 70 66 61 55 51 52 48 51 37 32 22 18 21 23 25 26 26 26 25 24 23 20 20 19 17 21 17 17 18 17 17 16 14 17 16 18 17 18 18 18 21 21 23 23 18 18
75 76 65 64 58 54 55 52 45 37 28 22 22 26 28 28 28 28 27 26 25 24 22 19 17 18 18 17 15 16 15 15 16 14 14 15 17 16 15 16 17 17 18 19 20 19 17
79 78 67 66 62 59 57 49 40 37 26 27 28 31 31 31 30 28 27 27 26 23 20 18 17 18 17 16 17 17 17 16 16 17 17 16 15 16 15 15 14 13 12 10 6 5 4
78 81 67 68 62 61 57 43 43 37 29 33 34 34 33 32 30 28 27 27 26 22 22 23 21 21 22 21 19 18 19 17 15 14 13 13 12 13 11 8 6 5 3 2 1 3 5
75 74 62 64 64 59 47 45 45 35 36 35 35 38 35 33 31 30 29 25 25 25 24 24 26 25 22 19 17 14 12 12 12 11 11 10 11 10 11 10 8 6 3 1 3 6 9
73 69 58 56 59 49 47 50 45 36 43 39 40 38 36 35 34 32 28 24 24 25 26 28 24 21 20 18 14 12 13 13 13 15 16 16 14 11 9 6 2 1 4 4 7 10 14
62 61 48 51 49 49 54 52 41 44 45 43 41 38 38 37 36 32 29 25 25 27 28 24 22 21 19 14 12 13 13 15 18 17 14 13 12 8 4 2 2 5 8 9 12 15 19
54 49 50 51 53 56 57 49 43 51 47 42 41 40 40 39 35 32 29 27 28 27 24 23 20 19 15 12 13 14 15 16 16 15 14 11 8 6 5 6 7 8 11 14 16 18 21
54 52 53 56 60 61 58 47 51 53 45 43 42 42 42 37 35 32 30 30 27 24 23 23 20 15 13 14 15 15 17 16 15 14 12 10 9 8 10 12 12 13 14 16 21 24 27
56 57 59 62 64 62 54 49 57 52 47 46 45 43 41 37 34 33 31 28 25 23 24 22 18 15 15 14 15 16 16 15 15 12 11 12 14 15 15 16 15 16 18 22 26 29 29
61 60 63 67 67 61 52 54 57 51 49 46 45 43 42 36 35 34 30 27 24 23 23 22 20 19 18 17 17 18 18 17 15 14 14 15 16 18 19 19 18 20 23 27 28 29 33
62 65 70 68 63 59 55 60 56 51 50 47 46 46 43 40 35 34 32 28 24 23 23 23 23 22 22 19 17 17 15 13 14 15 16 17 19 20 21 22 22 25 28 28 29 33 38
65 72 71 68 61 59 58 61 54 51 50 47 47 46 43 39 37 34 33 30 27 24 25 25 23 23 22 18 17 16 16 19 19 18 19 21 21 21 23 22 25 32 31 29 34 40 44
74 73 69 64 60 61 60 59 53 52 51 51 49 47 43 40 38 36 33 32 30 27 26 26 26 24 20 18 19 19 19 19 18 20 23 24 24 25 27 28 28 33 34 35 39 46 49
78 73 67 60 59 62 60 59 53 53 50 52 45 45 44 44 42 33 31 30 30 30 29 30 26 25 24 22 22 21 21 21 21 23 26 27 29 29 30 32 30 36 42 43 45 50 55
77 73 65 58 60 62 61 58 54 53 51 50 48 47 46 46 37 30 29 26 28 32 34 32 30 28 26 26 24 25 25 26 26 29 31 31 30 30 31 33 35 42 47 51 52 56 60
74 68 63 56 60 60 62 58 51 52 49 52 50 48 47 45 38 34 31 31 31 33 33 34 33 33 32 31 28 29 29 30 31 33 33 30 32 34 37 37 38 47 52 57 58 60 65
71 65 61 54 60 60 60 57 53 48 48 46 50 48 47 43 40 37 34 33 36 34 32 32 33 35 34 35 35 36 34 34 35 35 37 39 39 40 41 45 46 54 57 58 62 66 69
66 64 58 53 59 60 59 59 53 49 45 44 48 48 47 45 41 39 36 32 34 34 32 32 36 38 38 39 39 39 40 40 41 40 42 41 44 45 52 57 58 60 61 63 65 69 71

GFSGBSN_250_spd_018.txt.gz
Wind_Speed
78 83 78 76 76 77 78 81 63 58 64 59 61 64 65 48 41 36 37 36 35 33 32 30 30 32 34 34 33 35 32 31 31 30 27 24 23 28 30 31 33 34 37 39 43 46 45
78 79 81 77 75 73 83 76 61 54 58 56 59 61 56 46 38 37 36 37 33 29 27 26 27 29 30 30 32 32 31 29 30 30 27 23 21 19 25 26 30 32 34 37 43 45 45
78 81 81 81 80 76 77 67 57 52 60 49 58 59 46 37 36 36 37 37 30 26 22 21 22 22 21 26 30 31 29 28 30 27 24 27 27 26 28 31 31 29 29 31 33 38 42
83 87 82 79 83 81 70 64 55 53 51 48 56 54 39 34 37 38 36 30 26 20 17 16 15 18 22 26 26 28 29 29 27 26 27 28 27 25 27 32 31 30 29 29 29 36 40
89 87 86 86 86 82 64 60 51 51 43 43 49 46 34 33 38 36 28 22 16 13 12 14 15 19 21 24 27 29 30 29 29 31 28 26 26 25 25 28 26 25 24 29 29 30 35
95 94 89 96 89 83 59 58 51 48 38 40 45 41 32 35 38 26 18 14 11 10 12 14 17 19 18 18 20 23 25 25 25 22 21 23 23 22 22 22 24 23 28 31 33 35 37
98 96 93 88 83 76 58 53 51 45 39 37 42 38 31 38 27 17 14 14 14 15 16 15 18 20 22 21 20 20 20 21 23 23 23 24 26 29 29 30 30 29 28 29 32 35 36
105 101 94 77 73 69 54 54 50 42 32 32 39 35 32 32 17 14 13 14 17 18 17 17 18 18 20 22 23 24 23 24 23 24 25 26 27 27 27 28 30 30 28 30 32 33 33
94 94 83 72 70 61 52 50 49 39 29 32 35 32 33 26 15 14 13 16 18 17 18 17 16 16 17 19 20 21 22 23 23 23 24 25 25 25 26 27 25 22 22 26 29 29 26
90 82 72 72 69 60 51 51 48 37 30 31 33 28 33 21 17 15 15 18 18 18 17 15 16 17 17 17 17 17 17 17 19 21 21 20 21 23 22 21 22 21 19 19 19 18 20
77 80 75 73 70 59 51 53 44 37 30 27 33 25 31 18 18 16 17 18 18 18 17 17 16 17 18 16 17 18 17 15 15 17 17 16 18 21 22 20 17 18 18 16 15 15 15
71 75 74 71 66 57 56 52 40 34 26 24 30 26 26 20 21 19 22 22 21 20 20 20 18 17 19 18 16 16 17 17 19 15 14 18 18 17 15 15 14 12 12 12 10 11 15
75 76 73 70 66 55 56 50 40 30 25 24 30 28 23 26 23 23 25 24 24 23 21 18 17 20 20 20 18 16 15 14 14 15 17 16 14 15 15 12 10 9 9 11 13 12 15
77 73 72 70 64 59 56 48 38 30 30 26 30 30 26 29 26 26 26 25 24 23 22 22 20 19 17 16 14 13 13 13 14 14 13 11 12 14 14 13 11 11 10 9 8 7 6
75 77 75 75 66 59 57 48 39 34 29 30 31 31 33 31 28 28 26 26 26 23 22 20 20 19 18 18 17 16 15 14 13 13 13 15 16 13 12 11 11 12 9 6 5 5 5
79 79 73 73 70 57 56 51 41 35 31 33 35 34 36 33 31 30 28 27 25 22 22 22 21 20 19 19 18 16 15 15 15 14 14 15 15 15 15 14 11 8 4 3 5 7 11
75 70 73 73 71 59 56 51 42 38 35 38 38 37 37 34 34 32 29 24 22 22 23 24 22 20 20 17 14 14 14 14 13 14 15 16 17 15 12 9 5 3 4 6 8 10 13
73 73 71 69 67 60 54 49 45 41 39 42 45 41 39 37 35 33 29 27 26 26 26 25 22 22 20 16 12 13 14 15 17 17 17 15 12 10 8 5 5 6 7 9 11 14 16
63 65 68 69 63 56 53 53 49 44 48 46 49 42 41 39 38 35 32 31 29 29 28 27 25 23 21 17 15 15 16 17 19 18 16 14 11 7 6 8 10 12 13 13 15 18 21
59 57 58 58 57 56 52 52 51 51 54 51 52 44 42 43 40 37 35 31 31 31 29 27 25 24 20 17 17 17 18 18 17 15 14 11 9 9 10 13 15 16 16 17 19 22 24
51 50 53 54 55 53 52 55 55 59 52 54 49 44 45 42 39 38 35 33 32 30 28 28 26 23 19 17 18 18 19 18 16 14 12 11 11 13 15 17 18 19 21 23 25 27 27
52 53 54 55 53 53 58 58 61 56 54 55 48 47 47 47 44 41 36 35 32 29 28 28 25 22 19 17 15 14 14 14 14 13 14 15 17 18 18 19 20 22 26 26 30 31 30
56 57 57 58 58 59 61 64 60 56 56 49 51 49 50 47 41 37 38 37 32 29 28 27 25 21 19 19 18 16 15 14 16 19 20 20 20 20 22 21 22 28 30 31 33 32 35
59 60 61 61 61 63 66 63 57 59 61 54 53 51 50 45 42 42 40 35 31 29 27 26 26 23 22 21 21 21 21 22 23 24 24 24 25 25 27 27 24 33 36 35 32 34 40
64 65 64 63 65 69 66 61 59 64 60 56 54 53 50 47 46 42 38 37 33 30 29 27 25 25 24 25 25 25 25 25 25 26 28 28 28 28 30 33 29 35 40 40 34 38 48
65 65 64 67 71 66 64 58 62 62 58 55 54 53 52 49 44 43 38 37 35 33 30 28 27 26 26 28 27 26 26 26 27 30 31 31 31 34 35 33 31 38 43 42 40 41 53
65 64 68 72 69 65 61 59 61 57 57 56 54 53 52 49 44 43 40 39 38 34 32 31 30 30 30 29 29 30 30 30 32 33 35 35 37 39 40 35 35 42 43 44 48 52 57
65 71 72 69 64 62 56 61 59 56 58 56 54 54 51 48 46 44 42 39 37 34 31 30 31 32 33 33 33 34 32 34 36 38 39 41 42 43 43 44 42 46 45 52 56 59 62
72 72 68 64 60 58 59 62 58 58 58 57 57 52 50 49 47 46 44 40 37 33 32 31 31 33 35 36 36 36 37 40 41 42 46 47 49 49 50 50 51 51 54 57 62 65 68

GFSGBSN_250_spd_021.txt.gz
Wind_Speed
74 78 79 78 81 77 69 67 63 65 71 78 80 77 69 66 67 63 55 40 35 37 37 37 35 32 28 28 27 27 30 32 34 32 30 27 28 27 28 26 23 25 27 27 32 31 35
79 80 81 82 81 80 70 64 66 66 75 81 78 77 66 63 63 61 47 37 35 37 37 33 31 29 26 24 25 25 26 31 30 28 29 29 25 22 22 24 24 23 25 26 27 29 33
82 83 84 84 80 78 69 68 71 70 73 81 78 74 64 61 61 53 43 38 39 36 31 29 27 23 21 20 23 24 28 30 29 29 29 27 23 21 23 25 24 25 25 26 27 25 26
85 88 91 88 81 76 71 68 75 72 72 82 73 71 61 59 58 49 40 40 35 30 27 22 17 16 16 16 19 23 27 28 27 29 30 28 24 21 21 21 25 23 23 21 20 20 21
91 92 86 83 76 77 74 72 77 78 78 80 69 65 61 61 58 43 37 35 29 23 16 12 12 10 9 12 17 22 26 28 28 29 29 27 24 24 22 21 23 26 24 22 21 23 23
102 88 83 80 77 77 77 78 79 79 76 74 66 62 54 54 55 36 31 27 21 14 13 11 11 9 11 16 19 22 24 26 28 28 27 27 25 27 24 22 18 19 24 25 26 27 28
95 84 81 81 79 79 81 83 81 77 72 68 61 60 49 53 46 30 23 19 14 12 11 11 12 14 15 16 16 17 21 23 23 22 23 24 22 23 20 18 21 21 23 24 26 26 28
84 84 85 83 87 84 83 87 85 77 74 64 56 51 44 46 33 23 17 16 13 12 11 11 12 15 17 20 23 24 22 20 18 21 24 25 24 26 27 26 24 25 26 24 26 27 27
91 91 92 91 93 92 94 93 85 72 70 58 51 40 42 44 26 19 16 15 12 13 13 12 12 13 16 18 20 21 22 22 23 24 23 22 23 24 25 25 24 24 25 26 26 26 26
105 104 102 100 98 98 100 94 81 67 63 53 50 40 37 36 22 17 14 13 12 14 13 11 12 13 15 16 17 19 20 20 20 21 20 20 21 23 23 22 22 22 22 22 21 21 22
121 115 112 111 105 100 95 87 75 63 59 51 40 35 34 28 19 14 14 14 15 15 14 13 13 13 14 15 16 16 16 16 18 19 19 20 20 21 20 20 19 19 18 18 17 17 19
131 122 113 101 94 95 86 81 73 61 57 48 36 31 28 21 15 14 15 14 16 15 15 16 16 15 15 16 17 19 20 20 18 18 18 19 18 16 16 18 18 20 19 15 15 19 22
122 113 101 94 78 81 78 77 70 60 55 46 34 26 24 18 12 17 19 18 18 17 17 17 18 18 20 19 18 17 17 17 18 19 18 16 15 16 17 20 21 18 17 17 15 13 14
110 105 95 87 72 74 75 71 66 55 50 39 32 25 20 16 14 19 19 20 19 18 21 22 19 20 20 20 20 18 19 18 18 17 16 16 18 16 15 15 15 13 12 9 6 6 4
104 106 98 86 78 73 73 68 58 53 48 33 30 23 19 16 14 22 22 22 23 23 24 22 23 21 21 20 19 18 15 14 15 15 15 15 15 12 11 10 10 11 9 11 10 6 3
95 99 95 86 80 75 73 69 59 53 42 35 29 22 20 18 17 27 25 23 24 25 23 21 20 19 20 18 16 14 13 13 12 12 12 11 11 12 12 14 15 15 13 10 8 7 7
86 90 86 80 75 78 75 70 60 54 44 39 30 23 24 21 23 29 27 26 27 26 23 21 21 20 19 16 14 13 13 12 11 12 12 12 13 14 17 17 16 12 9 8 7 6 8
75 79 77 68 73 78 77 71 63 55 49 36 30 27 28 24 30 32 29 28 29 25 23 22 22 20 19 18 15 13 13 12 12 12 15 17 19 19 17 15 10 7 5 6 8 10 11
69 71 73 65 73 78 78 71 64 53 46 41 35 30 32 27 35 35 33 32 30 27 25 25 23 22 20 17 14 12 12 13 13 17 19 20 19 16 12 8 6 7 9 10 12 15 16
69 71 72 66 70 78 78 71 64 56 52 45 39 37 35 33 42 38 37 35 31 28 27 27 25 23 21 19 17 16 15 15 17 18 17 16 14 11 9 8 9 10 12 15 17 18 21
66 68 65 65 74 78 76 70 66 60 53 48 40 41 39 40 41 40 40 36 32 31 31 30 26 25 23 21 18 18 16 18 17 16 15 14 12 11 12 12 12 14 16 20 22 24 26
57 58 61 67 72 74 72 71 68 62 57 48 44 44 46 51 48 45 42 37 34 33 33 32 29 27 25 22 20 19 18 18 17 16 14 14 15 17 15 15 16 19 23 26 27 29 29
54 55 58 62 67 69 68 67 68 63 56 51 52 50 54 54 49 45 42 39 38 37 36 33 31 28 26 24 22 20 19 20 19 18 19 20 21 18 18 20 20 25 31 30 31 32 33
63 60 55 59 65 65 63 62 64 61 57 59 55 57 58 55 50 48 45 41 39 38 37 34 32 29 26 25 24 23 23 22 22 23 23 24 24 22 25 25 24 32 36 36 34 36 36
59 57 55 56 59 62 61 62 62 62 62 61 59 61 60 56 53 48 44 41 39 39 37 33 32 31 27 26 25 24 25 26 26 26 26 27 27 26 28 30 29 35 39 42 41 39 41
57 54 55 56 59 60 62 64 65 64 65 60 63 63 60 57 52 50 46 41 41 39 36 33 33 31 29 27 27 27 27 26 28 29 30 30 30 30 33 31 33 39 44 44 44 42 46
58 59 60 61 63 64 66 65 66 66 61 63 63 62 59 57 52 48 44 43 44 39 36 33 30 29 28 29 29 29 30 29 30 32 34 33 34 35 37 36 38 44 44 46 47 47 49
61 64 64 64 66 65 65 67 66 61 64 63 63 63 58 56 52 48 45 45 44 40 36 34 30 30 29 30 31 30 30 31 35 36 38 38 38 40 42 45 45 47 48 49 48 50 52
62 61 63 65 62 63 66 65 61 64 63 63 62 59 56 55 52 49 46 45 43 41 37 35 33 33 33 33 33 32 35 36 37 38 41 43 45 46 48 50 51 51 53 53 53 55 60

GFSGBSN_250_spd_027.txt.gz
Wind_Speed
53 55 57 56 57 59 58 59 58 61 62 61 64 64 66 69 71 73 70 72 79 83 82 84 71 60 50 42 36 30 25 24 26 29 29 34 39 36 33 30 26 28 25 25 27 31 33
59 59 62 61 61 59 59 59 61 62 64 64 65 66 69 71 69 72 69 73 80 83 82 79 69 61 46 37 31 26 20 21 23 24 25 30 35 32 27 22 24 25 24 23 25 27 25
69 66 64 64 63 61 61 61 61 66 65 66 64 67 70 70 69 70 72 77 81 83 82 73 67 56 40 30 25 20 17 19 20 23 24 26 30 27 23 28 31 27 27 28 27 27 21
73 72 70 68 65 63 63 62 63 68 68 67 63 67 68 70 71 72 70 74 78 84 82 68 62 51 36 28 22 17 15 18 22 26 28 28 30 28 31 30 29 29 31 29 26 24 21
76 75 74 73 68 69 68 65 67 68 69 70 67 70 69 68 72 71 71 72 79 84 79 67 57 45 32 26 21 14 15 21 24 26 30 30 29 31 32 34 29 31 33 26 24 21 22
80 78 75 74 74 73 70 68 71 71 73 71 72 70 71 69 73 71 68 73 78 82 76 66 53 37 28 22 17 12 16 22 23 27 30 29 31 35 35 30 32 35 33 28 24 21 23
82 80 79 76 77 77 74 72 74 74 72 75 73 72 72 69 70 71 67 70 75 79 75 59 46 31 25 18 11 9 17 22 27 27 26 28 32 37 35 33 31 30 29 28 22 24 25
85 85 83 83 80 83 82 78 78 77 75 76 77 71 71 69 70 73 71 71 73 76 72 57 42 24 21 15 9 10 18 23 28 30 31 35 33 34 31 30 29 28 28 30 30 30 28
89 88 87 86 86 88 86 81 78 80 76 76 77 70 72 71 71 72 75 71 72 76 67 56 37 20 18 14 12 11 17 22 27 28 33 36 37 35 33 31 28 24 23 26 27 26 26
94 94 92 90 88 90 89 88 85 82 78 74 76 72 70 72 74 72 70 72 73 73 66 52 31 20 18 13 14 16 17 17 23 27 32 38 38 34 30 26 26 28 28 27 24 22 25
108 104 102 100 95 92 89 89 84 85 85 81 77 76 70 72 74 72 75 72 73 73 66 48 29 21 17 15 14 18 21 25 24 26 30 34 30 29 29 28 29 31 28 27 26 25 32
119 111 104 98 94 94 88 88 89 83 83 79 77 75 75 78 72 69 72 73 73 73 62 44 27 22 19 17 15 17 21 24 27 28 30 32 29 30 29 26 27 28 28 27 28 29 31
112 104 100 101 91 90 92 90 85 83 84 83 79 79 77 80 74 73 74 73 76 73 54 42 25 21 20 18 18 20 19 21 26 27 28 27 28 29 28 28 28 28 29 30 31 27 23
110 108 109 107 97 96 95 87 84 86 88 88 84 82 81 79 75 75 77 74 78 76 47 40 24 22 21 20 21 23 24 26 26 26 27 27 28 30 28 27 27 28 28 25 22 21 18
114 111 112 106 103 98 96 98 95 90 91 92 88 84 86 80 75 74 76 79 80 76 43 35 24 23 22 22 21 21 23 24 26 28 30 29 29 28 27 26 24 23 22 20 19 18 17
119 119 120 118 114 112 109 106 100 98 91 93 89 89 86 81 76 72 68 75 78 62 40 34 25 25 22 21 22 22 22 21 21 22 22 24 25 24 22 22 22 19 18 18 17 18 16
119 125 126 125 122 118 113 111 104 97 95 99 93 90 85 82 79 71 71 80 72 47 39 29 25 23 21 19 19 18 18 19 20 19 20 20 22 22 23 22 19 19 19 20 19 18 19
103 112 115 122 123 121 116 112 106 101 97 91 94 94 87 77 81 71 70 62 58 43 35 27 27 24 22 21 20 20 20 20 21 22 22 22 22 22 20 20 22 23 24 22 19 19 18
96 97 99 107 112 114 108 107 108 104 96 95 96 94 89 81 79 67 64 58 48 40 33 29 28 22 24 23 24 24 24 22 21 21 21 21 23 23 24 24 25 24 22 21 22 21 20
86 85 90 92 96 102 101 104 105 104 102 104 101 95 88 81 63 61 58 53 44 41 35 33 28 26 27 28 26 24 23 21 19 19 20 22 24 24 23 22 24 23 23 23 23 22 22
72 74 77 79 85 95 97 98 99 98 98 103 101 93 86 76 55 53 57 50 44 40 37 35 29 31 31 28 26 26 24 22 21 21 22 23 24 25 25 23 24 23 23 24 24 25 27
60 64 66 74 82 87 91 95 91 92 94 96 93 90 85 75 58 56 54 46 44 42 40 37 35 35 31 28 29 27 24 21 20 21 23 25 26 26 26 26 24 23 26 27 26 28 29
57 64 67 70 78 85 88 88 87 94 90 86 88 88 82 66 53 63 49 45 48 43 41 38 36 34 31 31 32 29 25 21 23 26 27 27 27 28 28 26 26 28 29 27 30 31 30
58 63 67 71 73 78 81 74 80 78 75 79 77 76 70 55 60 55 48 45 49 45 42 40 39 34 35 34 33 31 28 24 25 28 30 29 29 30 30 29 28 32 31 32 32 34 34
56 59 63 67 69 73 62 64 67 73 77 76 77 73 68 58 67 60 50 44 51 48 44 42 40 37 36 34 34 33 29 25 27 30 32 32 32 33 34 34 34 35 36 37 37 39 37
55 57 59 61 59 50 48 65 69 72 75 74 71 69 60 70 63 55 49 47 51 47 46 44 41 38 37 35 35 33 30 27 30 32 33 34 36 37 37 36 37 39 39 40 41 41 43
50 50 50 50 52 54 56 60 68 70 71 74 72 68 71 74 70 57 48 48 52 50 47 46 44 40 39 38 37 34 32 31 32 34 35 36 38 38 38 39 40 40 41 42 44 45 47
48 50 55 58 61 62 65 67 67 69 71 71 70 71 83 76 67 54 51 51 53 52 48 46 46 40 41 40 38 36 36 34 34 36 37 37 38 40 40 42 42 43 43 46 47 49 50
49 54 59 63 64 64 64 67 68 66 68 70 70 77 83 74 61 57 55 53 53 56 53 51 48 43 42 38 39 39 38 37 38 39 38 39 41 43 45 47 44 44 46 48 49 52 55

GFSGBSN_250_spd_030.txt.gz
Wind_Speed
61 57 58 61 56 55 51 53 55 53 52 52 54 55 56 59 64 65 65 70 72 73 77 80 81 81 76 60 50 45 31 25 21 19 22 26 32 38 38 35 33 31 28 25 26 28 36
61 61 60 61 56 54 54 54 56 57 55 54 54 57 58 59 62 67 67 70 74 74 73 76 79 79 74 56 50 44 30 22 17 16 20 25 28 38 35 31 27 22 20 20 23 24 25
68 63 67 60 56 58 60 59 59 58 58 57 55 58 59 60 63 66 69 71 75 71 73 77 77 77 67 53 50 39 29 21 16 17 21 23 27 34 33 29 24 26 27 26 23 28 23
69 67 65 65 65 64 66 65 64 64 63 60 58 60 60 61 65 66 69 73 74 71 73 78 77 76 65 51 47 39 29 19 15 17 21 21 24 30 33 28 30 30 30 27 28 30 28
75 74 72 71 72 72 71 72 69 66 65 62 62 61 62 62 65 67 69 71 75 72 72 78 75 73 63 48 42 35 30 17 15 17 19 24 26 29 29 30 33 30 32 31 30 30 27
75 77 74 72 73 73 71 72 70 69 67 64 62 62 62 64 68 68 70 72 70 68 69 75 75 71 59 45 38 32 27 13 13 15 18 25 29 31 31 30 30 29 32 34 32 28 24
81 77 77 77 75 74 73 73 72 71 67 65 63 64 65 65 68 67 70 70 68 66 72 74 74 70 55 40 34 27 22 10 13 17 23 24 30 32 29 32 32 33 29 30 28 26 20
85 83 79 77 76 76 75 74 73 71 69 68 66 64 68 69 70 69 71 68 67 67 69 73 71 69 51 40 32 24 18 13 14 20 26 31 31 31 34 30 29 30 27 27 28 20 19
87 88 86 84 83 83 80 77 76 72 72 70 69 67 70 71 70 70 70 69 68 69 71 73 70 66 52 37 29 21 18 16 13 16 24 26 26 30 30 31 30 30 26 26 26 25 23
99 96 93 91 89 88 83 80 75 74 70 71 70 70 72 72 72 70 67 64 65 67 69 72 68 70 49 34 27 20 18 15 15 19 22 28 28 32 33 32 28 25 21 22 22 25 27
105 101 100 101 99 94 87 85 82 77 71 71 73 74 77 72 76 70 66 65 68 65 71 70 68 65 52 33 26 18 19 18 16 20 21 29 31 31 31 29 24 24 24 22 19 22 25
113 110 108 105 101 97 91 89 86 82 76 76 80 81 77 74 70 68 67 70 67 67 69 70 63 60 49 32 22 17 18 19 18 15 18 26 31 28 30 28 24 23 22 25 23 24 25
118 114 112 106 104 98 94 90 88 85 85 82 80 83 81 76 72 74 70 70 67 67 69 68 64 61 46 35 24 17 16 21 21 21 23 21 23 28 27 25 25 24 24 25 27 30 33
126 124 118 113 109 103 98 93 95 94 91 86 86 87 82 79 73 71 70 69 65 69 68 70 65 61 42 33 28 19 20 20 24 24 24 25 30 32 30 30 31 28 26 31 30 37 26
133 132 123 121 119 113 108 103 101 96 94 88 91 88 83 82 77 73 69 69 70 67 67 67 67 66 48 32 28 22 22 25 26 28 26 27 29 30 30 31 32 28 29 29 30 31 24
127 130 130 128 123 117 112 109 102 101 101 92 94 90 87 86 80 73 71 69 69 66 66 67 67 58 41 32 29 24 24 25 28 29 33 36 32 35 32 34 33 32 30 32 30 29 28
122 122 116 119 118 123 118 110 105 102 101 98 96 92 95 91 82 73 71 69 68 67 66 65 65 63 40 35 28 24 23 23 24 27 32 34 28 28 31 32 30 29 27 25 27 28 24
115 117 121 114 112 110 103 102 98 99 93 96 94 93 96 93 80 77 73 72 71 67 69 68 65 59 40 34 26 23 22 21 23 24 24 21 21 24 24 26 27 27 27 28 26 22 21
101 105 111 116 111 111 107 103 98 92 95 94 95 93 95 88 79 76 73 76 71 70 71 68 63 54 38 31 26 23 21 25 24 24 26 28 28 27 28 30 30 27 26 25 23 23 25
86 94 99 104 107 113 114 110 104 99 94 93 91 98 93 88 78 78 77 71 69 68 67 68 60 40 37 32 28 24 26 24 25 26 27 26 27 30 32 30 25 26 26 26 26 28 23
78 82 85 89 99 102 110 110 106 104 104 104 100 94 92 87 79 79 77 75 73 72 69 68 53 38 39 34 29 27 28 28 28 28 27 28 30 30 30 27 28 27 27 28 27 25 24
76 78 79 83 86 91 96 98 107 111 111 111 104 97 94 91 88 78 78 76 76 75 68 58 42 42 40 36 32 31 29 30 28 27 26 27 28 28 30 29 27 27 29 28 26 23 25
63 69 72 73 73 80 85 85 98 102 102 100 100 98 94 90 86 81 76 76 73 67 52 46 45 45 44 36 35 34 32 31 28 26 26 27 27 27 28 28 27 29 28 26 25 26 27
55 62 66 67 68 70 78 80 80 85 86 95 96 96 91 84 81 77 80 78 73 65 60 49 48 46 41 41 37 37 35 32 28 26 27 28 25 27 28 27 28 30 29 28 29 30 30
49 56 60 63 64 68 73 75 70 81 69 85 89 86 81 76 81 80 76 70 69 58 52 51 47 41 48 42 41 37 35 34 30 27 27 27 30 31 30 30 32 33 32 34 34 35 35
50 56 58 62 65 65 71 70 66 64 68 76 75 77 73 76 69 69 71 68 62 49 50 48 49 47 44 43 41 38 37 35 34 31 28 29 33 33 34 33 34 35 37 38 39 39 41
49 51 54 56 58 61 63 64 61 59 67 67 67 67 67 69 72 70 64 57 52 48 48 46 50 46 47 47 43 40 38 37 36 33 29 31 34 36 36 36 37 38 41 41 43 45 45
45 44 48 52 54 55 55 57 54 63 64 66 67 67 70 56 59 63 67 56 50 52 47 46 49 46 47 47 44 39 39 37 36 33 32 31 34 35 37 39 40 42 42 46 46 48 51
40 41 42 43 45 48 51 56 63 64 66 70 66 63 61 58 60 55 50 49 58 52 47 43 45 50 52 50 41 40 39 38 36 36 34 33 36 38 39 41 42 43 46 47 49 54 54

GFSGBSN_250_spd_033.txt.gz
Wind_Speed
75 72 70 65 66 62 61 61 57 57 55 51 51 55 55 55 56 55 56 56 59 61 67 70 71 72 71 76 70 59 47 41 33 23 14 15 20 21 32 40 36 32 30 31 32 40 50
76 74 72 68 66 66 59 55 55 59 56 56 54 55 56 57 58 58 58 58 60 60 67 71 71 69 71 71 67 56 46 41 30 21 13 14 20 19 28 33 32 31 31 32 34 31 43
79 74 70 67 65 63 61 56 57 59 54 54 55 57 60 60 62 60 60 60 59 61 67 72 69 67 72 72 63 55 45 41 28 18 12 11 19 20 27 29 25 23 24 24 31 29 39
73 70 69 68 66 62 60 67 56 60 59 61 55 57 61 63 63 62 61 56 58 59 65 70 71 69 70 71 61 51 43 38 27 15 10 10 16 23 33 31 30 33 34 30 24 23 28
76 74 69 70 69 64 63 63 66 58 60 63 64 63 66 66 62 63 60 55 57 62 65 68 70 63 68 70 59 45 40 36 24 11 6 12 16 28 28 29 26 35 34 32 28 28 29
76 75 72 73 69 67 66 64 59 59 62 64 64 65 66 65 64 64 60 57 55 62 64 68 66 61 67 71 62 44 36 34 25 10 5 12 18 26 30 27 28 35 34 34 29 26 26
85 81 79 78 76 74 71 70 69 70 68 66 66 64 63 64 63 62 61 58 58 61 62 65 67 64 68 67 62 42 35 30 24 11 8 10 18 27 30 31 34 35 34 30 24 28 30
89 87 86 83 83 80 78 74 74 71 70 68 65 63 62 64 62 62 61 57 59 60 63 65 64 57 63 64 63 42 34 30 22 15 15 14 22 24 29 31 30 30 28 26 27 29 28
96 96 90 87 82 81 80 81 80 75 70 67 64 63 63 65 64 63 63 57 59 60 61 62 61 54 62 62 61 38 33 28 18 15 14 14 19 26 27 26 30 27 21 20 24 26 23
99 97 96 88 85 84 83 82 80 76 73 67 65 67 68 66 64 65 60 62 56 61 60 60 59 58 60 63 59 42 35 24 17 13 14 15 17 22 25 27 22 20 19 21 21 25 29
107 100 101 95 91 90 85 85 84 80 76 72 69 70 71 65 67 62 61 61 60 60 61 61 60 55 58 61 58 49 33 23 15 15 17 17 17 20 19 24 22 21 19 19 21 24 26
118 113 106 105 98 94 90 86 87 86 81 78 74 75 75 73 72 65 64 62 62 61 64 61 59 58 58 58 56 51 33 21 14 13 15 15 18 22 21 23 26 22 19 20 20 21 24
118 114 113 111 107 99 97 96 93 91 88 84 81 79 80 77 77 67 69 68 63 60 64 61 59 55 55 57 56 49 32 23 19 17 16 16 17 21 22 22 25 23 24 20 24 28 26
123 123 119 119 110 107 104 98 97 96 95 89 85 83 84 84 77 73 71 69 63 64 68 64 61 59 58 56 53 49 35 22 25 18 20 18 18 20 26 26 26 27 27 22 25 27 29
127 132 129 121 115 113 109 104 101 97 97 93 88 84 82 84 78 76 73 68 61 67 69 64 62 60 57 54 49 55 43 23 24 21 21 25 23 26 26 28 29 33 27 26 26 30 32
124 125 130 129 124 119 113 106 103 101 95 95 91 85 84 89 79 79 74 65 65 70 67 64 63 64 60 53 55 58 46 29 26 22 24 26 32 31 31 30 31 31 28 29 29 31 31
120 124 125 129 125 127 120 115 111 108 103 100 95 89 89 91 85 82 71 66 71 73 70 68 65 66 61 58 56 51 39 29 29 24 25 31 33 34 30 30 34 35 35 35 31 29 31
115 120 123 126 127 122 126 121 117 114 111 105 100 93 96 96 91 82 72 67 73 74 70 68 67 67 61 56 56 49 32 27 27 23 25 28 27 28 28 30 30 35 34 32 29 26 28
99 106 116 121 125 124 120 120 118 117 112 111 103 100 98 101 92 80 74 71 74 73 67 65 64 65 61 56 48 42 30 26 24 22 25 27 28 27 24 26 24 26 25 25 25 27 30
84 94 103 113 122 120 120 121 120 121 116 113 112 107 105 102 89 86 76 74 73 73 67 62 63 64 60 59 47 47 30 27 24 24 25 28 28 28 28 28 23 26 26 27 28 32 30
78 82 89 100 109 117 115 115 115 118 117 116 116 109 105 97 86 85 75 76 76 70 63 65 64 65 63 57 50 44 29 30 29 26 26 29 31 29 29 29 28 29 28 30 32 35 30
69 74 79 85 92 102 114 112 113 112 115 119 111 103 99 98 94 89 82 78 74 67 64 66 65 63 61 59 46 43 28 35 31 27 28 29 29 27 29 29 26 29 31 34 35 34 29
61 67 71 73 78 89 98 105 108 110 111 106 98 101 98 97 89 84 75 70 67 65 68 68 67 66 60 52 40 37 33 37 31 30 29 28 28 27 29 30 31 33 33 32 34 29 27
57 63 65 67 71 75 85 93 94 97 97 96 92 90 91 92 84 74 71 68 65 63 66 67 66 64 59 54 49 39 34 37 34 33 30 31 28 27 29 28 29 33 32 30 30 25 25
56 57 58 61 64 67 75 80 82 83 83 88 93 91 89 87 83 75 72 69 70 68 68 69 66 64 60 56 54 39 36 38 37 35 33 32 28 27 27 27 28 29 28 28 27 28 31
45 50 51 55 60 65 67 73 75 74 77 83 88 93 92 90 81 79 79 76 75 73 72 68 63 65 56 52 41 38 40 40 37 38 36 32 28 24 29 29 29 29 32 33 32 31 37
44 45 49 52 56 58 60 63 66 67 68 72 78 85 87 88 85 84 81 72 77 75 70 65 59 52 43 43 37 38 42 40 40 40 38 33 31 27 30 32 34 33 36 35 37 39 42
44 45 48 50 53 56 60 61 62 60 61 65 67 73 76 82 84 84 79 77 76 71 65 61 55 51 49 44 39 40 44 42 42 42 37 37 34 32 31 33 35 36 38 39 40 44 48
40 42 46 48 49 50 55 58 59 57 62 64 59 61 66 70 75 80 78 73 67 67 55 54 48 45 48 45 44 44 45 44 42 41 39 40 37 36 34 35 37 37 40 41 43 49 49

GFSGBSN_250_spd_036.txt.gz
Wind_Speed
69 71 71 69 67 67 68 67 65 62 60 60 58 62 61 57 52 52 54 54 57 59 62 58 54 59 64 71 67 72 74 61 51 42 30 19 15 15 17 20 35 35 32 26 24 22 26
72 71 74 73 69 72 71 71 69 67 64 61 60 63 63 59 54 52 54 55 57 60 59 53 53 57 62 69 65 70 67 57 47 39 26 16 13 16 17 23 35 29 27 26 25 27 38
68 75 76 78 77 76 75 73 73 71 68 61 59 54 65 63 56 52 56 58 59 62 58 57 54 58 62 66 65 64 62 51 44 35 24 15 10 13 17 31 41 30 23 21 27 34 42
76 72 70 79 79 77 77 79 76 72 67 62 57 60 66 65 55 55 56 60 60 62 56 53 55 56 61 66 64 61 58 46 40 30 24 15 6 12 14 29 34 32 25 25 29 35 42
80 78 73 69 72 72 70 69 71 69 67 65 60 58 64 58 56 55 59 58 56 58 54 52 51 53 60 63 61 58 58 46 37 28 24 19 7 8 14 23 23 23 29 32 34 34 36
83 81 80 76 71 71 72 69 68 68 67 65 64 54 55 59 51 59 58 56 56 55 52 52 49 53 56 61 63 56 59 47 36 30 28 25 10 9 19 22 22 27 29 32 34 33 34
89 87 83 79 79 74 71 71 71 69 69 68 63 63 61 58 60 60 58 54 54 54 53 52 47 51 56 60 60 58 63 47 33 29 23 23 16 13 21 24 24 25 31 32 31 24 24
94 90 88 84 80 81 75 72 73 69 66 68 68 64 61 62 62 61 59 56 53 53 53 49 48 50 53 58 58 58 60 53 35 25 22 20 13 12 21 23 20 22 28 28 26 23 23
107 102 94 90 86 83 81 77 76 76 72 69 69 68 68 67 66 64 63 55 55 53 50 48 48 50 51 55 55 54 60 54 39 23 20 17 13 14 16 21 20 21 27 23 27 23 22
103 107 103 97 92 89 84 83 80 77 76 74 74 71 70 68 68 68 63 55 53 50 49 50 50 50 52 54 53 55 58 54 35 23 18 13 12 12 16 17 22 20 21 24 21 23 24
96 105 107 105 99 96 90 87 86 85 79 75 77 77 75 71 71 69 63 58 54 52 50 52 54 52 54 54 55 54 56 51 38 23 16 16 14 14 14 19 21 21 23 20 19 22 28
103 105 109 109 108 100 94 89 88 88 86 80 77 77 76 76 74 67 66 63 57 53 53 51 55 52 54 55 56 52 52 52 48 25 16 18 15 13 16 17 20 24 22 22 22 25 25
106 108 111 112 110 106 103 99 94 90 90 84 79 76 76 75 74 68 70 66 59 54 57 57 57 54 56 55 55 54 55 55 53 31 20 17 15 12 13 16 18 22 24 22 23 26 23
107 112 112 112 110 113 110 104 99 94 90 89 84 82 81 79 77 72 72 68 59 60 61 60 58 55 57 55 54 53 53 56 49 40 23 22 16 13 14 17 18 19 25 25 25 25 23
112 111 115 116 115 116 114 111 109 104 99 94 92 84 79 84 80 76 76 69 59 63 65 60 52 55 56 57 55 56 54 56 47 40 23 23 24 15 20 21 23 25 26 28 26 28 28
107 114 114 118 120 120 118 113 112 111 104 102 96 95 85 91 84 82 79 68 64 68 65 59 56 57 57 57 55 57 54 51 46 40 28 24 27 26 22 23 25 24 26 28 30 32 30
97 106 112 113 121 120 119 118 113 112 108 106 104 98 87 94 88 84 75 67 64 72 65 59 56 56 59 56 56 56 54 49 49 41 32 29 27 29 28 27 28 28 30 28 30 33 32
96 96 103 111 114 121 118 120 117 115 114 110 106 102 95 99 92 80 70 67 65 72 66 61 58 59 60 59 56 52 50 50 49 40 32 30 26 26 27 26 26 29 33 35 37 36 37
88 89 92 102 110 115 121 118 120 119 119 115 108 103 101 104 91 75 71 66 69 72 65 61 63 62 62 58 55 52 49 47 49 38 31 26 29 27 21 22 23 23 27 28 29 32 34
80 85 84 91 101 110 116 120 121 122 122 119 114 112 107 106 90 83 78 71 74 74 68 65 64 63 60 57 57 56 52 48 43 38 28 26 30 26 21 19 18 22 23 23 23 27 28
73 76 78 82 89 100 111 116 120 122 124 124 122 114 102 96 90 83 79 73 75 75 69 65 63 60 57 57 58 55 50 51 45 33 29 26 30 28 25 21 21 25 27 30 29 30 32
67 69 70 73 77 89 102 111 113 118 125 130 123 116 108 99 97 93 85 75 77 76 71 65 61 61 59 56 57 47 51 50 46 37 29 29 30 27 28 26 25 28 31 31 29 29 31
63 64 66 67 71 79 91 103 108 109 117 112 114 115 108 104 101 98 83 75 75 78 69 65 63 62 57 53 56 52 52 52 44 38 30 29 29 29 30 28 26 28 34 28 30 31 31
60 60 61 63 66 73 85 92 98 105 98 100 108 112 107 103 100 89 84 77 80 78 69 60 64 61 57 55 56 53 53 51 45 36 31 30 31 31 31 28 26 32 29 31 31 32 32
55 56 58 60 62 69 75 82 89 94 90 95 101 106 106 101 94 92 85 79 86 83 75 71 64 58 55 56 53 48 53 52 50 39 32 33 32 31 30 29 28 29 29 28 26 27 26
51 55 57 58 58 64 67 74 80 84 83 88 93 95 96 99 95 90 87 85 77 76 75 67 62 57 52 51 51 53 52 51 49 38 34 33 34 32 32 29 27 29 30 26 24 23 29
49 50 50 50 53 58 62 66 71 73 77 82 82 91 91 89 94 90 85 81 84 81 70 62 59 55 51 52 53 58 53 51 41 35 34 34 38 36 33 32 31 32 29 29 27 31 34
40 42 43 43 49 53 57 59 61 63 69 70 72 80 90 89 87 85 82 78 73 70 67 60 57 52 53 54 57 57 51 47 35 34 33 36 39 40 36 36 34 33 31 32 33 37 40
36 37 39 42 46 50 53 54 58 60 64 66 64 71 86 88 83 80 76 72 64 58 57 56 54 56 58 57 58 59 52 47 43 35 34 39 41 42 40 39 37 36 37 38 40 42 43

GFSGBSN_250_spd_039.txt.gz
Wind_Speed
59 66 68 65 64 71 71 65 64 63 61 62 62 62 61 59 60 58 56 56 61 55 51 58 58 59 61 59 55 60 67 72 76 70 51 44 29 18 12 16 16 26 18 20 15 16 18
72 67 61 63 63 63 61 64 65 66 65 64 61 65 65 64 62 62 59 55 58 59 55 58 58 59 59 59 54 59 65 69 71 64 47 34 26 17 12 17 20 26 20 23 25 26 24
78 74 62 63 67 67 64 61 64 67 67 65 65 63 66 65 66 66 60 55 56 60 59 57 57 57 56 56 54 57 63 67 69 58 43 32 29 18 10 14 21 28 26 20 20 28 28
77 78 75 70 69 66 70 65 66 69 70 70 70 68 68 70 67 65 60 57 53 58 58 58 58 54 53 54 51 55 60 67 68 55 42 37 28 20 7 9 17 25 22 22 22 28 26
82 78 78 74 72 68 67 69 70 65 68 70 70 72 69 73 71 68 61 57 50 55 54 56 54 50 51 50 48 54 58 65 62 52 40 35 25 25 14 4 19 27 16 21 25 29 29
93 90 86 87 82 80 77 71 71 71 66 62 64 62 63 61 64 64 61 59 52 49 52 50 51 49 50 47 46 53 57 64 60 49 36 33 23 27 18 7 17 23 20 21 27 27 29
101 98 94 88 87 88 88 81 75 72 67 62 62 61 61 60 63 63 61 60 56 51 54 50 50 48 48 45 44 50 56 62 60 54 38 33 22 24 14 8 14 16 19 23 28 28 27
107 107 105 101 97 91 92 88 77 76 70 64 61 63 63 63 63 63 61 57 58 56 54 50 50 49 43 44 46 49 54 58 57 52 37 30 20 21 12 8 12 14 19 22 27 29 22
118 123 115 109 102 97 95 88 81 77 77 70 66 65 68 62 61 61 60 56 57 57 54 52 52 49 44 44 46 49 50 55 55 52 41 27 18 17 9 10 13 18 19 23 28 27 22
134 129 120 115 114 109 104 95 87 84 82 77 70 69 70 65 67 63 59 59 59 55 51 52 51 47 44 44 44 47 50 54 58 54 42 26 21 11 15 10 16 17 17 18 29 27 23
122 116 112 113 103 101 98 98 102 96 90 83 77 74 72 68 71 65 62 62 60 58 51 53 51 50 46 45 45 48 50 52 54 54 49 29 19 14 12 15 13 17 17 17 21 22 24
112 109 108 105 99 95 96 92 94 94 96 90 85 78 76 70 73 68 65 66 64 61 52 51 52 50 48 45 46 48 48 52 51 53 51 35 20 13 14 12 16 15 17 19 21 23 20
106 104 104 104 100 96 97 93 95 95 98 98 93 85 82 78 78 71 70 68 65 58 57 55 54 53 49 47 48 46 45 49 51 53 53 34 20 15 14 13 13 16 19 21 24 23 22
103 103 100 101 100 96 96 97 97 98 98 101 99 92 86 80 80 74 75 69 64 57 59 57 55 52 49 50 48 45 47 47 51 52 53 42 24 16 14 16 15 15 23 25 26 25 22
98 98 98 100 98 96 93 93 95 97 100 104 102 95 90 86 81 79 78 69 57 56 61 58 56 51 53 53 49 47 47 46 48 53 50 46 30 20 17 20 17 20 22 21 26 27 23
90 94 94 95 98 98 98 96 96 99 104 105 105 99 92 92 88 82 77 65 61 64 62 60 56 54 55 52 51 47 45 46 47 50 49 47 32 22 21 24 24 18 19 22 24 26 27
81 85 89 93 93 97 99 99 97 102 106 108 111 106 96 96 92 84 70 65 63 68 67 62 59 55 57 55 53 48 46 47 49 50 49 48 39 25 23 27 25 23 22 21 22 26 27
77 79 83 86 89 92 96 101 100 104 109 111 112 111 104 103 98 81 71 66 66 69 64 60 58 56 59 55 51 48 47 50 49 52 50 49 42 34 26 22 24 26 28 24 25 28 30
76 76 77 79 84 88 92 99 103 104 110 111 111 110 108 110 100 79 76 73 71 73 68 64 60 56 54 52 49 49 49 51 50 52 50 49 44 34 26 20 24 25 27 24 26 30 32
74 75 73 74 78 83 89 95 105 107 108 112 114 117 113 117 97 83 80 77 72 73 71 66 61 57 53 54 50 51 52 52 50 51 51 45 42 37 30 23 18 23 25 25 23 24 23
72 74 73 72 73 78 85 92 100 109 109 111 116 114 109 110 95 85 82 77 74 77 72 67 62 54 52 51 52 54 53 51 50 53 49 45 42 38 32 27 21 23 24 22 23 24 23
69 71 70 69 71 74 81 87 94 103 111 114 108 109 111 103 100 94 85 77 75 76 71 65 59 58 58 56 55 54 53 55 50 50 50 52 46 40 31 31 26 24 27 26 25 21 21
64 67 69 65 67 68 74 82 92 98 106 103 98 108 111 107 103 100 87 80 76 79 73 67 61 56 58 55 56 54 53 52 48 48 49 52 47 41 33 29 25 24 33 26 22 23 25
57 63 65 62 63 66 71 77 87 95 92 88 96 104 107 103 103 94 87 85 80 78 76 71 65 62 61 62 57 53 51 51 49 50 49 50 42 41 36 29 22 32 31 27 28 27 27
53 59 60 59 59 61 65 71 81 88 87 85 90 97 99 102 101 99 90 89 86 85 81 74 67 65 68 65 59 52 49 51 44 46 46 46 42 38 33 31 26 31 32 31 28 27 28
50 54 56 56 56 58 62 67 78 81 83 80 84 90 91 98 100 101 91 85 83 82 83 75 71 68 67 62 57 52 47 42 46 44 45 46 45 37 32 31 29 36 31 33 29 27 31
46 50 52 53 53 56 60 66 73 75 75 77 80 82 89 89 97 101 95 86 86 85 80 76 69 65 63 57 57 53 51 45 46 45 47 46 44 38 32 32 33 38 32 32 32 36 33
41 44 47 49 52 54 56 62 67 69 68 68 76 80 78 85 94 97 94 92 88 85 80 76 73 69 63 61 60 60 52 51 48 47 47 44 43 40 37 33 33 38 34 35 40 39 38
36 38 40 43 46 49 52 56 60 59 59 64 71 70 75 88 91 92 90 86 85 89 85 78 70 67 60 58 59 56 52 50 49 48 49 46 43 40 39 33 35 41 41 39 41 42 43

GFSGBSN_250_spd_042.txt.gz
Wind_Speed
52 45 47 47 62 62 49 62 58 56 59 62 64 63 61 58 55 56 55 58 60 59 57 57 57 53 60 62 65 66 64 65 70 72 79 71 54 50 37 26 18 12 9 11 17 15 10
53 58 57 59 71 65 64 70 65 55 53 54 59 63 63 61 61 59 59 57 59 59 57 60 56 53 58 58 62 62 60 62 65 69 76 69 52 50 30 19 11 11 11 12 22 19 17
58 63 68 71 71 75 68 71 65 56 57 55 54 53 56 60 60 60 59 54 57 57 59 58 54 54 55 55 55 56 58 57 62 69 71 71 51 47 25 12 9 9 12 16 25 21 15
73 71 74 79 81 80 77 77 63 61 57 57 58 55 54 59 60 60 63 59 60 59 60 58 56 54 55 53 54 53 54 55 60 66 69 68 50 45 27 19 8 10 13 12 15 15 18
85 87 89 90 88 84 85 75 61 67 60 59 57 57 58 56 55 56 62 59 57 54 54 57 53 52 55 52 47 49 52 53 59 62 65 63 48 42 26 20 5 8 5 10 14 19 22
98 96 99 100 96 95 87 80 75 72 72 60 68 65 63 60 58 56 54 51 52 49 50 53 53 55 56 51 47 48 49 51 56 59 58 60 46 38 22 16 2 7 12 7 9 16 14
100 97 95 91 89 88 85 83 81 81 74 74 66 70 68 63 62 59 54 49 45 47 52 51 50 51 52 47 46 47 47 49 53 57 55 57 47 34 24 11 4 5 8 8 9 14 18
97 96 98 98 98 96 94 93 91 89 84 81 84 73 70 65 64 60 54 45 46 49 52 52 49 49 47 46 46 45 44 46 50 54 55 54 51 29 28 12 4 5 7 12 14 15 16
114 113 112 109 107 105 104 98 94 91 89 89 80 78 73 70 65 62 55 47 50 49 50 50 47 45 45 45 43 44 44 44 48 50 50 51 54 30 25 15 10 5 9 9 14 17 22
129 129 127 125 122 121 117 114 112 107 103 98 93 91 82 73 65 62 58 53 53 53 49 50 44 44 46 43 43 43 44 45 46 49 49 52 51 36 25 12 11 10 10 10 13 16 19
135 136 135 130 125 122 119 120 116 107 105 99 100 96 86 79 70 63 59 60 57 56 49 50 45 45 49 45 44 43 43 44 45 46 48 51 51 44 24 20 6 9 14 14 15 18 21
127 127 125 122 122 122 121 113 107 99 94 93 90 86 87 83 77 68 67 64 59 60 49 48 47 46 50 49 46 45 43 44 44 46 48 49 50 47 25 22 16 9 13 15 17 17 21
112 112 115 116 117 117 114 108 104 100 97 94 88 83 78 82 86 78 75 72 64 61 57 52 50 51 51 50 47 47 41 43 44 45 49 47 47 48 32 21 22 14 13 19 19 20 21
103 106 108 107 103 104 106 106 103 101 100 99 92 90 84 81 85 83 79 76 63 58 58 55 54 52 51 49 47 45 41 42 43 43 45 45 46 50 45 21 21 20 15 17 18 20 21
92 95 96 99 99 101 102 102 99 100 101 99 95 90 89 85 84 80 84 76 63 59 60 61 60 56 53 51 50 44 43 40 43 44 45 43 46 47 44 31 21 22 18 17 20 22 21
85 86 86 90 94 95 95 101 99 96 99 99 97 89 88 96 94 85 83 76 71 68 64 64 62 57 53 51 46 45 44 42 44 44 45 43 44 45 48 42 24 24 21 18 21 23 23
83 83 84 85 86 89 93 93 100 100 99 102 97 90 90 98 101 91 75 75 74 71 64 64 60 55 53 51 49 46 46 44 44 44 43 43 44 45 48 44 28 21 25 23 20 22 24
80 81 81 83 82 84 86 93 95 98 100 101 96 89 94 104 100 90 78 72 75 74 70 65 59 59 58 55 52 48 45 44 41 42 42 43 43 46 47 45 31 23 22 24 25 30 28
73 77 78 80 82 80 82 86 93 95 98 99 96 89 96 106 99 86 84 77 75 76 74 68 61 58 59 55 50 47 45 44 41 44 43 43 45 47 47 45 41 23 22 21 25 30 32
67 70 76 77 79 78 78 82 88 93 94 95 99 97 99 96 88 89 84 77 73 75 73 67 62 58 57 56 50 48 47 47 45 46 42 45 46 47 46 45 45 27 24 24 23 27 30
62 64 69 73 77 75 75 79 84 89 91 94 99 95 89 81 78 82 84 80 76 76 76 69 65 59 57 55 52 51 50 48 47 45 45 46 46 48 51 49 46 34 24 21 24 24 23
54 57 63 70 72 70 69 73 81 86 91 94 89 91 87 81 85 88 86 77 75 76 73 68 64 61 58 56 55 52 51 50 48 47 46 46 46 49 49 47 45 34 26 24 25 28 28
50 52 56 63 68 68 67 71 76 81 86 84 80 87 87 85 88 88 84 80 76 79 72 69 66 65 60 59 59 58 54 52 50 46 47 48 46 47 47 45 43 33 31 25 24 25 26
44 48 51 58 62 63 60 68 72 74 77 80 77 82 83 84 88 83 86 85 79 77 77 73 69 64 61 65 60 56 53 51 47 46 46 48 48 47 50 47 39 40 31 28 25 24 24
40 45 48 51 56 57 57 63 68 72 73 78 76 80 82 83 87 91 89 86 82 82 81 76 71 68 66 62 64 59 53 51 49 46 47 46 45 46 47 46 39 36 37 30 28 25 27
37 39 42 48 51 55 54 59 63 65 73 74 72 76 83 86 88 89 91 89 84 79 82 76 76 76 72 70 65 56 51 45 46 47 47 43 45 48 42 42 41 39 38 32 28 27 35
34 38 42 46 48 49 49 53 58 64 68 69 71 74 78 82 92 89 85 87 85 82 81 77 74 74 69 62 58 51 49 48 47 45 46 48 48 45 47 46 42 41 40 35 31 39 33
35 38 40 42 44 46 46 51 56 60 62 67 69 72 74 77 87 90 87 87 86 84 80 80 83 75 68 64 59 55 54 49 47 46 49 48 49 48 50 45 41 43 38 38 37 37 36
29 32 36 38 41 43 45 49 53 53 58 60 62 69 73 78 86 90 87 87 83 85 86 87 78 73 68 65 59 55 56 54 50 49 49 49 49 51 49 45 44 43 41 38 40 39 38

GFSGBSN_250_spd_045.txt.gz
Wind_Speed
56 62 59 52 50 47 49 47 47 50 51 49 47 49 48 45 50 52 53 56 57 54 51 53 53 50 52 52 55 58 58 56 57 59 66 73 76 73 62 54 31 14 17 7 16 14 9
62 65 66 52 54 49 51 50 51 56 54 58 52 51 53 47 44 46 51 52 55 51 51 50 51 50 49 54 54 57 57 54 52 57 63 69 71 70 60 52 28 18 10 10 18 13 7
69 63 69 57 58 53 55 60 61 60 62 61 65 58 50 59 47 44 45 47 48 50 52 52 53 52 51 53 53 55 53 51 50 55 60 64 67 69 55 49 28 19 5 10 16 18 17
78 73 74 67 60 60 61 61 66 70 74 75 74 65 59 64 50 49 42 43 44 48 51 51 53 52 50 49 48 50 48 49 49 50 55 60 62 67 54 48 29 15 2 3 11 17 16
76 75 71 73 67 65 66 67 66 71 73 77 78 71 62 66 54 50 47 43 43 45 48 51 53 48 44 47 43 44 45 44 43 47 51 57 60 63 57 46 25 3 4 3 5 11 17
79 77 78 79 86 84 77 78 76 79 77 80 80 73 67 63 54 55 53 54 52 46 48 48 47 45 43 41 40 40 41 40 41 44 50 53 55 58 57 44 26 6 3 3 5 10 10
92 96 99 98 95 92 92 84 88 89 85 83 87 80 74 59 62 60 59 54 52 53 50 47 45 41 37 37 38 39 39 38 39 42 47 49 52 55 57 39 26 9 2 2 1 6 4
104 101 104 105 103 100 100 101 98 97 95 88 85 79 72 64 66 64 60 60 63 55 47 49 46 36 38 40 34 36 35 35 36 40 45 46 48 54 53 35 28 10 3 6 5 9 14
102 102 105 105 108 106 98 97 88 85 83 90 84 81 74 75 70 70 67 65 58 54 49 51 42 38 39 36 34 35 36 35 37 40 43 43 45 51 50 36 25 11 6 7 11 8 12
108 109 108 107 105 102 99 96 90 90 87 87 90 86 84 82 78 76 73 74 73 62 53 52 47 39 38 38 35 33 34 34 37 40 43 41 44 47 48 43 27 20 9 6 9 11 12
122 118 117 117 114 112 110 106 102 102 101 103 103 100 100 96 89 89 85 78 77 70 61 52 48 41 40 38 38 35 36 36 37 40 42 39 40 43 46 42 35 25 13 9 10 12 13
121 124 126 127 129 130 124 124 121 117 116 115 114 113 109 102 102 94 85 79 74 68 56 53 49 48 42 41 39 36 37 37 38 40 39 37 37 41 46 44 38 24 19 14 11 14 16
109 111 112 116 120 122 123 123 124 121 119 119 119 117 108 106 99 93 85 75 71 62 56 56 51 48 51 45 42 37 39 39 39 39 37 35 37 39 44 41 39 29 20 20 16 16 16
101 103 105 105 106 106 109 113 117 118 114 114 114 111 106 97 96 90 82 74 63 54 60 59 55 49 47 48 45 40 41 40 39 40 38 37 35 38 41 39 41 37 23 19 20 15 15
96 96 98 97 97 98 101 103 105 105 109 110 112 109 104 97 99 94 85 72 59 61 68 63 59 58 56 48 48 44 43 43 42 41 38 35 35 36 37 38 40 38 27 21 17 17 17
89 89 92 94 96 95 97 95 97 100 103 104 102 107 102 103 105 101 86 67 65 68 72 67 65 59 58 52 48 47 46 46 44 40 38 36 34 34 37 41 38 35 37 24 22 21 23
84 85 86 85 88 91 90 94 96 95 97 102 103 102 100 106 111 103 81 67 71 71 75 70 64 62 59 54 51 50 50 48 45 42 38 37 33 32 37 39 40 38 37 29 24 25 25
79 80 81 83 84 86 85 88 91 95 96 99 99 97 92 107 111 92 77 72 76 76 77 73 67 65 59 57 53 50 51 50 46 43 40 37 33 34 38 36 40 38 39 34 24 26 28
74 73 73 76 80 82 82 83 86 88 95 97 92 92 99 109 103 84 76 77 81 81 81 74 72 67 62 59 57 52 51 50 47 44 43 38 34 35 34 38 40 37 37 33 26 24 27
70 68 68 70 72 77 79 79 84 81 88 93 93 92 102 104 81 82 80 78 79 83 83 76 73 70 64 59 57 54 52 50 47 42 42 38 37 36 33 39 40 37 36 32 27 24 23
59 62 62 66 68 70 74 76 81 79 82 88 89 90 91 83 76 74 74 78 81 83 82 79 74 67 65 60 60 58 54 51 47 46 43 39 38 35 36 39 38 38 38 38 31 30 25
50 55 57 59 62 64 71 75 78 77 78 79 80 82 85 75 75 80 79 77 78 83 83 77 73 70 67 62 61 60 56 52 50 48 44 40 39 37 37 40 39 38 39 33 28 27 31
43 48 51 53 57 61 66 71 73 71 69 64 71 78 77 73 78 81 75 78 76 80 80 77 73 76 69 63 64 63 58 54 52 48 45 41 37 39 38 40 37 40 40 35 29 27 27
35 41 44 47 51 57 62 65 64 62 59 63 72 76 71 74 78 75 80 80 79 77 83 79 73 75 73 70 65 63 59 57 53 50 47 41 39 38 41 40 35 42 42 37 29 26 28
31 36 39 43 47 52 55 56 54 56 57 59 70 69 70 76 81 80 84 82 82 82 87 82 77 77 81 72 65 62 59 57 52 50 46 40 40 43 41 39 37 40 44 38 32 31 30
28 33 36 40 44 47 48 49 51 53 56 66 66 62 70 75 79 85 88 86 83 81 87 83 80 77 77 69 63 63 60 56 53 49 46 43 44 42 39 37 35 42 42 42 35 35 36
25 29 33 37 41 42 43 46 51 56 62 62 59 61 68 74 81 87 89 86 86 83 83 84 80 80 78 73 69 64 60 58 53 49 45 46 43 40 37 35 37 41 47 43 40 36 36
23 28 32 35 39 41 42 45 48 55 54 51 53 59 67 74 79 86 93 90 87 84 82 81 85 82 78 73 68 63 63 60 57 49 47 44 40 41 40 40 38 47 44 46 42 43 37
25 30 33 36 38 40 42 44 46 47 47 49 54 58 69 77 82 88 91 90 88 85 86 85 80 81 76 76 69 64 58 56 51 45 42 41 43 44 47 43 43 45 48 46 46 43 39

GFSGBSN_250_spd_048.txt.gz
Wind_Speed
67 60 61 61 48 56 56 57 54 46 44 48 45 41 35 37 39 31 31 32 39 41 45 47 47 48 46 43 44 45 48 51 54 52 49 53 54 60 64 68 66 56 37 21 8 10 8
70 65 63 63 62 64 54 56 56 51 47 47 46 44 47 49 45 45 40 43 41 40 41 46 46 44 44 44 44 44 46 50 51 48 46 48 52 57 61 66 66 53 31 13 8 7 2
68 69 67 70 70 70 67 61 58 59 58 52 54 48 48 54 55 54 50 48 43 44 40 41 41 42 44 45 43 46 49 49 46 42 43 44 49 54 58 63 64 50 24 6 11 6 3
75 73 70 71 76 74 73 68 62 60 58 58 54 54 55 53 55 57 58 56 44 47 41 38 35 38 40 43 45 46 47 44 39 38 39 42 46 51 55 62 60 46 18 7 11 10 7
78 77 74 70 74 77 80 74 71 70 63 65 62 59 56 60 60 57 57 58 51 47 48 44 45 39 36 39 40 41 42 38 33 35 36 39 43 48 52 57 59 42 25 7 1 4 5
85 83 84 80 81 80 82 84 76 77 79 69 69 64 62 58 59 60 63 65 52 50 45 44 45 46 41 38 38 38 38 31 28 30 34 36 41 45 48 52 57 38 28 11 3 4 4
93 91 89 89 88 89 88 89 90 82 81 78 74 74 71 70 65 63 66 68 60 55 52 48 43 42 47 39 35 37 37 29 27 28 31 34 38 44 45 45 51 44 32 10 8 3 3
94 98 96 95 92 89 86 87 86 85 91 85 85 81 80 76 73 72 67 69 66 58 52 51 45 46 42 42 36 36 34 28 27 26 29 32 37 42 41 42 48 44 30 19 9 9 6
104 102 101 100 103 102 98 92 93 90 93 94 90 89 90 88 83 75 73 71 68 58 51 53 49 48 42 35 39 38 32 29 25 26 29 31 37 39 37 38 44 42 27 24 12 5 9
116 113 112 111 107 108 105 105 102 103 101 104 102 104 97 94 91 83 85 74 73 64 59 53 52 47 52 46 44 40 34 28 29 27 30 31 35 37 36 35 39 42 32 22 15 7 11
103 107 106 105 104 100 100 100 100 102 101 106 108 105 104 101 95 91 83 77 77 70 63 59 55 52 55 53 54 47 41 30 32 28 29 32 34 35 36 33 34 39 39 22 19 15 12
108 110 112 112 110 110 110 107 104 104 99 96 96 103 100 96 92 86 80 75 80 82 65 61 58 61 59 52 49 47 43 34 35 32 30 31 34 34 35 32 31 38 37 24 19 19 18
105 105 106 106 109 112 114 116 114 115 113 110 109 105 101 97 93 91 88 89 87 81 73 70 68 63 63 55 49 47 44 39 37 34 33 32 33 33 34 32 28 33 35 32 20 18 20
97 98 99 100 100 101 105 108 114 115 119 119 119 117 111 106 105 100 95 97 89 79 79 77 73 71 62 58 52 46 42 40 40 39 34 33 33 33 31 30 26 30 36 33 25 21 20
93 95 97 99 100 100 101 103 104 105 107 118 122 120 120 117 115 114 108 108 92 89 85 84 78 71 63 60 55 48 44 40 43 40 36 34 35 34 31 28 27 27 33 32 33 21 21
88 91 93 94 96 97 98 98 100 104 107 108 108 115 121 126 127 126 127 111 104 99 91 87 79 71 64 66 58 50 48 46 47 44 37 36 37 35 32 28 26 26 31 33 32 27 23
83 84 85 87 89 90 92 93 96 98 103 104 107 106 102 116 129 134 121 97 99 91 84 78 75 72 67 70 62 52 55 54 49 42 38 41 39 37 35 30 25 26 30 32 30 30 24
77 81 82 84 84 83 83 85 86 90 96 99 101 97 103 111 118 114 104 101 99 91 84 80 78 75 70 74 65 58 48 54 51 47 43 44 41 39 37 31 28 24 30 31 28 32 26
75 74 73 76 79 81 83 83 85 85 89 92 90 94 101 111 111 100 88 89 93 91 82 83 81 79 74 74 68 63 64 63 53 51 45 45 42 40 39 34 29 25 27 31 28 28 29
70 70 70 70 72 74 78 82 83 84 85 87 84 89 95 98 94 91 86 83 82 87 82 83 83 81 75 76 70 66 68 60 56 52 48 46 43 41 40 35 29 27 28 31 28 29 30
63 66 68 68 68 69 71 75 78 81 80 80 78 77 77 83 87 81 85 79 77 82 82 82 82 78 77 78 73 67 66 59 58 55 52 47 44 43 42 36 31 29 32 31 30 27 27
57 58 59 62 63 64 65 67 72 73 75 70 68 65 72 72 82 78 81 79 78 82 85 79 80 82 82 82 78 73 69 65 62 56 54 46 45 43 39 38 35 31 35 32 32 27 26
50 48 50 53 54 57 60 63 67 68 70 56 55 63 69 66 74 67 74 73 77 82 85 82 85 88 86 83 81 74 70 66 61 58 54 49 46 44 43 42 33 35 36 35 32 29 30
40 41 43 45 49 52 55 59 61 62 56 49 57 66 67 60 62 65 74 76 80 80 86 86 84 86 85 87 81 74 73 66 63 59 55 51 49 48 43 41 32 41 35 38 31 31 31
33 34 37 40 44 47 49 51 52 54 51 52 56 59 61 62 67 68 76 77 85 90 92 85 85 86 89 90 83 77 70 65 64 63 56 52 51 48 44 40 37 40 41 37 33 33 30
26 28 31 36 39 39 40 44 47 49 49 51 56 61 62 64 65 65 75 78 84 88 95 93 89 87 87 86 84 75 68 64 66 61 55 53 52 49 43 38 36 48 41 38 35 38 30
19 23 27 30 32 35 38 42 46 47 49 56 59 61 57 60 59 62 71 80 89 93 95 95 92 88 86 83 83 75 68 67 66 60 55 53 52 46 44 40 38 45 39 43 35 38 36
16 20 23 27 32 35 39 43 46 50 52 55 57 56 56 55 57 64 75 83 93 99 101 94 96 92 83 81 77 72 66 64 63 59 55 55 53 48 47 41 37 47 44 40 40 38 38
13 17 22 26 31 35 39 43 46 48 51 53 51 49 51 56 60 66 75 82 90 97 101 96 85 88 79 76 75 74 65 66 64 60 59 55 50 48 46 43 46 44 44 42 41 39 41

GFSGBSN_250_spd_051.txt.gz
Wind_Speed
71 69 69 69 69 65 62 55 52 51 49 43 45 45 41 42 43 40 44 46 42 36 26 28 28 35 37 41 43 40 40 41 41 44 48 48 49 44 46 49 55 59 56 46 30 12 17
72 69 69 68 67 65 65 66 60 60 56 57 56 50 43 43 45 40 41 39 39 42 40 40 38 36 34 38 41 39 41 41 40 43 46 47 43 41 42 47 54 56 54 43 25 12 15
69 74 72 70 67 68 66 64 63 64 63 58 57 50 50 47 48 45 44 47 46 45 43 38 45 41 38 36 35 38 41 39 40 40 40 41 37 38 41 45 51 56 55 42 24 12 19
71 72 74 71 72 73 71 70 67 65 66 69 70 63 54 57 49 52 48 47 46 42 42 43 44 37 39 42 38 30 34 36 36 34 37 33 33 34 38 44 48 52 49 38 27 9 12
80 76 76 77 73 75 74 71 66 68 68 73 74 71 61 57 57 56 59 54 49 51 49 44 42 41 43 41 38 37 33 33 32 32 33 30 31 32 36 42 45 49 47 32 27 8 2
90 89 82 79 79 77 79 77 77 71 71 71 78 77 71 67 63 65 61 53 49 52 50 48 48 48 44 37 36 33 32 33 31 32 33 30 29 31 34 39 41 43 47 33 29 13 3
92 86 86 87 85 83 84 82 78 77 78 75 76 81 75 76 73 69 70 65 53 48 52 55 53 51 48 40 41 39 34 32 34 32 33 30 27 30 33 36 39 40 43 41 25 18 2
97 98 93 86 89 88 89 88 86 87 84 85 81 78 78 80 78 73 76 74 66 63 54 54 58 57 50 42 42 44 32 32 31 31 31 28 27 31 33 34 36 39 41 43 23 21 10
94 102 103 99 98 96 95 97 92 91 87 91 91 87 86 83 83 79 77 83 78 71 65 58 58 61 54 43 41 39 38 35 34 33 30 30 28 32 33 34 34 36 37 40 27 20 16
97 99 109 109 108 104 101 100 100 100 99 99 95 96 92 88 89 89 85 87 86 82 73 65 59 58 59 47 42 46 45 40 41 37 33 32 30 33 33 34 33 31 33 37 38 16 20
96 104 106 104 109 114 114 110 109 105 102 101 104 103 101 90 88 87 88 92 91 91 82 73 63 57 60 55 49 52 45 40 41 42 34 36 34 33 33 35 33 31 30 34 34 25 17
96 102 104 108 110 111 115 120 117 117 116 114 112 109 108 105 99 96 96 98 96 99 87 78 70 63 61 59 55 58 45 43 41 38 35 36 38 36 32 34 33 31 29 31 32 32 19
98 100 103 107 109 112 114 114 115 116 120 117 119 116 113 110 104 107 103 103 107 97 87 83 71 64 62 63 66 58 51 46 46 41 39 39 39 39 34 32 33 31 27 30 32 31 25
89 92 96 100 103 104 105 108 111 112 113 114 111 121 117 110 107 105 110 115 112 89 92 88 80 73 64 68 71 59 56 50 47 44 42 43 38 40 37 33 33 32 28 29 31 31 30
86 87 89 91 92 94 96 98 101 106 111 114 115 115 112 110 110 107 108 114 99 93 98 93 82 71 71 68 75 65 57 52 51 47 48 45 40 40 36 33 37 34 30 28 29 31 27
84 85 87 89 91 92 95 96 98 100 102 105 106 107 107 112 115 118 119 114 85 81 80 81 77 73 76 75 76 71 62 57 51 50 50 42 40 39 36 35 40 36 33 29 29 32 30
80 80 83 85 87 88 90 92 94 95 98 103 103 101 101 107 117 123 118 107 95 96 95 85 84 82 80 84 78 73 67 63 57 56 54 47 47 42 38 39 41 39 36 33 30 32 28
75 76 77 79 79 81 85 87 90 93 96 98 98 93 101 109 114 113 110 100 98 102 104 100 96 90 87 84 82 74 71 70 64 61 53 56 56 40 39 37 40 43 38 34 31 31 28
73 75 76 78 79 79 80 82 84 87 89 91 89 92 97 105 102 98 98 97 95 104 106 106 100 98 95 91 88 81 78 76 65 64 57 53 53 48 42 42 41 43 38 36 33 29 30
69 72 73 74 74 76 78 80 82 84 85 85 81 86 90 91 88 90 87 89 91 92 99 105 106 107 104 97 92 88 84 76 69 69 64 53 50 51 46 46 40 43 41 40 36 29 31
66 67 68 69 70 72 75 75 80 83 86 87 81 74 78 76 76 75 78 83 85 88 92 98 107 108 105 102 100 95 91 78 76 72 67 61 55 53 52 48 42 42 42 42 39 33 31
60 62 66 68 69 69 71 74 76 81 85 87 77 64 72 67 72 76 77 78 81 84 90 91 93 101 106 108 103 95 83 82 80 73 71 66 56 54 52 50 43 41 43 44 40 35 32
59 62 61 62 63 65 66 68 72 76 79 77 63 58 66 64 64 71 68 68 75 81 81 87 89 96 102 101 103 95 83 83 80 74 70 66 67 60 54 52 45 37 47 45 41 40 33
55 53 53 53 56 56 58 60 64 67 68 66 61 64 61 62 60 61 66 68 71 74 78 81 90 91 96 101 97 92 83 83 79 76 68 65 60 56 58 55 41 46 46 46 44 41 37
49 47 46 48 49 49 52 55 57 59 59 60 63 56 57 57 58 67 64 66 70 71 79 86 88 84 97 95 94 88 88 85 80 78 71 67 65 59 55 53 49 47 48 49 46 41 41
39 37 38 39 40 43 46 46 48 52 52 57 55 55 56 56 56 66 61 65 67 68 77 80 88 94 86 89 91 87 84 81 84 78 74 70 67 65 58 54 47 51 54 50 49 41 46
30 30 30 33 35 37 39 43 44 46 48 49 50 54 56 55 62 63 63 67 71 69 71 78 88 89 86 91 91 84 82 83 83 78 77 71 67 60 55 52 48 53 56 52 46 53 42
21 22 25 27 30 32 35 37 40 42 42 44 50 54 57 58 61 60 64 65 66 67 72 74 87 90 92 92 87 85 79 76 80 77 77 68 64 58 58 56 47 55 58 51 51 48 45
16 18 21 23 26 28 32 35 37 38 44 48 50 55 58 60 60 60 63 65 64 66 74 81 80 91 89 88 85 84 79 74 74 79 76 67 62 60 57 55 55 58 55 54 52 49 45

GFSGBSN_250_spd_057.txt.gz
Wind_Speed
97 92 96 95 82 77 72 66 65 49 56 66 64 65 65 64 60 54 50 45 43 37 35 38 32 32 41 29 27 26 28 32 32 32 37 38 37 34 30 33 31 33 34 37 43 39 14
95 93 90 94 87 79 75 70 63 56 53 59 63 60 65 65 62 59 52 48 44 45 35 39 32 35 39 39 28 36 40 36 37 37 39 38 37 34 28 30 29 29 32 34 41 40 13
99 100 93 90 91 86 85 80 68 59 60 59 60 61 63 68 64 62 55 55 50 46 43 39 37 36 40 42 35 39 38 36 34 34 37 34 36 33 27 27 27 27 31 32 35 42 18
107 103 97 94 91 85 81 78 64 66 59 57 59 61 62 63 66 63 62 58 56 53 51 50 39 37 46 47 34 34 35 36 35 37 37 35 34 31 33 28 21 26 30 33 32 36 31
100 94 90 86 89 85 74 72 67 69 70 62 59 61 62 61 66 67 64 65 60 54 50 47 41 37 50 46 38 36 34 33 32 36 34 35 37 36 37 25 19 24 30 35 33 30 38
86 80 76 81 80 76 82 71 65 72 74 71 66 61 62 66 64 65 66 67 65 60 55 53 51 45 38 49 47 42 43 37 35 32 27 30 35 33 34 26 23 21 27 28 32 31 33
78 74 74 72 65 71 66 64 69 71 75 77 72 66 64 66 66 67 65 67 65 62 56 58 50 50 53 44 40 46 39 35 37 30 28 29 35 30 26 26 29 23 29 29 29 29 32
73 71 72 68 69 72 70 72 72 74 79 79 81 77 74 70 68 70 70 71 71 61 58 58 56 55 60 52 42 44 36 31 36 38 33 39 44 34 27 33 32 28 26 33 30 27 30
70 69 70 68 74 79 77 73 79 82 83 83 82 83 82 77 79 72 73 75 73 70 65 59 60 55 61 54 52 52 47 46 37 39 44 43 46 36 33 31 34 27 27 33 32 28 29
70 70 69 71 71 75 77 79 78 84 89 87 86 87 86 84 82 81 74 75 73 68 66 62 66 52 62 65 54 60 55 51 42 40 42 40 46 43 36 35 35 38 26 34 34 27 27
72 76 75 73 77 78 80 81 84 85 85 87 90 89 88 88 89 87 84 84 80 76 68 70 68 64 68 62 60 64 58 51 49 53 45 41 41 44 39 40 39 36 35 31 36 26 27
76 77 78 77 80 79 85 87 88 89 89 90 89 91 91 90 95 93 90 87 87 85 62 67 62 61 65 64 64 67 63 55 55 54 54 45 42 44 43 45 41 38 40 41 36 26 28
80 81 82 83 84 84 85 87 92 94 94 94 95 95 96 93 101 98 99 95 95 88 75 73 73 72 72 65 66 67 69 65 60 60 57 58 53 44 46 47 47 49 40 39 44 30 29
84 84 85 85 88 89 89 90 91 92 96 99 104 100 100 99 107 105 102 106 101 83 80 85 81 83 80 81 83 80 74 71 65 64 65 61 53 47 49 49 53 51 40 42 41 29 27
83 84 84 85 86 88 89 89 90 91 92 95 99 103 106 109 109 108 110 112 95 95 91 94 96 88 78 83 90 83 79 76 76 72 69 70 60 52 44 51 52 46 38 44 31 34 27
80 80 81 81 80 81 82 84 87 91 92 94 94 94 99 107 113 115 112 106 94 91 101 101 106 98 97 91 86 88 88 79 76 75 77 72 67 55 49 47 51 46 37 39 46 41 30
75 75 74 75 76 77 78 80 82 84 86 87 89 91 97 102 103 103 98 98 104 103 104 107 112 108 100 98 100 97 92 88 81 77 78 73 69 60 56 46 52 52 43 40 48 36 29
71 71 73 74 75 76 77 78 80 81 83 86 85 85 89 94 94 93 93 99 99 100 108 107 111 111 106 105 105 99 93 86 86 84 80 79 80 72 58 51 51 56 54 50 43 38 34
69 71 72 73 74 76 76 77 78 80 82 84 84 85 87 89 82 80 86 89 94 95 96 100 109 110 109 109 110 107 100 93 96 95 88 87 84 75 66 55 53 53 46 40 46 48 37
64 64 66 67 68 70 71 72 74 75 78 81 83 82 81 80 81 77 79 82 85 85 87 91 97 105 106 106 107 102 100 104 104 103 96 96 87 74 65 59 58 58 57 52 47 46 40
60 61 63 63 65 67 68 69 71 73 75 81 80 71 73 71 71 74 77 76 81 83 86 86 87 94 100 105 106 100 101 99 96 96 94 93 90 82 67 64 62 57 51 46 48 48 43
53 54 55 56 58 59 60 62 65 67 69 76 73 65 66 66 66 69 70 66 68 72 77 79 79 90 98 91 95 99 104 101 95 96 91 92 84 78 74 67 64 63 53 49 53 48 42
48 49 51 52 53 55 57 60 62 66 70 74 68 62 61 59 60 64 54 54 61 70 71 73 77 86 83 82 95 94 96 99 100 104 94 89 82 80 74 74 73 61 53 52 51 44 44
48 49 51 54 56 57 59 60 63 66 68 71 65 56 56 49 55 48 54 55 60 67 67 71 72 68 66 92 89 87 88 89 95 99 97 90 88 81 76 77 81 64 61 57 53 46 48
49 51 53 54 55 56 58 59 62 65 67 70 69 58 56 52 54 55 55 56 63 70 69 68 63 66 80 87 83 81 85 85 85 92 92 106 89 81 81 81 72 67 63 64 59 49 49
49 50 51 52 55 57 60 62 65 67 70 71 68 62 62 61 50 53 61 65 66 68 68 64 62 75 79 80 77 76 75 80 81 87 95 98 102 89 85 84 75 69 64 63 63 53 53
48 49 51 54 58 61 63 64 65 65 69 68 68 67 70 67 60 56 57 64 70 68 64 66 71 76 78 75 71 71 69 77 82 86 88 96 95 94 92 87 81 75 74 69 66 51 58
48 51 52 53 55 57 57 59 61 63 65 65 65 68 66 63 55 54 55 59 63 64 63 66 79 77 73 63 59 60 66 72 74 80 82 92 100 101 92 92 82 82 81 80 64 62 64
42 43 44 45 46 47 48 49 51 54 57 58 60 62 62 60 57 53 53 58 57 58 64 67 68 66 56 53 52 58 62 74 71 75 81 87 91 98 83 82 88 86 82 81 73 68 69

GFSGBSN_250_spd_060.txt.gz
Wind_Speed
85 81 85 83 84 84 78 86 85 84 79 77 73 73 69 59 54 58 56 58 58 54 48 42 34 36 33 32 30 29 27 27 28 26 30 34 34 41 37 32 28 29 26 23 26 29 35
90 86 87 88 90 93 91 84 84 83 82 75 73 73 73 59 56 56 55 55 58 54 51 44 38 36 36 34 29 34 34 28 28 30 33 32 34 36 32 27 32 30 24 21 25 25 31
95 93 91 91 93 96 91 91 89 83 84 84 77 70 74 64 55 54 57 51 59 55 51 45 40 41 35 32 33 41 38 38 33 36 38 29 32 33 33 30 30 29 21 23 26 25 27
91 100 98 96 95 94 94 96 91 92 89 83 78 73 77 71 62 57 58 56 57 57 54 45 45 40 50 40 37 41 37 34 33 29 25 23 25 26 26 28 33 31 22 21 27 26 25
100 99 105 104 103 102 103 99 96 96 83 75 72 69 61 69 60 56 56 56 56 56 57 48 46 45 52 43 36 38 43 44 29 31 27 27 23 18 25 29 32 31 26 26 29 27 27
103 106 106 98 93 93 92 89 83 75 71 68 68 65 61 60 64 58 58 57 59 52 55 53 50 48 52 46 41 34 37 41 37 37 35 31 24 20 23 28 31 26 30 33 29 30 32
99 94 90 84 84 81 74 76 71 69 67 68 68 70 68 64 70 61 59 59 60 57 50 57 53 52 54 52 49 45 42 32 31 43 43 36 33 22 25 32 27 23 28 31 28 27 34
88 83 78 74 72 68 68 69 67 67 69 68 65 71 72 68 73 68 67 62 57 55 51 52 55 57 57 57 51 53 46 45 38 41 30 30 38 30 29 32 31 26 25 29 29 28 29
79 77 73 68 67 67 67 69 66 66 67 64 67 69 72 73 76 73 74 68 64 56 52 55 56 50 57 53 54 57 53 51 44 37 37 32 39 30 35 37 34 27 28 29 26 32 35
78 76 71 68 66 65 64 64 68 71 71 72 67 65 74 74 76 76 74 76 67 61 58 56 59 56 59 54 47 64 58 56 48 44 47 35 43 38 34 40 34 32 29 30 30 32 33
78 75 71 70 67 67 66 70 71 74 76 76 73 71 74 74 77 78 77 76 78 70 64 63 60 57 61 63 59 64 62 57 50 52 47 40 44 35 38 42 39 36 32 29 32 32 37
80 77 75 72 71 70 73 74 72 70 74 77 81 79 74 79 81 83 80 81 80 82 63 65 64 63 64 64 63 67 64 59 57 55 50 47 48 41 46 45 39 41 38 35 35 34 33
81 81 79 78 76 75 75 79 80 78 75 79 81 81 78 84 84 85 83 85 83 78 73 72 68 67 69 67 67 69 69 67 64 64 58 54 50 51 48 45 45 44 41 39 38 37 34
84 84 82 82 81 81 81 80 82 84 83 83 85 82 82 86 85 86 85 86 84 76 73 82 81 75 74 76 75 74 71 66 65 64 64 58 56 55 56 52 52 47 43 38 40 38 37
85 84 84 84 83 84 85 85 85 85 85 86 85 86 85 93 90 90 89 82 76 76 78 84 86 86 77 80 83 76 77 69 62 60 59 61 57 63 59 57 51 49 50 44 40 40 41
82 82 81 82 82 82 83 83 84 84 84 85 85 85 86 89 94 95 91 82 79 83 87 91 94 87 86 84 82 81 81 79 76 73 71 67 63 65 65 64 60 57 55 49 38 41 36
80 78 77 76 76 77 77 77 77 78 81 85 86 85 91 89 86 84 82 89 90 91 94 95 98 98 94 92 88 83 80 83 88 87 82 83 80 77 70 62 61 61 60 45 43 39 45
71 73 74 75 75 75 76 75 75 75 76 80 81 77 83 85 84 78 73 86 90 100 102 101 100 97 96 99 97 95 93 91 90 84 81 80 78 74 72 69 65 62 58 57 49 46 45
67 69 71 72 73 74 73 73 73 73 77 79 81 76 78 81 71 70 78 86 88 86 89 93 103 106 102 101 100 94 97 98 96 94 92 96 88 82 79 75 69 63 63 60 53 49 45
65 67 66 67 68 67 68 69 70 73 76 80 81 75 72 69 69 70 74 77 77 79 82 88 93 98 106 110 111 103 96 95 98 97 93 96 94 87 80 77 74 71 68 66 60 55 52
58 59 62 63 64 66 67 69 70 71 74 80 77 66 64 65 70 72 74 76 76 77 76 80 83 93 97 98 102 96 104 103 100 98 97 94 87 86 83 81 81 77 73 71 67 54 50
54 55 56 58 59 61 62 64 67 69 73 78 69 61 61 66 69 69 69 68 74 73 72 72 76 82 83 84 89 95 93 95 104 103 98 98 94 93 88 84 81 80 75 69 69 65 54
49 51 53 54 56 57 59 60 63 66 71 71 65 61 60 63 62 63 57 63 67 69 69 70 74 73 77 84 86 90 89 93 97 103 105 97 98 95 85 83 85 86 72 70 68 59 58
42 44 46 48 50 51 53 55 57 60 63 64 61 63 60 59 61 55 63 65 66 68 68 68 68 71 82 86 85 84 83 81 85 94 95 97 103 94 87 87 91 71 73 68 63 62 58
41 42 44 46 48 50 51 53 55 57 59 60 59 59 55 53 54 58 57 61 63 61 60 62 62 69 75 79 78 78 78 78 78 81 78 90 99 99 95 91 82 76 73 71 66 64 61
42 44 45 47 48 49 51 52 54 55 58 59 58 57 53 50 47 55 58 58 58 58 61 54 65 70 73 76 76 71 69 69 74 73 75 82 91 96 93 87 87 75 77 76 69 69 66
38 40 41 43 45 47 49 51 53 55 58 57 53 53 51 48 47 51 49 51 59 59 55 61 65 69 70 69 71 64 61 65 65 66 70 79 82 84 84 77 71 77 80 80 78 63 77
37 38 40 42 44 46 49 51 53 55 57 53 53 56 52 48 48 47 49 51 56 57 55 61 71 63 69 64 65 57 51 58 61 62 70 74 77 77 77 85 79 77 81 84 78 78 77
37 39 41 43 45 47 48 50 52 53 55 53 53 53 56 49 46 45 46 51 55 58 60 63 63 68 67 61 56 55 49 56 58 61 69 71 68 73 79 83 84 81 78 81 79 79 78

GFSGBSN_250_spd_063.txt.gz
Wind_Speed
73 76 81 80 82 85 90 90 94 89 85 83 85 80 76 77 77 73 72 64 60 57 52 61 51 51 44 44 40 34 32 31 29 29 26 29 27 27 32 32 35 32 31 31 26 27 28
80 83 84 85 87 93 91 99 98 101 97 87 89 86 85 82 78 72 69 64 63 55 51 58 47 49 45 46 35 33 32 28 27 31 29 30 27 32 35 20 25 26 26 28 28 30 29
87 89 90 95 95 96 95 89 99 106 106 102 100 92 91 84 76 70 69 67 67 60 49 52 47 46 46 48 37 36 34 28 34 35 34 33 28 29 20 15 17 25 26 25 32 33 29
102 100 100 102 100 103 102 93 93 98 96 103 101 97 88 83 88 76 71 67 65 61 48 51 49 46 49 46 42 39 32 31 39 39 38 37 25 23 20 13 15 23 24 21 33 37 28
100 107 106 107 112 106 103 102 101 95 103 98 95 95 87 85 85 81 72 63 68 63 52 49 49 47 56 48 46 45 47 39 36 41 39 32 29 24 22 19 13 22 21 25 30 33 31
111 109 108 111 108 108 108 101 96 93 91 93 94 89 70 77 82 70 66 66 64 59 51 52 50 52 56 54 49 49 50 43 33 38 41 38 32 30 30 24 14 20 21 24 22 32 33
113 115 113 115 105 101 100 92 83 84 83 80 74 72 64 66 67 61 74 68 63 56 50 51 54 52 56 57 53 51 48 45 37 38 48 36 35 40 30 25 23 22 25 18 20 24 28
119 113 109 107 103 99 89 82 76 74 70 67 64 59 57 59 64 61 66 65 64 56 53 51 51 52 55 60 54 56 51 50 45 43 37 29 43 38 29 28 30 27 28 22 19 26 26
112 109 106 101 93 85 81 77 72 68 64 62 60 54 57 58 61 64 64 66 65 59 60 58 54 51 54 51 57 59 55 53 49 46 46 42 44 35 30 31 30 31 28 28 28 25 23
102 101 96 90 84 80 78 75 69 66 64 61 57 59 56 59 63 65 64 67 66 65 62 65 60 57 55 50 44 64 55 58 56 50 50 43 45 42 31 37 32 33 26 31 32 28 25
94 92 87 83 80 78 75 73 69 66 63 61 59 58 60 59 61 64 62 71 73 68 65 66 62 59 58 55 55 59 57 53 50 57 53 45 52 46 41 45 35 39 29 29 33 30 28
88 86 84 81 79 77 74 73 70 68 65 63 60 57 59 63 63 62 63 70 74 72 62 66 65 64 63 62 60 62 60 55 55 53 49 48 56 47 47 46 39 39 32 32 34 30 34
85 82 80 79 79 78 77 76 75 72 70 67 65 64 66 64 68 68 67 66 62 66 67 71 67 62 65 65 65 64 63 59 60 58 55 57 57 53 52 50 46 44 40 37 35 36 33
83 82 81 79 80 78 78 76 77 77 73 72 72 70 71 71 67 70 72 69 62 64 71 72 76 73 71 72 68 68 65 63 63 63 60 58 60 58 55 55 54 48 47 43 40 36 32
84 83 82 81 82 81 79 78 76 78 76 77 76 74 75 75 72 71 76 72 67 63 74 82 81 82 77 75 72 67 67 69 67 66 64 64 62 66 63 63 59 55 49 46 42 39 39
80 79 79 78 79 79 80 80 80 78 78 78 78 78 80 79 77 77 72 70 73 74 78 80 85 82 82 80 77 74 73 70 70 69 68 67 64 66 67 61 59 59 55 47 46 42 42
80 80 80 80 80 79 78 77 79 79 78 80 78 77 81 81 77 76 72 70 77 80 81 85 86 85 87 84 82 80 78 78 76 75 74 71 68 68 70 62 58 52 51 51 51 47 46
76 76 75 75 76 77 77 77 77 75 77 78 77 73 74 80 76 70 71 72 77 85 86 87 89 87 84 84 86 83 80 84 84 82 80 77 74 69 66 62 57 52 48 49 52 51 47
68 68 67 68 71 72 73 73 75 75 74 75 74 69 73 79 67 66 70 76 78 79 89 91 94 90 85 85 83 81 83 87 87 88 84 83 82 78 75 75 70 70 70 67 56 53 48
61 62 61 61 62 65 68 70 73 74 75 77 75 70 66 65 60 68 69 73 75 80 83 85 91 99 94 91 91 89 87 89 91 89 89 87 85 83 78 78 78 76 73 69 66 61 56
53 55 55 55 55 56 60 66 69 71 75 78 74 66 62 61 64 71 69 72 74 75 79 84 88 92 93 97 101 98 95 96 96 94 95 91 90 89 85 85 87 83 80 78 73 68 63
48 48 48 49 50 51 54 58 63 66 71 71 64 61 58 61 67 68 67 65 71 71 74 79 81 90 89 88 94 96 99 104 101 97 98 94 95 95 94 94 93 91 84 79 76 71 62
43 42 43 45 46 48 50 52 56 62 65 62 59 55 55 58 66 64 62 70 70 72 72 76 78 81 82 88 89 92 92 94 94 97 101 101 97 95 93 96 92 87 77 82 78 75 71
41 40 39 40 43 45 47 50 53 56 56 55 57 57 54 58 63 61 66 66 66 69 72 75 75 78 84 81 79 81 81 81 85 91 90 90 98 100 101 103 102 89 87 86 84 82 77
38 38 38 39 40 43 47 49 51 54 54 52 54 50 50 54 59 63 61 60 62 63 66 70 73 78 79 77 76 75 76 76 77 80 84 86 90 95 94 94 91 87 87 87 84 78 77
40 39 39 40 40 42 43 46 49 51 53 53 52 51 53 58 59 63 62 61 64 66 66 68 71 72 72 68 68 68 71 74 76 77 78 78 80 85 86 84 84 78 86 90 90 80 80
38 39 39 40 41 42 43 45 47 48 50 50 46 48 51 52 56 59 59 61 63 64 66 67 70 66 68 63 63 64 63 66 68 69 73 77 76 79 80 81 74 77 87 90 89 77 85
34 35 36 37 38 40 41 43 45 47 49 50 47 48 46 47 51 53 56 57 59 58 60 62 64 58 57 57 58 61 62 63 64 65 69 72 75 76 78 77 71 73 80 81 85 87 89
36 37 38 39 40 41 41 42 43 45 47 46 44 44 45 48 50 53 54 55 57 60 63 63 60 61 58 54 54 58 60 61 59 60 65 69 71 74 77 74 75 76 75 74 76 78 81

GFSGBSN_250_spd_066.txt.gz
Wind_Speed
81 80 84 85 85 88 85 85 85 89 85 83 84 87 88 89 90 88 85 91 81 78 80 76 69 60 46 52 59 47 48 43 39 34 29 27 26 26 24 27 26 25 17 21 24 22 30
88 87 90 90 91 91 91 90 91 90 91 96 91 97 95 88 84 96 97 91 89 85 85 79 76 62 56 49 55 44 50 43 38 32 27 25 28 30 28 27 22 17 13 18 23 22 26
91 94 94 94 95 98 98 100 98 100 99 102 101 99 102 106 91 91 95 97 97 91 84 81 70 61 44 54 51 50 49 42 37 33 27 24 31 34 32 26 17 14 12 16 18 21 27
98 96 97 96 99 100 104 102 106 104 105 107 104 107 108 105 97 101 99 92 90 88 81 77 69 59 44 55 51 51 47 45 41 34 26 30 36 38 38 27 16 16 11 12 16 17 20
96 98 95 100 100 104 107 109 107 106 109 112 111 109 109 112 107 101 99 92 90 87 75 67 65 55 50 50 53 51 49 48 42 36 29 31 41 41 34 29 18 18 12 14 13 13 15
94 95 97 97 104 105 109 112 111 107 104 103 105 101 105 97 98 102 106 77 75 78 75 67 56 50 52 51 57 54 51 51 45 42 36 31 42 43 39 33 24 22 18 15 16 12 15
93 95 103 106 108 109 110 115 109 108 103 105 101 102 97 96 83 81 76 65 63 61 63 55 51 54 55 53 56 56 53 53 49 48 47 39 37 49 45 36 31 26 25 19 16 17 16
102 108 107 110 107 111 115 113 107 106 103 98 93 87 83 74 67 63 58 56 46 56 59 50 51 57 59 61 55 58 57 54 54 52 52 37 39 52 41 35 36 32 29 28 21 21 21
108 108 110 112 112 109 108 103 102 98 94 88 79 74 65 62 57 52 50 49 58 56 54 53 57 57 64 57 59 60 59 56 57 54 50 44 46 47 44 32 39 33 35 27 22 18 22
111 112 112 110 107 105 103 98 96 91 84 77 69 62 60 58 53 50 47 48 54 54 52 61 65 61 62 59 57 60 59 58 58 57 56 48 50 48 43 39 41 37 33 33 27 24 24
115 111 106 102 98 91 93 87 82 78 74 68 61 57 56 53 52 49 48 48 51 52 53 65 66 62 64 60 59 58 59 58 56 59 61 51 57 52 46 47 38 42 33 34 28 24 26
103 98 95 93 89 83 83 79 76 74 71 65 61 58 56 54 52 49 54 51 50 52 53 61 65 65 67 62 63 59 54 56 56 58 57 54 59 55 49 52 41 45 39 38 36 27 24
93 90 87 84 82 79 77 74 72 72 70 66 62 61 57 57 56 53 57 54 51 50 54 60 65 68 69 70 69 66 60 56 58 57 54 57 57 57 54 53 48 48 47 42 36 31 30
84 84 81 78 78 77 75 74 73 72 70 68 66 63 61 62 59 56 55 54 49 49 55 61 63 72 70 70 69 71 67 61 57 57 60 57 57 55 54 53 52 49 47 42 42 37 36
81 82 81 79 78 78 78 77 76 74 73 72 69 66 64 68 63 61 57 52 52 56 58 58 61 70 72 71 67 75 72 67 64 62 61 61 60 59 56 56 54 50 48 49 48 39 36
83 82 82 81 80 78 76 75 74 74 75 76 73 70 67 71 66 67 61 57 57 62 64 65 69 71 67 67 68 62 78 78 71 68 65 62 61 62 63 62 62 57 55 53 48 40 39
82 82 79 77 75 75 74 75 74 74 74 76 73 71 69 72 68 65 59 62 66 66 64 70 71 71 70 67 71 77 66 76 70 71 71 71 66 65 66 65 62 59 58 56 52 43 40
78 78 76 74 75 72 72 73 73 74 77 75 74 68 68 76 69 60 62 63 69 74 71 69 72 71 73 77 75 78 75 78 79 76 78 74 71 65 65 66 66 63 59 57 50 44 41
72 71 70 72 70 69 68 69 70 71 74 76 74 70 69 73 61 59 62 69 75 77 76 76 75 72 74 79 82 85 85 84 81 81 72 75 76 74 73 70 68 68 65 61 54 48 40
66 67 66 65 63 61 61 61 62 65 69 71 69 68 66 64 54 61 65 67 71 78 81 79 81 80 78 78 81 81 85 86 83 83 82 80 75 72 72 74 73 69 67 63 61 55 50
62 59 57 55 55 54 53 54 55 57 61 64 60 58 58 55 57 62 66 66 70 72 77 80 81 82 84 81 81 83 85 82 85 85 85 84 80 80 81 79 78 75 71 69 65 59 52
54 50 49 50 49 48 49 49 51 52 54 51 49 53 54 55 63 64 61 60 68 71 73 78 80 85 82 80 85 85 88 85 84 83 84 85 85 85 81 82 81 81 82 76 74 75 71
46 46 46 45 44 44 44 44 45 47 45 39 42 47 50 56 62 63 59 65 67 71 71 74 77 82 80 82 78 82 82 86 84 88 86 84 85 86 84 85 85 83 87 86 81 79 79
44 43 42 41 41 41 40 40 40 40 38 37 40 47 48 54 57 60 64 66 66 68 70 75 74 75 77 73 76 80 80 81 82 84 89 89 90 90 86 90 90 82 91 91 88 84 84
42 41 40 39 39 39 38 37 36 36 34 37 40 38 43 48 54 58 58 64 66 69 70 72 72 76 72 70 71 73 74 75 78 80 82 83 86 89 91 97 88 89 92 92 94 87 89
39 39 38 38 38 38 37 35 34 33 34 36 35 37 40 48 49 56 60 62 66 68 67 70 72 69 69 67 67 68 69 71 73 73 75 76 81 85 86 88 89 95 100 99 98 88 92
38 37 37 37 37 37 37 37 35 34 34 35 35 36 40 46 50 53 58 60 61 62 64 68 70 67 63 63 65 66 68 67 69 71 73 73 75 78 79 84 84 86 94 102 101 99 98
34 34 34 34 34 35 36 36 35 36 36 35 37 37 42 45 48 50 54 57 59 62 65 69 64 61 61 60 63 66 67 69 67 68 72 73 74 76 77 77 75 80 84 87 91 88 84
38 37 37 36 35 34 34 35 36 35 35 35 36 39 42 44 45 48 52 55 57 61 62 60 61 59 56 55 55 61 61 62 62 62 66 67 71 73 75 74 75 76 78 78 79 81 82

GFSGBSN_250_spd_072.txt.gz
Wind_Speed
78 78 80 77 74 73 76 77 79 80 85 84 86 86 84 85 86 86 86 84 85 83 84 85 84 85 84 83 84 86 85 84 73 64 70 69 66 60 51 37 34 32 25 26 20 21 20
80 84 84 85 84 81 78 81 84 84 85 88 90 90 91 88 90 88 90 93 90 91 92 93 93 92 93 88 90 91 84 79 79 77 75 70 72 63 48 39 34 35 30 27 24 23 20
80 88 89 92 93 93 87 85 86 87 89 92 94 96 94 94 96 94 96 94 97 98 96 96 96 98 98 97 95 88 85 84 80 84 76 76 68 62 44 41 37 38 33 31 27 25 23
83 89 91 97 98 98 98 102 97 93 96 96 96 99 101 100 102 103 100 100 100 101 102 101 100 98 96 100 95 93 91 87 91 87 85 80 77 66 45 42 38 38 38 34 30 28 23
87 85 91 95 101 102 101 98 100 103 101 101 101 100 100 95 104 107 97 104 104 103 106 108 108 108 102 101 100 97 91 90 82 87 83 81 72 57 46 45 40 42 45 38 32 30 25
99 92 94 99 98 103 106 107 102 105 105 106 101 102 107 100 105 101 96 101 107 107 108 114 115 115 113 109 104 100 97 86 90 87 82 79 63 50 48 48 46 47 36 37 38 30 27
99 100 96 97 103 103 103 106 100 106 100 101 104 107 98 105 108 96 96 109 106 103 105 108 111 115 113 100 98 98 94 80 77 78 73 64 49 43 54 52 44 41 41 43 38 31 29
96 96 102 99 101 99 99 100 103 95 99 90 91 91 89 87 97 96 102 109 111 108 107 111 103 86 77 73 77 79 81 78 70 64 61 54 38 51 53 53 44 43 49 47 35 33 32
86 88 91 89 92 95 96 98 91 94 89 92 94 90 88 91 97 95 96 100 110 97 83 91 94 78 74 73 66 73 68 65 66 60 57 47 46 55 54 53 47 47 49 51 37 32 31
94 94 93 93 90 90 92 92 88 81 92 86 86 94 88 88 90 89 89 82 76 77 78 66 66 69 60 56 57 58 58 64 65 65 59 48 51 55 52 50 51 49 49 53 40 33 35
91 92 95 95 94 94 89 91 86 89 89 91 91 94 90 88 86 79 75 73 66 61 57 55 55 52 49 51 50 49 56 62 64 67 59 50 54 58 53 53 58 56 51 44 40 33 35
82 84 87 89 89 90 89 91 91 88 94 93 92 92 85 82 81 71 67 63 56 52 46 47 49 50 47 48 51 56 59 65 70 71 59 54 56 57 52 54 55 59 53 45 40 40 35
75 77 77 81 84 88 90 89 89 87 88 90 86 80 75 70 69 62 59 54 49 46 45 45 48 50 48 46 49 56 62 51 61 60 59 58 55 54 51 53 50 55 58 55 48 45 43
73 71 72 73 74 76 81 82 82 81 79 76 74 69 64 65 60 56 54 49 44 44 48 48 50 53 53 49 54 62 59 58 49 52 57 58 59 54 53 52 54 56 62 56 52 47 47
72 70 70 69 68 68 68 68 69 70 70 69 66 62 57 60 56 54 51 44 42 44 50 52 53 57 61 63 64 65 67 64 62 53 54 55 60 59 55 57 50 49 48 58 55 54 49
72 71 70 68 66 66 66 67 66 65 66 64 61 57 57 58 57 53 50 44 45 48 53 57 57 61 67 70 66 64 62 67 64 65 61 57 62 63 62 59 57 49 52 53 53 51 51
67 68 67 69 67 67 67 66 66 67 65 61 59 56 60 62 61 56 51 52 52 54 56 60 63 64 68 73 72 65 58 62 69 65 61 63 63 64 63 58 61 60 54 58 53 52 52
63 64 65 66 66 66 66 67 68 68 66 63 61 58 65 64 60 55 55 58 58 65 60 65 66 66 71 72 68 63 63 59 70 66 63 60 62 63 62 62 62 63 58 59 61 57 54
59 60 61 63 64 63 63 63 64 66 63 62 58 57 62 64 58 60 60 58 62 69 66 66 69 70 72 73 66 66 63 66 69 71 67 68 68 66 63 64 61 64 63 62 57 58 57
54 56 57 57 58 58 60 62 63 65 61 56 53 57 63 62 63 63 61 61 62 71 71 67 71 73 71 75 70 65 64 63 65 72 72 71 70 72 67 64 64 60 62 62 61 59 58
50 51 54 55 56 57 59 61 60 60 53 49 53 57 63 60 64 61 58 61 67 72 70 70 72 73 76 74 74 69 68 68 68 67 71 71 75 78 78 73 70 64 61 63 63 63 62
46 47 49 50 52 53 54 55 55 52 44 48 51 57 56 56 57 56 57 60 66 75 73 72 75 77 75 72 72 75 75 71 75 72 65 68 71 76 83 84 81 78 73 68 63 58 62
40 42 44 46 47 48 49 49 48 45 45 48 51 51 46 49 48 49 55 61 66 71 75 71 74 75 73 76 70 75 76 78 74 73 75 71 75 78 82 81 83 80 78 78 79 75 71
37 38 40 41 43 44 44 44 44 43 43 43 45 41 41 48 44 49 50 57 65 68 73 71 70 74 73 71 73 74 77 79 78 78 77 78 76 78 82 81 79 74 73 76 72 78 86
34 35 36 38 38 39 40 39 38 36 37 40 37 40 41 45 45 45 49 54 62 67 67 68 69 70 72 70 70 70 74 78 81 82 80 81 79 77 79 84 80 77 83 82 78 80 80
32 33 33 34 34 34 33 33 33 33 33 35 35 36 37 39 45 48 47 53 58 62 64 65 66 65 68 67 67 68 71 72 80 85 82 83 83 86 84 83 84 88 90 92 91 92 87
29 30 30 30 30 29 29 29 29 29 29 30 31 32 35 39 41 43 47 52 54 58 59 62 63 66 62 63 65 67 70 72 74 76 76 78 76 77 83 85 87 89 90 91 91 92 94
27 28 28 28 28 28 28 27 28 28 28 28 30 31 35 37 36 41 43 46 49 54 56 58 61 62 59 57 61 67 67 70 73 76 77 76 75 75 78 80 83 86 90 96 97 97 97
27 28 28 28 29 29 28 26 27 27 28 29 29 28 29 31 36 38 39 43 46 51 53 57 59 59 56 57 59 62 67 68 69 69 69 69 72 75 74 77 79 82 85 87 89 92 93

GFSGBSN_250_spd_075.txt.gz
Wind_Speed
97 93 88 90 91 82 84 85 83 82 80 77 78 79 78 77 80 82 84 83 78 80 80 81 84 85 84 84 84 78 80 80 80 80 78 74 75 76 74 66 64 60 57 42 38 33 36
98 97 91 90 95 89 81 85 85 86 88 85 85 80 83 84 83 87 87 90 91 87 85 84 84 85 87 86 87 84 85 86 86 85 82 80 81 78 72 65 65 66 61 50 38 36 39
101 97 97 92 96 97 84 87 87 88 87 92 91 89 85 87 85 87 88 91 92 91 92 94 91 90 90 95 95 96 95 94 93 93 93 90 79 72 71 72 70 69 60 50 40 39 42
105 100 96 98 91 93 98 89 87 88 86 88 93 96 95 93 91 92 91 90 93 95 97 98 96 96 95 98 97 96 97 96 94 92 88 84 77 70 72 68 73 67 56 46 44 42 45
97 99 97 90 92 93 99 94 91 91 91 89 88 88 95 97 101 100 96 96 97 98 99 99 101 101 100 100 106 100 98 96 99 95 94 94 86 80 75 74 74 69 54 48 46 42 45
104 101 104 98 97 95 93 99 96 94 92 93 93 94 95 97 101 101 101 103 102 99 103 106 104 100 102 104 107 104 105 105 104 100 101 91 91 79 72 68 59 58 59 53 47 44 47
97 95 94 97 96 100 100 98 98 97 97 96 96 98 93 102 106 101 103 105 105 105 107 110 106 99 105 108 104 103 106 101 88 91 79 72 71 63 62 62 58 62 53 49 47 48 50
89 90 90 91 93 96 99 98 99 99 99 101 101 98 97 99 99 96 101 104 106 98 98 106 110 107 106 103 101 99 93 98 97 75 63 60 50 59 59 58 57 52 47 52 48 48 50
88 90 89 90 86 90 94 98 97 102 102 103 99 99 96 103 101 104 105 101 103 102 102 102 99 102 99 93 84 92 84 81 66 58 52 53 51 56 58 57 54 49 49 57 49 51 49
87 87 87 89 90 88 89 92 94 97 98 98 98 95 93 94 95 96 97 95 98 98 98 99 92 93 92 83 77 72 65 66 61 55 56 51 51 53 57 57 55 49 55 60 49 51 50
84 83 82 82 84 88 88 89 90 92 92 94 94 89 90 88 86 95 93 94 94 93 97 86 80 82 74 72 76 69 57 57 56 57 54 48 49 59 61 58 58 53 60 60 52 51 53
81 80 79 80 80 82 85 89 90 93 91 91 90 86 89 86 89 92 90 89 87 87 85 74 76 73 69 62 61 57 54 51 51 49 47 48 54 60 58 60 58 56 59 59 55 49 49
79 80 80 79 79 78 78 80 84 88 88 91 90 88 88 87 91 90 86 87 87 83 75 71 68 62 62 58 55 50 47 44 44 43 46 54 65 55 59 62 59 56 60 55 57 50 49
73 75 77 78 78 77 75 73 74 78 81 83 85 86 86 85 85 86 85 82 77 72 68 59 60 58 57 53 51 48 44 44 43 42 44 48 54 62 54 61 59 55 57 50 55 57 53
70 71 72 74 74 76 75 73 71 72 74 74 77 80 82 87 86 84 81 73 65 61 56 56 57 55 54 53 51 46 46 48 46 45 49 55 58 59 61 63 62 54 52 51 53 58 57
68 68 68 69 71 72 72 73 72 69 69 68 69 69 74 79 78 74 67 58 60 58 55 57 57 54 56 55 54 50 50 52 56 51 48 54 66 69 61 65 60 57 57 55 51 52 61
64 66 66 67 67 68 70 72 71 71 67 65 66 63 63 65 65 59 52 55 60 57 56 58 57 55 56 58 56 55 55 52 57 62 55 52 58 59 63 56 59 56 54 58 54 47 53
59 60 61 61 63 65 67 68 70 72 67 66 62 61 64 64 58 53 55 62 63 60 58 61 59 59 58 61 60 61 62 58 59 72 62 55 55 54 59 60 58 61 59 59 57 52 48
54 53 53 54 56 60 63 64 66 68 67 66 62 63 65 63 57 58 62 63 63 61 63 64 63 63 62 63 65 69 69 65 65 77 71 65 57 63 61 59 64 60 64 54 55 63 57
46 48 48 46 50 54 57 60 62 63 60 59 60 62 66 64 63 64 66 66 66 67 66 68 67 67 66 66 68 70 71 73 69 73 76 77 68 64 66 70 65 65 68 62 58 58 59
40 41 42 43 45 49 52 54 56 56 54 56 55 59 64 64 65 66 66 64 65 66 68 68 67 69 70 68 69 73 74 77 76 71 75 81 81 76 72 69 69 66 63 58 61 62 61
35 36 36 38 41 44 47 50 51 52 55 54 57 61 64 64 62 61 60 60 63 66 63 65 66 71 75 70 69 74 79 73 78 75 67 69 71 76 74 73 65 61 63 63 61 61 64
32 32 32 33 36 40 42 44 46 51 52 55 60 61 58 56 58 55 59 59 58 60 62 64 63 65 69 70 71 69 75 75 74 74 71 70 71 77 77 74 72 63 59 60 68 65 69
29 30 30 31 33 36 38 41 44 45 48 52 55 51 50 56 54 54 53 54 57 59 59 60 62 65 66 64 69 70 73 77 79 73 72 76 75 75 79 78 79 81 78 73 67 68 72
26 26 27 28 29 31 34 37 41 41 45 48 47 47 46 50 50 48 48 49 51 52 54 57 58 63 64 64 66 68 72 74 79 77 72 77 77 76 77 79 83 83 82 85 86 85 79
24 24 25 26 27 28 31 33 36 38 39 41 40 39 42 44 45 41 41 44 47 48 48 51 56 59 63 64 64 68 70 74 77 82 77 77 79 76 75 75 77 84 84 88 90 95 89
23 23 24 25 26 27 29 30 32 33 36 37 35 37 39 43 40 37 41 43 43 41 43 48 51 56 61 61 62 65 71 73 75 78 84 81 80 81 81 78 77 78 81 84 88 93 90
23 23 24 25 26 27 28 29 30 31 33 33 34 35 37 36 30 36 38 39 40 40 42 46 49 55 58 57 60 64 69 72 74 77 81 84 84 83 86 83 83 89 86 85 87 92 92
23 24 24 25 26 26 27 29 30 30 31 32 31 33 34 30 31 34 34 34 35 37 39 41 45 51 53 55 59 62 67 70 73 76 79 80 83 89 89 87 87 88 88 89 89 87 89

GFSGBSN_250_spd_078.txt.gz
Wind_Speed
99 95 93 93 91 96 97 97 97 93 89 85 81 86 86 82 79 80 75 79 76 78 77 77 75 78 71 73 82 78 80 80 78 81 81 79 77 76 67 64 68 71 70 69 63 54 56
104 99 97 100 102 105 103 101 103 98 94 93 90 88 90 88 86 84 85 81 82 79 83 83 83 84 85 84 78 79 78 77 79 80 79 77 75 75 75 77 77 73 70 66 57 58 56
103 108 108 108 111 107 112 110 105 105 103 94 95 94 91 90 86 87 86 87 85 86 87 86 85 87 89 93 89 86 83 82 82 81 83 84 84 84 83 81 77 79 75 67 65 60 59
102 103 111 113 101 110 111 111 107 103 103 99 98 95 96 92 89 86 86 86 88 91 90 88 88 89 91 90 92 92 91 87 88 87 85 86 84 81 84 82 79 77 76 73 74 68 56
94 103 100 101 106 102 104 108 104 106 99 92 102 99 98 94 89 89 87 83 83 89 92 94 92 89 88 91 90 91 92 93 91 92 92 92 88 87 84 81 80 83 76 71 69 67 56
99 97 97 95 97 101 103 106 109 106 104 101 97 94 97 96 94 92 89 87 86 84 86 86 93 96 92 94 94 94 97 97 96 94 96 95 93 87 85 85 83 69 72 68 58 56 46
89 89 91 90 91 92 93 96 100 102 101 104 101 98 94 98 98 95 94 94 90 90 91 91 92 94 94 95 94 99 101 98 99 100 98 100 96 87 85 80 78 79 64 51 49 52 41
93 95 96 96 94 93 91 94 93 96 101 100 101 97 99 95 100 98 98 98 92 91 89 91 94 87 95 94 94 99 101 100 104 103 102 98 92 88 79 75 79 73 61 45 49 47 38
93 94 93 92 93 93 92 92 95 94 95 97 93 93 99 96 99 96 99 97 97 96 91 94 92 94 94 97 100 103 104 103 100 96 99 96 69 64 60 60 66 60 53 46 48 48 38
89 88 89 88 87 87 86 85 85 90 90 92 91 89 93 94 94 96 98 97 97 94 97 98 95 93 96 102 98 104 104 104 102 98 88 55 51 53 49 49 55 52 45 47 53 49 38
87 86 85 85 85 81 80 82 83 84 86 86 89 89 88 88 89 91 93 93 94 93 101 91 87 89 93 97 99 98 99 96 82 75 59 55 51 46 47 52 52 36 43 52 52 46 46
82 80 80 80 81 81 79 79 81 79 79 81 87 89 89 87 89 91 91 93 91 95 96 89 84 80 85 91 96 99 91 82 68 62 52 51 43 44 46 53 54 49 59 55 54 50 44
77 74 72 72 73 74 76 77 78 79 76 75 78 85 89 88 90 90 89 89 87 89 91 89 80 85 89 90 90 84 76 68 61 52 49 47 44 45 49 50 57 51 49 50 58 47 43
74 70 69 67 68 69 70 72 74 75 77 74 73 78 82 87 89 89 88 87 86 87 89 89 80 85 88 84 81 73 65 60 54 50 46 42 40 43 46 48 57 56 54 55 58 55 48
69 65 63 61 64 67 67 67 69 71 75 75 71 72 75 81 84 87 88 87 87 87 86 84 81 87 83 78 74 66 59 54 49 45 40 37 38 40 48 47 57 52 53 53 57 58 52
63 59 57 57 62 64 65 65 65 68 72 73 72 69 71 75 77 79 79 78 85 87 84 81 79 81 74 71 66 61 55 50 46 42 38 40 38 41 53 52 51 50 49 55 59 56 48
57 54 54 53 57 57 60 61 61 65 67 69 71 68 70 70 69 67 66 71 77 79 76 76 77 77 73 71 56 59 50 50 43 44 44 41 39 41 55 52 54 55 58 58 55 54 45
52 50 48 48 51 49 53 56 56 60 63 65 68 67 68 69 64 61 63 68 69 70 70 72 72 73 68 63 54 58 53 49 43 51 51 46 50 48 53 53 57 57 54 57 54 54 50
46 45 43 42 44 44 46 48 50 55 58 61 63 67 68 66 61 57 62 63 62 63 61 61 63 64 63 62 56 56 55 48 51 56 58 55 49 48 56 55 54 58 58 54 56 60 58
43 41 38 37 38 38 40 39 44 48 53 55 60 63 67 63 61 60 60 61 59 60 58 58 59 61 60 58 57 57 56 54 56 59 67 64 60 52 57 60 62 57 56 55 57 57 61
39 37 35 34 34 32 34 36 38 44 49 51 54 59 64 61 63 61 58 58 57 59 61 60 59 60 62 61 59 57 59 58 59 65 68 71 69 60 57 62 64 64 57 58 56 61 64
35 34 33 32 30 28 29 32 36 42 45 45 50 57 57 57 59 60 59 59 61 63 63 62 60 62 62 61 62 61 60 58 60 70 67 71 78 74 70 62 66 62 61 64 65 56 58
34 32 31 29 26 26 28 30 33 37 39 43 48 52 52 54 56 54 58 62 64 66 65 62 60 59 59 65 62 61 56 60 63 67 75 73 81 80 76 75 66 68 68 69 66 61 64
31 29 28 27 24 24 26 29 32 33 38 44 48 48 49 53 53 56 59 60 59 59 57 53 53 54 58 57 62 61 59 63 63 64 76 79 77 86 82 79 73 69 72 73 74 68 72
29 27 25 24 23 22 23 27 30 34 39 44 44 46 48 51 51 50 50 48 50 50 51 50 48 50 58 58 60 60 62 61 62 70 72 79 81 77 87 83 79 75 71 70 81 75 75
26 24 23 21 21 21 23 25 27 33 35 36 38 39 44 46 46 47 46 46 47 45 45 47 49 55 57 54 54 57 59 61 66 69 75 77 78 76 79 91 84 82 82 75 78 83 82
24 23 21 20 19 20 22 23 26 29 32 34 34 37 40 40 38 38 41 42 42 41 45 47 48 49 50 50 51 56 59 59 64 72 77 80 80 74 75 77 81 88 89 88 86 85 81
22 21 22 20 19 19 21 22 24 26 28 30 31 34 34 31 33 35 38 39 38 38 38 39 41 40 42 46 50 55 57 60 63 71 74 78 78 77 73 69 75 78 82 81 88 87 86
21 20 20 20 20 21 22 22 24 25 27 27 30 28 29 25 31 32 34 34 35 35 36 37 39 38 40 45 48 54 57 59 61 65 71 74 77 79 77 75 79 83 83 82 83 92 90

GFSGBSN_250_spd_081.txt.gz
Wind_Speed
82 87 87 96 89 87 92 97 103 101 100 94 94 90 90 90 91 89 83 81 77 75 77 75 73 73 76 72 78 70 66 67 67 67 71 74 71 72 71 70 68 63 64 56 57 64 66
89 93 96 100 102 103 104 108 112 107 98 99 98 96 95 95 95 93 91 92 86 80 81 80 79 77 76 79 79 78 76 78 74 70 69 71 71 69 67 67 68 66 65 67 63 65 62
101 100 108 113 109 116 116 115 110 108 96 99 103 103 97 101 99 99 96 91 95 89 87 84 82 82 79 82 80 81 80 81 84 80 80 75 76 75 72 72 71 70 68 63 63 64 61
113 114 119 111 109 108 112 111 104 95 97 100 100 101 102 98 97 98 96 89 92 91 89 88 84 80 86 82 81 84 81 84 86 86 86 86 86 84 82 76 77 76 72 70 66 67 65
114 109 101 97 93 91 91 91 91 94 98 102 106 105 104 98 102 101 103 99 95 91 93 87 84 82 84 86 80 84 83 82 84 87 87 86 85 84 82 83 79 79 74 69 69 73 72
103 94 88 85 85 81 80 86 89 90 95 98 103 106 103 110 107 100 101 99 97 93 93 93 88 88 84 84 80 82 81 79 83 85 86 84 83 81 81 82 81 79 78 75 73 76 74
92 86 84 83 82 83 82 82 82 86 89 93 98 102 105 103 103 105 105 104 98 92 91 99 92 88 85 82 79 84 86 84 84 86 87 87 85 85 85 88 86 82 81 80 76 73 80
88 89 86 88 86 86 88 88 89 89 90 94 94 92 97 100 102 104 105 106 104 96 89 90 90 87 88 85 85 86 85 82 85 87 88 86 81 86 89 90 87 85 84 78 69 72 72
90 88 86 86 87 87 88 87 86 85 85 90 92 93 97 95 95 98 99 102 103 99 94 94 91 87 90 91 86 89 87 87 84 84 91 91 89 91 90 91 91 86 83 82 68 63 63
86 85 84 84 85 85 86 85 83 81 80 82 82 83 91 93 94 92 91 91 93 95 91 92 92 90 96 96 92 92 90 88 87 89 92 92 94 96 96 91 91 87 81 71 60 57 51
82 80 81 79 79 80 80 81 81 80 77 77 77 77 81 81 85 89 88 90 87 85 85 82 84 86 89 91 90 89 93 95 90 92 91 92 92 93 90 88 82 63 57 58 56 55 55
77 76 77 73 73 70 72 73 72 73 75 75 75 73 76 76 78 78 81 84 82 82 80 75 78 78 80 83 85 80 86 87 89 89 89 92 91 82 82 72 59 49 56 59 56 54 54
74 77 73 71 71 68 67 68 66 66 69 71 70 71 75 72 75 74 76 76 78 77 79 74 73 73 75 77 80 77 81 84 86 86 86 83 80 71 67 51 49 51 51 59 55 56 39
75 77 72 69 68 65 62 62 63 63 65 67 67 67 71 72 71 71 72 73 71 78 83 76 72 71 74 76 74 74 77 79 84 81 81 74 70 58 54 43 42 45 54 54 51 47 34
75 74 69 64 60 56 55 55 58 56 62 62 63 65 68 72 70 69 67 65 70 81 83 76 69 71 77 79 77 75 77 79 78 79 74 59 55 48 44 41 39 43 46 51 49 45 38
73 70 64 58 54 51 50 51 52 49 56 57 59 62 70 68 69 67 62 62 70 75 78 77 74 74 77 79 76 75 75 73 72 71 60 54 45 45 39 37 39 45 54 55 54 49 37
71 65 59 54 50 48 47 46 45 42 47 50 54 60 66 67 63 60 55 60 70 70 72 76 75 75 76 78 75 75 76 69 64 57 51 47 40 40 35 39 42 52 56 54 53 47 43
67 60 52 50 46 43 42 41 41 38 40 44 45 59 61 62 59 58 58 61 66 64 66 68 70 73 73 76 75 77 76 66 55 52 46 44 38 40 38 41 48 51 62 58 53 48 44
61 54 49 44 42 40 37 37 37 36 37 36 42 54 56 57 57 57 61 62 61 59 59 61 64 66 65 64 64 65 64 53 50 48 44 44 40 45 41 46 55 52 62 58 54 47 44
56 50 44 39 38 34 32 31 31 32 31 32 40 49 51 52 56 56 58 59 59 60 57 56 55 57 56 56 55 59 59 50 45 49 45 44 45 50 49 49 57 59 61 53 53 50 48
50 45 39 36 34 31 28 26 26 26 27 31 38 45 47 48 55 56 56 56 57 57 55 51 50 50 52 50 49 50 50 47 42 48 45 47 51 56 51 51 61 64 58 57 55 54 58
46 41 37 34 31 29 25 23 23 24 26 29 37 40 41 48 50 53 53 55 57 56 53 50 46 48 48 47 47 47 44 41 41 49 49 52 58 62 57 55 57 63 62 58 56 59 56
43 38 34 31 29 26 24 21 21 24 28 32 35 36 42 46 46 48 51 53 54 52 50 49 48 45 46 45 47 48 47 46 46 47 51 53 62 68 65 60 54 59 66 62 67 63 65
40 35 32 28 26 24 22 20 21 25 29 31 30 32 37 40 40 47 48 49 49 51 52 51 50 47 49 50 53 53 48 45 44 46 51 53 64 72 73 64 58 58 65 65 63 67 72
36 33 30 25 24 21 20 21 22 23 26 28 28 32 36 37 42 45 47 47 48 48 49 49 49 48 55 52 55 51 49 45 47 47 51 55 65 72 80 73 66 66 64 65 66 65 69
33 30 28 24 20 20 19 20 21 21 22 25 27 30 35 37 43 40 41 43 45 48 47 48 48 49 46 51 52 48 48 51 53 51 54 59 64 69 79 79 74 74 71 64 70 76 72
31 28 26 23 19 18 18 19 19 20 22 24 27 30 33 32 33 35 39 40 41 40 44 45 45 45 49 53 52 49 49 53 52 56 58 62 64 64 77 84 79 80 77 74 74 72 75
29 26 23 21 19 17 17 18 18 19 20 21 25 27 26 27 31 33 37 39 39 41 44 44 42 46 50 50 47 45 49 52 54 55 60 63 65 65 71 75 80 87 81 82 79 78 75
27 24 22 20 19 17 18 17 18 19 18 20 21 21 23 26 31 32 33 34 35 37 40 40 43 46 42 40 42 45 48 50 54 57 61 61 64 67 67 78 85 82 85 87 83 82 77

GFSGBSN_250_spd_084.txt.gz
Wind_Speed
84 81 79 81 86 86 83 85 87 88 84 89 88 90 91 91 93 93 98 97 91 83 82 79 77 75 72 66 67 61 63 69 70 66 63 66 67 65 62 62 64 56 63 64 61 60 60
84 87 87 90 94 104 105 106 100 98 99 100 94 96 99 102 104 100 99 103 96 92 86 86 82 79 76 74 69 68 69 71 75 75 74 71 65 66 64 65 64 62 62 60 57 59 61
87 89 97 96 96 108 111 103 100 95 97 102 107 110 104 106 113 114 111 105 101 97 89 90 88 83 82 84 78 74 71 75 76 78 76 78 78 74 71 67 66 67 63 61 62 63 67
92 100 104 110 116 112 104 99 92 96 96 99 101 104 106 107 107 112 115 106 102 94 92 89 86 83 80 89 77 79 74 79 77 79 79 79 77 76 78 78 77 75 72 67 67 73 73
107 107 115 121 113 106 100 93 87 86 88 92 94 96 98 101 106 108 99 97 93 93 97 91 88 85 86 87 82 81 77 78 78 77 77 81 80 79 78 78 78 79 76 76 75 78 75
113 116 122 123 110 101 96 91 84 82 80 81 83 84 88 92 97 96 98 98 96 95 92 96 86 82 82 84 77 80 80 77 77 74 75 78 82 82 76 78 78 83 83 80 75 74 78
120 124 126 118 105 99 93 90 86 82 80 80 82 81 86 88 91 89 93 99 100 102 100 96 95 94 91 92 91 91 82 80 74 75 76 76 75 78 84 82 83 81 79 77 73 74 74
122 125 119 107 100 95 90 87 83 82 79 77 79 78 80 87 89 91 94 98 99 104 102 101 102 89 94 93 93 91 84 80 81 77 81 77 74 79 77 79 78 79 82 79 75 76 77
119 114 106 99 92 86 82 81 80 81 80 77 76 74 75 77 81 86 91 98 97 102 93 99 101 97 100 92 86 92 82 80 83 80 80 76 76 77 76 80 78 75 76 77 82 82 82
112 105 96 89 84 81 78 77 77 78 79 77 76 76 73 75 77 78 81 87 93 94 86 88 92 91 94 93 86 89 86 81 78 81 79 82 80 82 85 85 86 83 83 86 83 81 82
102 96 91 85 81 74 70 71 70 70 71 72 73 74 74 73 74 74 72 79 84 88 85 85 84 82 84 84 82 86 89 85 85 85 82 83 83 82 88 89 85 84 86 84 85 84 76
94 90 85 81 74 69 69 66 65 66 66 67 68 68 71 72 75 69 69 72 72 76 81 85 84 81 79 79 76 77 83 84 85 82 83 85 83 85 88 86 88 86 85 82 75 74 68
88 84 80 74 69 68 68 65 63 63 62 62 60 61 65 69 75 67 70 70 65 63 73 78 85 80 77 74 72 71 73 73 74 74 76 75 72 74 75 81 81 81 75 74 71 63 43
84 81 75 70 69 69 66 62 61 60 59 58 55 56 61 67 67 65 67 67 58 65 71 66 68 75 79 74 70 68 68 69 69 67 68 68 67 67 73 76 74 65 66 60 55 46 43
80 76 73 70 70 68 62 58 56 55 53 52 49 53 62 60 59 63 63 59 63 66 64 62 63 65 72 74 71 66 67 65 64 64 64 63 64 69 71 70 63 57 58 47 44 39 45
75 75 72 72 70 65 58 52 51 49 46 43 44 51 55 53 53 56 55 60 64 64 61 59 59 62 68 68 68 64 64 63 62 62 64 65 68 66 63 62 56 46 44 41 38 39 41
73 73 72 72 67 61 53 49 47 42 39 38 41 46 44 45 47 49 52 61 65 61 58 53 54 64 69 68 68 67 65 64 65 66 68 67 66 61 55 50 48 35 37 38 36 41 44
73 72 71 69 62 56 50 46 42 38 36 35 37 36 37 39 41 47 56 63 62 58 58 56 57 65 63 65 70 69 66 64 66 68 68 67 63 57 47 42 44 32 36 37 38 45 48
70 70 68 64 58 51 46 41 37 33 33 32 30 29 29 32 39 49 57 61 57 54 55 54 55 59 58 60 68 70 68 64 62 63 64 63 57 55 45 39 41 35 37 38 46 51 50
71 67 64 61 52 47 42 37 33 30 30 29 27 27 26 31 38 47 54 57 55 52 54 52 52 54 54 52 58 62 59 60 61 59 60 60 55 46 43 39 41 37 41 42 55 54 52
67 63 60 56 51 44 38 33 29 28 27 26 23 22 25 33 40 47 51 52 49 48 51 50 50 51 49 49 48 53 47 48 54 54 56 51 46 42 43 42 45 44 46 49 60 58 53
63 59 56 50 44 39 36 30 26 26 24 22 20 24 31 34 37 42 48 51 51 49 49 51 52 49 48 45 42 47 45 44 44 46 47 45 45 43 45 47 48 45 49 43 62 57 53
59 55 52 46 41 35 31 28 25 22 21 17 17 22 27 32 37 44 50 48 48 43 42 44 47 45 45 44 42 42 41 38 40 39 41 42 43 45 49 53 52 50 55 53 65 67 65
54 52 48 41 37 32 28 26 22 20 17 15 19 25 28 32 38 43 46 43 42 42 41 41 43 45 45 45 43 42 41 39 36 36 36 39 43 45 54 56 54 55 58 59 58 69 71
49 48 43 38 35 29 26 23 21 18 17 18 21 26 28 32 36 38 39 37 37 38 39 41 42 44 45 45 44 42 38 36 38 36 36 41 43 45 55 58 56 59 60 62 64 70 72
46 44 40 35 32 27 23 21 19 17 17 19 22 25 26 32 34 33 37 39 41 40 41 41 43 43 45 47 46 43 41 40 38 40 39 39 43 43 52 60 63 64 64 64 67 69 68
43 40 37 33 30 25 22 19 17 17 17 19 21 23 27 28 29 33 36 39 41 42 43 42 44 44 45 46 46 45 42 40 41 44 44 43 45 48 55 60 67 68 67 64 71 69 68
39 36 34 31 27 24 20 18 16 15 16 17 20 22 23 28 32 34 37 39 40 42 43 45 45 44 45 47 46 39 39 37 40 48 50 49 48 53 56 56 66 76 71 69 71 71 68
36 33 31 29 25 23 19 17 16 15 15 16 19 23 26 28 29 32 34 34 35 37 39 42 43 44 45 45 44 40 43 41 48 50 49 49 51 55 58 58 65 78 80 70 68 71 70

GFSGBSN_250_spd_087.txt.gz
Wind_Speed
80 83 86 90 90 93 86 79 80 81 81 79 83 85 91 95 89 95 96 99 94 87 87 86 80 81 84 77 76 72 65 68 68 64 64 59 59 63 58 62 61 57 54 61 63 60 57
83 87 91 94 95 90 83 86 91 95 94 93 94 101 105 107 105 102 100 103 103 98 92 95 90 85 87 80 87 76 72 75 70 68 68 66 64 60 61 61 65 60 62 62 62 62 61
89 94 100 95 88 85 93 99 105 103 102 104 104 106 105 102 100 101 103 103 104 106 102 95 95 95 89 93 92 83 80 80 75 76 73 73 69 66 66 66 69 66 63 61 61 61 64
95 96 102 92 90 99 102 106 107 106 102 100 96 94 91 93 95 100 103 108 113 109 103 106 102 99 91 105 98 92 85 89 82 78 76 74 75 71 71 69 71 74 70 67 64 66 68
102 103 97 92 98 108 111 109 104 98 93 90 87 85 84 83 85 90 93 103 106 104 109 106 104 103 100 108 103 101 95 94 91 84 81 78 74 72 72 73 72 71 74 72 72 76 76
100 100 102 104 110 117 116 105 100 95 90 86 82 80 80 78 79 81 84 92 100 103 105 109 107 105 100 103 106 106 103 93 98 91 81 73 69 73 74 72 71 73 79 80 77 77 77
98 102 104 114 116 120 112 103 99 92 84 78 75 74 73 75 77 74 76 82 84 90 94 97 94 94 98 95 92 88 87 86 82 81 77 80 76 70 71 69 72 70 70 76 72 76 83
102 106 114 117 122 119 108 101 94 85 80 76 77 78 77 75 73 70 71 74 79 78 82 87 88 85 84 90 85 85 85 84 84 82 84 77 74 75 75 72 67 66 67 71 76 78 82
106 115 117 122 117 111 104 94 85 82 79 78 78 77 77 77 76 70 67 68 73 75 76 85 81 76 89 87 90 87 84 84 82 81 82 75 76 79 77 74 72 72 71 71 71 75 78
112 114 117 113 112 106 95 87 82 81 77 75 74 72 72 73 75 68 62 63 69 71 66 75 79 80 84 86 88 97 92 84 86 86 86 83 86 81 77 74 75 73 70 73 74 72 73
120 122 114 110 105 98 88 83 80 75 72 70 68 66 67 69 74 66 61 61 65 65 58 72 82 76 83 82 85 97 94 91 88 90 88 82 83 79 77 77 74 73 77 79 77 75 73
123 120 109 104 99 90 85 80 74 70 67 64 64 64 65 65 67 61 64 64 60 59 57 66 74 79 82 83 81 87 87 89 90 87 82 79 80 79 77 77 75 75 73 76 77 79 75
122 111 102 99 91 87 82 75 69 66 62 62 62 61 60 59 55 56 59 61 53 50 63 66 70 74 79 80 77 80 83 80 80 78 75 77 76 82 80 80 78 75 77 77 76 74 72
111 101 97 92 87 84 77 71 66 63 61 60 59 58 57 48 47 50 53 53 49 56 62 62 64 67 72 78 81 78 76 74 72 68 65 65 68 73 81 83 82 83 81 76 74 72 70
100 96 92 87 84 79 74 68 66 62 61 57 55 54 49 43 45 45 44 44 51 57 56 59 62 63 67 68 75 78 78 76 70 66 62 60 61 69 74 75 76 74 70 69 65 62 59
96 91 87 84 80 74 71 69 65 61 57 51 49 49 40 42 42 40 35 41 55 56 60 58 59 61 59 62 64 68 71 70 69 65 58 56 58 58 61 63 63 64 62 59 55 56 56
91 86 84 80 76 71 71 67 62 58 52 45 43 43 37 36 35 32 35 48 55 58 60 55 56 59 58 60 60 58 58 62 63 63 58 57 59 59 59 61 59 61 57 50 50 52 42
85 83 79 75 74 71 70 63 60 53 45 40 39 36 32 29 30 32 39 46 50 57 57 55 55 58 60 61 60 58 57 58 63 63 58 58 58 57 60 59 61 58 51 44 45 41 36
82 79 75 73 73 72 68 60 56 49 40 37 36 30 26 28 30 35 40 44 49 54 54 54 54 58 61 61 57 58 57 57 58 59 55 56 58 59 58 57 58 56 51 41 41 34 35
78 74 73 73 71 69 63 56 50 44 37 33 29 25 24 26 32 35 37 39 45 45 48 50 53 56 57 56 51 53 55 56 59 58 58 61 61 60 59 58 58 56 51 37 37 35 39
74 73 73 70 68 65 60 54 46 40 35 29 22 21 21 25 31 33 36 37 38 44 46 47 49 50 51 49 46 48 51 55 61 62 63 63 61 59 60 56 53 47 48 36 38 38 45
72 72 70 66 63 60 56 50 43 35 30 25 21 19 18 22 28 32 33 36 39 41 44 44 45 46 45 46 47 46 49 55 57 58 62 62 60 59 59 58 50 41 48 37 39 42 56
70 69 66 62 59 56 52 45 38 34 27 22 19 20 19 21 27 31 31 30 31 37 38 40 42 42 43 45 46 47 49 53 55 56 58 60 60 58 57 55 47 43 52 40 44 54 65
68 65 61 57 54 53 48 40 34 30 25 21 19 18 19 22 25 27 30 32 33 36 39 41 41 42 44 47 47 44 44 44 47 49 51 52 53 52 50 47 44 47 54 44 49 54 69
65 61 57 52 51 50 42 36 31 28 24 20 18 18 19 22 25 27 29 30 33 36 40 41 39 39 41 43 44 44 44 43 43 46 47 46 45 46 45 45 46 53 55 48 56 54 70
61 58 52 48 48 46 37 32 29 26 23 19 18 19 22 24 24 28 29 32 35 36 37 40 41 40 42 44 46 45 43 42 40 40 42 43 41 38 39 43 48 57 58 51 56 56 76
58 53 47 44 45 40 33 29 26 24 21 19 18 19 21 22 25 28 31 33 36 37 39 41 42 40 41 42 44 44 42 40 41 40 39 41 41 41 42 41 48 59 60 54 60 61 64
53 48 42 40 41 36 30 26 24 22 20 18 17 18 21 24 29 30 33 35 36 38 40 41 40 41 43 43 43 43 40 40 41 41 40 40 40 44 42 42 51 62 61 58 58 64 65
46 42 38 38 37 32 27 23 21 20 19 17 17 19 23 24 25 30 33 35 36 39 40 39 39 42 42 42 42 41 41 41 43 44 43 42 45 46 46 49 55 61 60 63 61 65 72

GFSGBSN_250_spd_090.txt.gz
Wind_Speed
74 76 77 80 81 82 85 87 88 88 90 93 93 89 95 96 95 96 96 92 97 100 103 103 100 97 94 86 79 83 76 77 73 73 73 70 67 62 58 56 50 50 51 53 55 55 54
77 79 82 82 82 86 86 87 90 96 97 91 91 88 94 101 102 109 108 104 104 108 108 108 105 106 99 90 97 95 84 80 80 80 74 75 72 69 62 60 58 53 56 58 60 59 59
85 85 86 86 88 90 90 92 94 94 92 94 96 99 104 106 105 104 110 109 109 109 113 115 114 110 108 94 106 100 95 87 82 85 86 80 80 70 65 63 65 61 56 55 59 64 62
87 90 93 93 93 94 96 95 99 94 95 97 106 107 105 106 103 97 97 99 105 109 113 113 118 116 103 106 110 109 104 96 91 91 89 89 81 77 72 70 70 67 64 61 61 65 65
93 96 95 94 94 94 96 95 90 93 99 107 104 102 101 98 96 94 90 90 94 97 100 99 105 111 105 110 107 112 109 105 103 97 95 94 87 78 80 76 75 73 69 67 67 69 73
100 99 97 95 93 95 96 97 100 105 112 108 102 99 94 88 85 82 78 77 81 84 89 90 88 96 97 103 108 107 111 113 109 105 100 98 94 87 82 84 76 78 78 74 70 72 73
98 100 100 98 96 97 98 100 108 113 114 103 97 93 84 80 78 76 72 68 69 71 73 81 79 83 90 95 102 106 106 111 108 104 99 99 98 90 86 87 83 90 85 80 74 74 72
101 104 101 100 101 100 101 108 113 115 106 97 93 84 80 79 78 75 68 66 67 62 59 67 75 74 81 88 89 101 104 104 108 106 106 106 98 94 99 93 91 87 90 80 70 70 72
104 105 103 103 102 104 107 112 114 110 99 91 85 81 79 77 76 72 66 66 61 58 48 63 66 70 78 79 77 87 97 102 100 102 105 106 101 97 90 89 85 85 87 82 72 69 68
104 105 105 103 105 107 113 114 110 101 92 84 81 80 76 73 72 68 68 65 59 52 38 57 67 65 76 76 67 82 84 89 93 94 94 86 83 82 79 77 74 72 76 75 69 64 64
104 105 105 107 109 111 112 111 101 92 84 81 79 76 73 68 66 67 65 59 56 49 40 59 67 62 69 74 68 78 79 74 71 76 76 74 80 78 76 77 75 73 76 73 70 68 66
103 105 106 109 110 113 112 102 93 86 82 79 75 70 68 66 62 60 60 53 52 45 50 54 61 62 64 70 69 74 75 70 70 76 76 76 76 75 73 74 72 72 75 73 73 75 65
106 106 107 109 113 109 105 94 86 81 79 74 69 66 67 61 61 55 53 47 43 42 50 50 54 59 60 64 66 71 70 69 76 80 77 78 76 78 78 77 75 76 80 78 76 72 67
108 110 110 113 111 106 94 88 82 79 74 68 65 64 65 60 56 50 45 40 36 44 47 48 49 54 59 61 63 69 70 69 71 73 74 75 77 78 78 79 80 78 81 81 76 74 70
107 110 110 108 106 94 89 84 79 75 69 64 63 64 59 55 50 44 39 35 38 41 45 49 45 51 55 58 62 67 71 69 68 68 71 71 72 75 79 82 80 76 77 76 77 77 76
110 110 106 104 95 89 85 80 75 72 67 61 61 61 53 48 42 38 36 34 36 39 46 48 48 50 54 58 60 63 65 67 67 65 66 66 66 67 67 67 66 70 69 71 74 75 72
106 104 98 94 91 88 81 76 72 68 64 60 58 53 46 42 36 33 34 30 31 37 43 46 50 51 56 57 58 60 61 63 68 67 66 63 62 60 61 62 61 61 63 63 64 65 64
98 97 93 92 90 83 77 71 69 65 62 58 52 45 40 36 31 31 29 29 28 35 42 47 48 51 51 51 53 54 56 57 60 63 66 65 64 62 61 57 57 55 57 54 55 56 56
92 95 94 91 85 79 73 69 67 64 58 55 47 41 35 31 28 27 26 27 30 36 41 45 47 51 48 54 54 55 56 57 56 54 56 60 61 58 60 59 54 50 52 51 53 52 52
96 99 91 87 81 75 70 67 65 61 54 51 44 38 31 29 27 25 22 24 29 31 39 44 47 49 44 49 52 53 53 57 57 53 53 55 58 60 59 54 52 52 53 51 47 43 38
96 88 86 80 76 70 67 64 61 57 51 47 41 35 29 27 25 23 18 20 26 31 38 42 45 47 48 48 49 54 55 54 52 54 53 54 57 59 56 52 51 51 51 49 43 39 32
91 88 80 75 71 67 64 61 56 53 50 42 38 32 28 26 23 20 14 15 22 31 34 35 36 38 36 35 39 44 46 46 45 49 49 50 52 55 54 51 51 49 52 43 40 36 29
87 80 75 71 68 65 61 59 52 49 46 42 34 29 26 22 19 16 12 17 24 28 29 33 38 39 38 37 36 41 43 46 48 48 49 52 52 53 52 49 47 50 53 45 41 38 30
80 75 71 68 66 61 58 55 50 45 42 39 32 28 24 20 18 15 14 21 26 28 30 35 35 38 37 38 40 45 49 48 49 52 53 52 51 52 53 52 50 53 49 45 44 37 34
77 72 69 67 63 60 57 53 47 41 38 35 29 26 23 19 17 17 17 24 27 30 36 37 36 37 38 40 41 45 48 51 52 52 51 51 51 51 49 51 49 53 51 47 40 39 42
74 70 68 65 62 58 54 49 43 37 36 32 26 23 21 17 17 17 20 25 28 33 35 37 41 45 44 42 42 46 48 48 46 45 44 43 43 46 50 50 51 54 52 47 40 43 49
71 69 66 63 60 54 49 44 39 35 33 28 24 20 20 17 18 19 22 26 29 32 34 36 37 38 39 39 39 42 45 44 43 43 42 43 44 47 47 46 48 51 49 43 40 48 52
69 67 63 60 54 48 43 40 35 32 30 25 22 19 22 19 19 20 22 26 30 32 34 34 35 35 38 39 38 38 41 42 43 42 43 44 45 45 44 44 47 49 44 43 45 53 59
65 63 58 53 47 42 38 36 32 29 27 22 21 20 19 16 17 21 24 27 29 33 35 37 37 37 38 37 36 38 40 42 44 44 43 43 43 45 45 47 51 48 44 43 46 56 65

GFSGBSN_250_spd_093.txt.gz
Wind_Speed
77 77 78 77 81 83 81 83 83 85 85 85 89 94 94 96 96 96 99 101 105 106 99 102 105 106 102 106 95 104 99 96 92 90 85 79 76 76 71 69 63 53 52 45 53 58 60
78 81 83 83 84 87 89 89 89 91 89 89 91 94 95 97 99 99 100 103 106 112 116 117 114 110 110 103 109 113 105 105 97 94 92 85 82 81 76 71 67 62 61 58 50 53 56
83 84 86 88 87 90 91 90 96 98 94 97 87 92 96 97 101 103 106 110 114 115 118 120 119 114 108 107 112 115 115 107 107 100 95 93 90 83 77 74 71 69 67 64 57 56 54
84 81 84 89 88 89 93 95 97 97 101 99 94 91 95 99 102 105 109 113 114 112 112 109 107 105 100 103 110 115 116 114 109 107 104 99 95 91 83 78 77 77 75 70 64 61 60
80 82 92 88 89 90 90 94 97 103 106 101 95 95 98 98 105 107 107 104 104 100 91 92 95 96 90 97 108 111 115 112 116 112 112 110 103 95 90 85 79 77 74 71 71 69 67
83 89 86 90 92 89 93 100 104 109 103 104 101 97 97 106 106 104 98 92 89 83 80 80 77 79 78 91 99 104 106 112 114 118 115 113 109 104 96 92 86 84 83 75 74 74 71
86 90 94 89 93 98 104 104 107 108 106 107 102 98 105 106 103 97 90 84 79 74 74 74 73 69 71 78 84 96 99 103 109 114 115 109 111 101 104 98 97 93 87 82 78 76 76
90 91 95 95 98 102 103 106 107 106 109 105 105 105 106 105 99 93 86 81 73 66 58 76 67 64 68 73 71 87 90 93 93 103 111 111 101 100 106 106 102 100 93 86 86 81 75
92 92 93 97 102 103 105 105 107 112 112 108 109 108 105 101 95 88 84 77 67 58 45 68 64 52 63 70 67 77 78 83 86 90 99 102 104 105 102 105 105 103 98 95 91 89 83
97 96 97 103 99 103 105 107 112 113 109 108 109 107 103 94 87 84 82 72 62 53 50 60 59 49 56 63 64 72 71 77 77 77 85 91 101 102 102 101 106 105 103 99 95 94 87
103 101 99 95 106 104 108 111 114 110 110 110 108 104 97 87 80 78 77 69 59 52 50 51 52 47 48 54 61 66 65 68 71 73 74 78 88 94 96 96 99 96 97 97 95 91 88
96 95 98 105 101 107 109 110 109 109 111 107 103 99 87 80 78 73 70 64 54 51 50 46 46 45 40 47 57 61 59 64 68 66 68 72 74 76 86 95 96 99 100 95 93 92 86
97 103 104 105 108 106 109 108 108 108 104 101 98 89 80 75 71 71 67 59 47 50 40 42 43 40 35 46 52 58 57 63 64 61 61 64 67 70 73 79 79 83 88 90 89 81 67
105 101 103 105 105 108 108 106 106 101 98 95 90 82 75 70 69 66 59 52 45 45 33 38 38 38 36 45 51 56 56 61 63 61 64 64 63 62 67 72 73 75 72 67 63 59 57
103 100 102 105 106 104 103 102 99 96 93 87 81 76 70 66 63 59 52 46 40 33 31 36 36 39 38 43 49 52 56 58 63 61 62 63 59 57 63 66 66 63 64 69 64 58 57
99 101 103 102 101 103 102 97 94 93 86 77 76 72 67 62 58 53 45 38 33 29 28 33 36 39 38 44 46 49 53 55 59 60 61 62 58 58 64 62 62 64 64 61 60 60 62
102 102 101 101 100 102 97 93 91 84 77 72 72 69 61 57 51 46 39 32 27 24 26 31 34 36 38 42 47 49 52 53 58 61 59 59 60 63 66 68 66 66 64 64 65 65 63
100 97 98 98 100 96 92 88 83 78 72 68 68 64 57 52 45 37 31 26 24 24 25 27 31 34 40 42 45 50 53 52 56 59 60 59 61 63 65 66 66 64 64 64 64 60 60
94 97 96 95 93 88 84 81 78 73 70 66 64 59 51 46 37 30 25 21 20 20 24 29 31 37 42 45 49 50 52 52 55 59 60 60 60 60 60 59 57 59 58 56 52 51 52
96 97 88 88 85 81 80 76 74 69 67 63 58 53 48 40 30 26 21 17 18 20 22 25 30 37 42 45 48 51 51 55 55 59 62 63 64 64 63 61 58 55 54 53 48 46 44
89 87 85 80 79 79 76 74 70 66 65 60 52 48 43 36 26 22 19 16 17 18 18 24 26 34 40 47 49 51 54 54 55 59 61 63 64 66 65 62 61 60 57 54 48 44 41
88 79 77 79 77 76 75 74 70 63 61 56 50 45 39 32 23 20 17 16 15 17 18 24 28 31 39 43 48 49 50 52 59 60 61 60 59 54 53 52 52 53 52 46 41 38 38
80 78 78 75 75 75 75 71 65 61 57 53 46 42 36 30 19 18 17 21 19 20 21 24 27 28 35 35 34 38 42 47 51 54 53 51 48 46 44 44 46 49 47 43 41 39 39
80 77 76 77 76 75 73 67 62 58 55 51 45 40 32 26 20 16 17 19 20 21 22 23 27 26 30 35 35 37 36 38 41 46 46 45 46 45 44 44 46 47 44 43 43 43 43
78 78 77 77 77 73 70 65 61 56 54 49 43 38 29 24 19 15 19 19 21 23 25 27 28 30 32 35 36 35 38 39 41 44 46 44 45 47 47 46 46 47 47 46 47 43 42
80 78 80 79 77 72 67 62 58 54 52 45 39 35 27 22 18 17 19 20 21 24 26 27 29 31 35 38 41 40 39 41 45 46 48 48 49 49 47 46 47 48 49 46 43 47 43
81 82 79 76 73 68 63 59 56 52 49 42 34 32 26 21 17 18 18 19 21 24 26 27 28 32 33 37 39 39 40 39 44 46 46 46 48 46 47 49 50 47 44 44 47 47 45
84 81 78 72 66 63 60 56 53 50 45 39 29 30 23 17 15 16 17 18 21 25 25 27 29 29 32 35 37 36 36 37 39 41 42 43 40 38 41 46 48 45 45 46 47 47 46
78 74 69 66 62 61 57 53 49 45 41 35 26 26 21 16 15 16 17 20 24 27 28 30 31 31 32 34 35 34 34 34 35 40 43 43 42 42 43 44 49 47 47 44 42 41 43

GFSGBSN_250_spd_096.txt.gz
Wind_Speed
61 63 73 74 77 74 76 77 82 81 84 85 86 90 89 93 87 87 86 84 94 91 94 98 100 101 102 104 104 111 106 103 104 101 98 97 96 96 93 88 79 67 65 59 57 61 53
61 67 69 69 76 76 78 79 83 86 89 87 89 85 86 89 88 92 96 98 93 91 93 100 104 108 109 107 111 115 113 112 109 106 104 100 99 100 94 96 90 79 72 63 62 61 60
69 67 74 77 80 82 82 84 90 88 86 91 91 91 92 94 97 96 99 100 97 96 95 99 107 112 110 110 117 119 121 115 113 111 107 106 106 103 97 96 93 88 79 76 70 68 64
74 70 73 76 79 84 88 88 81 83 87 96 95 97 97 101 101 102 104 100 102 102 98 102 108 110 105 104 111 116 114 111 113 109 110 109 105 107 100 99 94 94 86 78 76 72 73
71 71 75 78 75 83 74 80 85 91 97 97 103 102 100 105 106 107 105 106 108 101 99 103 104 105 98 92 97 100 105 104 106 104 108 108 107 104 104 102 99 93 90 84 79 74 80
77 73 75 74 77 82 86 93 94 90 95 100 101 102 108 107 109 108 109 110 105 102 100 102 98 92 82 80 80 78 87 91 93 97 97 95 97 101 104 105 96 97 93 90 83 79 82
78 82 77 82 91 87 88 90 96 100 100 103 107 108 106 109 109 109 109 107 104 98 90 99 96 68 71 75 63 70 75 81 83 86 89 93 93 87 97 103 103 104 98 94 90 87 80
79 84 86 89 92 92 92 94 99 100 102 107 108 106 108 113 112 110 109 106 102 89 67 94 82 75 64 60 60 70 70 74 74 71 83 83 74 92 102 106 106 108 100 97 93 88 86
87 88 89 93 91 89 93 98 96 100 105 105 105 113 109 110 112 111 109 106 94 78 65 82 67 70 63 50 56 69 63 72 70 67 69 74 77 88 100 106 104 103 100 99 98 91 86
92 91 96 98 91 93 99 97 103 105 108 107 111 112 109 109 110 111 108 99 88 74 69 71 61 61 56 44 54 58 57 64 62 62 64 65 70 79 91 100 102 100 102 99 98 94 89
96 96 97 96 94 99 97 103 105 106 106 110 108 109 109 106 109 107 99 94 87 77 67 58 54 58 51 43 51 50 53 55 55 58 56 65 69 77 81 95 100 99 105 101 97 92 89
99 97 99 98 100 101 106 102 104 109 106 109 106 107 106 107 105 100 94 88 82 72 62 60 52 54 45 40 46 47 48 49 53 53 54 56 62 68 73 82 88 98 102 101 100 97 93
94 95 96 100 102 105 101 103 107 105 107 105 108 106 105 104 99 93 86 81 74 65 60 53 48 45 38 37 41 42 41 47 46 48 50 57 59 59 62 70 71 80 93 97 95 94 91
98 101 102 103 108 105 107 104 106 106 104 104 104 103 101 97 93 87 78 71 66 58 51 43 39 38 32 36 38 39 41 47 46 50 52 56 56 55 55 58 64 67 76 85 90 89 86
99 104 107 99 100 102 102 104 106 105 103 100 98 96 92 91 85 77 72 63 57 48 40 35 33 30 26 33 35 38 41 45 47 49 49 54 53 52 54 59 49 47 52 59 70 77 80
105 103 100 101 99 97 103 101 103 101 96 92 92 88 89 85 76 71 65 57 46 38 32 29 27 23 21 26 33 37 39 42 44 46 49 52 50 50 52 55 57 52 53 54 45 53 65
106 104 99 97 98 98 99 100 99 94 89 87 85 85 84 76 67 65 59 48 39 31 26 24 24 19 23 28 32 36 40 43 45 48 51 50 49 51 52 49 55 59 57 54 54 56 55
101 96 94 96 96 97 95 95 93 89 87 80 80 79 75 67 63 59 51 40 31 26 22 20 18 19 24 27 33 37 39 44 48 52 55 52 50 48 48 50 49 51 51 56 58 60 62
96 99 95 95 93 90 87 87 87 84 81 78 76 73 67 62 57 53 43 33 27 22 21 20 16 21 24 30 36 40 44 50 51 55 59 57 51 51 51 50 47 48 49 51 52 52 52
94 95 87 88 84 82 84 84 80 80 77 72 70 66 62 59 51 46 38 29 24 20 19 17 16 23 29 38 44 44 46 46 51 55 58 60 58 55 55 54 54 55 53 50 51 54 54
87 85 83 80 80 78 81 79 78 76 72 67 63 62 59 56 45 40 35 27 23 18 14 16 14 22 28 37 42 43 46 49 55 57 60 62 62 60 57 56 54 54 55 55 56 56 56
82 78 79 79 80 81 77 74 73 68 66 62 61 60 58 53 41 35 33 25 20 20 16 15 16 22 28 35 39 43 46 49 55 56 62 63 63 62 58 58 57 56 55 55 54 51 51
80 81 79 81 82 79 74 70 67 65 63 61 62 58 54 51 37 32 32 25 19 19 21 20 19 21 25 33 37 42 45 48 54 56 59 63 65 60 60 59 58 55 55 55 52 49 49
82 81 80 80 76 72 69 67 64 63 61 60 60 56 51 45 36 28 30 26 18 17 21 21 21 22 26 30 31 37 39 41 48 53 55 57 50 53 56 58 57 54 55 55 54 53 52
80 78 76 74 71 70 67 65 64 61 60 60 57 54 48 40 34 27 27 25 21 15 17 22 22 22 26 29 32 37 35 35 40 45 49 48 45 47 51 53 53 53 53 50 47 45 44
71 71 71 71 70 68 64 63 61 61 60 58 56 52 45 36 31 27 24 23 21 17 17 21 25 26 28 31 34 36 36 31 37 40 42 45 45 49 52 52 52 50 45 43 43 43 41
74 73 72 70 68 66 63 62 63 62 58 56 55 49 41 32 29 26 24 22 20 19 17 23 27 31 31 33 36 38 38 36 38 40 43 48 50 51 52 51 48 47 46 44 45 43 44
76 73 70 68 66 64 64 67 65 61 55 54 52 45 36 29 27 25 23 22 19 19 18 24 29 34 35 36 38 40 41 41 39 40 44 46 48 51 53 52 51 47 46 46 47 46 48
74 70 67 66 67 68 69 69 65 57 53 51 47 42 31 29 24 24 21 21 19 20 19 23 30 36 38 38 41 42 42 40 39 40 40 43 45 48 50 50 46 44 43 45 47 47 47

GFSGBSN_250_spd_099.txt.gz
Wind_Speed
67 64 62 61 59 70 69 65 74 71 65 69 73 82 85 86 87 90 94 101 90 89 87 87 85 85 88 87 91 100 98 100 99 102 103 104 102 101 96 93 94 85 80 79 79 79 66
68 64 62 67 65 66 77 77 75 71 71 77 80 82 87 91 97 97 95 92 94 98 101 93 92 90 91 86 91 96 98 104 106 104 108 108 110 111 105 101 98 91 88 82 78 78 76
65 64 63 65 73 72 74 77 79 81 80 86 88 91 87 85 88 87 91 95 97 99 99 101 102 102 95 92 96 99 104 105 107 111 111 117 118 118 109 105 102 102 94 86 77 76 81
68 69 65 69 72 77 76 82 82 85 87 87 87 87 84 87 90 94 100 95 95 97 99 104 106 102 96 97 97 99 100 101 103 108 113 113 113 115 113 111 108 103 99 88 80 82 83
72 70 71 70 72 75 78 77 79 83 85 86 81 85 92 91 92 97 102 100 102 107 105 107 107 105 100 97 95 93 94 97 99 103 107 110 107 105 109 104 108 105 95 89 86 88 85
72 72 77 76 72 74 76 77 80 82 87 81 89 95 98 90 96 101 102 105 106 109 102 112 111 108 101 103 94 80 88 88 92 94 99 98 100 102 100 96 86 86 96 92 91 91 89
78 79 81 85 85 84 79 79 82 85 85 85 90 96 95 97 102 104 107 110 112 109 103 114 115 107 102 94 77 74 81 74 77 80 81 86 88 81 78 93 92 98 103 105 98 95 94
82 84 82 87 87 84 87 93 88 90 91 90 90 97 102 104 105 107 114 111 109 109 97 115 108 101 95 86 71 71 66 63 71 70 77 76 64 64 81 85 88 93 99 96 95 97 96
83 89 89 89 90 93 89 88 91 96 92 93 100 103 105 106 109 114 118 115 116 112 108 102 97 94 80 72 63 64 55 59 62 65 66 63 59 72 73 75 82 84 89 95 96 99 96
88 91 93 93 91 88 97 95 92 94 96 101 102 103 107 111 117 119 120 113 113 112 103 93 75 73 66 64 53 56 48 52 53 55 58 56 63 60 62 64 70 70 81 93 102 101 97
89 93 92 96 96 89 93 94 97 95 103 99 100 103 108 117 121 116 112 114 112 106 98 83 75 65 59 54 46 50 46 46 48 50 50 49 51 52 54 59 64 68 77 88 93 95 100
95 99 99 101 97 94 96 95 96 96 95 103 104 110 113 119 110 111 114 112 108 100 88 77 68 59 56 47 39 41 41 41 43 42 42 45 47 48 53 54 54 66 75 79 83 86 90
94 89 90 94 93 92 90 90 95 99 102 102 106 113 121 114 110 111 111 108 102 89 78 71 61 52 48 39 34 32 32 35 37 37 36 39 42 45 47 48 52 57 64 72 78 82 81
94 93 90 92 93 98 98 97 103 100 101 105 113 117 110 108 109 110 105 100 91 80 73 61 51 44 36 33 29 27 27 31 32 37 39 39 40 41 42 43 45 48 53 60 65 72 81
98 98 92 94 92 94 101 101 99 101 109 108 113 106 106 108 105 104 99 89 83 75 64 53 43 36 29 27 24 22 23 27 32 35 35 40 42 40 39 41 42 43 44 54 59 64 78
95 94 98 101 100 103 100 102 103 106 111 109 111 108 108 104 100 96 89 85 77 67 55 44 36 33 26 23 19 17 22 26 31 32 34 37 37 38 37 37 38 37 41 47 47 51 64
100 96 97 99 100 101 102 107 114 113 113 112 108 102 99 96 90 86 84 79 70 58 48 38 32 30 25 21 19 20 26 28 28 27 32 37 37 36 35 34 38 39 41 40 42 52 58
98 97 99 98 102 106 106 105 107 110 108 102 94 91 89 85 81 79 78 71 61 52 42 33 30 26 22 18 20 23 27 29 31 34 37 37 36 37 35 36 39 44 45 44 37 37 43
103 104 94 90 94 98 104 102 99 101 99 88 86 84 81 76 76 77 69 64 53 46 36 28 23 21 19 18 20 25 30 31 33 35 39 44 44 41 37 37 44 47 48 44 42 42 51
102 101 98 98 98 96 92 95 94 89 88 80 79 79 74 71 73 70 60 58 49 40 30 26 21 15 15 19 23 28 33 38 38 42 47 47 45 41 40 42 45 51 55 54 50 48 48
94 95 92 94 91 84 87 89 86 85 78 77 77 73 68 69 69 63 54 53 44 35 27 20 20 15 18 22 27 34 37 35 40 45 50 51 49 45 44 43 44 44 50 61 64 59 60
88 87 91 88 87 87 85 81 80 76 74 75 71 67 65 67 65 56 49 49 41 32 25 19 19 18 18 20 24 31 32 40 44 49 54 54 53 52 47 45 45 45 43 42 47 54 56
82 84 83 84 83 79 79 75 73 74 72 68 67 63 63 62 59 50 46 45 37 29 24 20 17 20 19 21 23 25 31 40 44 50 56 59 58 56 52 50 51 52 52 52 54 52 51
81 82 86 81 78 76 71 71 75 72 67 64 64 62 58 57 55 48 45 42 36 27 23 21 19 22 23 22 23 26 34 40 42 50 53 58 63 63 60 57 54 54 53 54 53 53 53
85 85 82 78 76 73 68 70 68 64 63 62 63 60 55 53 51 47 44 40 33 25 23 21 19 24 26 25 27 30 36 41 43 49 54 56 60 61 61 58 58 56 53 54 55 57 55
86 85 80 77 75 74 70 68 63 63 64 62 62 56 51 50 49 47 42 37 32 24 23 22 20 25 30 29 30 33 36 38 39 41 49 54 58 57 59 61 59 58 58 59 58 57 56
86 83 84 77 74 74 70 69 68 68 65 64 57 54 50 49 49 47 41 35 30 22 24 23 24 29 34 33 33 34 35 36 38 39 44 48 51 46 51 55 58 60 60 60 59 57 56
89 84 79 76 73 73 71 70 69 68 66 60 54 51 50 49 49 43 40 33 27 23 22 24 27 32 36 38 38 38 36 37 37 40 42 45 48 44 47 52 58 59 60 61 58 54 53
79 80 78 76 74 74 70 70 68 67 62 56 51 52 52 50 48 41 38 30 25 22 22 25 29 34 38 41 40 40 39 39 41 43 44 44 45 46 47 50 51 55 56 55 52 50 49

GFSGBSN_250_spd_102.txt.gz
Wind_Speed
56 56 64 70 71 69 63 63 64 68 73 69 66 71 76 69 78 76 76 80 80 83 87 89 85 81 77 82 87 92 91 101 101 98 92 90 94 102 102 104 104 103 84 89 86 87 84
57 63 67 70 69 68 65 65 63 67 73 77 73 75 76 72 77 85 86 89 92 90 90 84 85 84 78 78 90 84 89 92 91 95 96 97 97 99 105 106 105 102 101 93 92 88 87
66 70 68 70 67 71 67 65 71 70 71 74 78 75 81 81 82 85 88 91 93 94 94 97 92 83 85 89 90 92 95 92 96 97 100 99 100 107 102 107 104 108 110 104 98 89 88
69 71 70 69 68 73 68 70 71 74 76 77 81 84 82 84 86 85 84 93 94 100 93 97 93 92 88 96 98 98 95 97 98 99 98 95 99 102 101 101 111 113 113 110 95 93 93
72 73 72 73 75 74 74 76 76 78 76 79 79 84 81 82 86 89 85 86 87 89 91 97 101 101 96 102 103 101 95 96 97 96 95 97 100 103 102 101 102 108 109 103 98 103 100
77 69 73 81 79 74 75 74 74 74 78 79 87 87 84 90 93 93 95 91 94 95 95 104 107 111 106 109 104 100 100 101 98 96 98 96 103 105 101 100 98 94 99 100 96 105 104
78 76 79 79 80 73 74 74 77 78 86 84 85 85 89 95 97 96 101 99 101 102 103 108 113 108 103 108 99 98 101 87 81 79 81 91 97 84 79 91 92 92 97 95 96 98 105
73 77 82 82 78 77 79 81 80 81 82 86 91 94 97 97 99 96 101 105 108 109 103 115 113 111 104 104 99 100 93 85 73 68 74 80 81 71 76 80 81 85 90 93 83 84 98
78 78 77 79 82 84 87 85 88 92 91 95 98 98 98 99 99 100 101 111 113 108 115 123 104 98 104 92 86 77 81 77 67 61 69 69 69 71 71 71 71 74 78 75 78 87 91
77 81 79 83 82 84 86 87 89 93 96 96 96 97 100 102 98 105 110 113 114 114 122 123 110 94 99 76 66 64 64 63 61 56 59 56 63 65 64 62 64 64 61 69 73 82 89
80 85 84 83 78 84 88 90 89 92 97 98 103 101 97 103 104 103 113 112 119 120 126 116 102 94 78 69 61 52 54 51 50 47 43 50 51 51 51 50 56 53 60 67 74 74 88
82 82 79 81 80 85 87 92 96 100 99 94 98 98 97 107 106 106 114 119 119 128 127 108 94 85 73 61 52 48 45 40 40 37 39 39 42 40 40 47 48 58 55 55 63 69 77
84 79 76 78 82 87 89 88 89 89 93 97 94 98 105 104 110 115 118 121 130 131 119 102 91 76 64 53 45 39 33 31 30 31 34 35 34 36 38 41 44 47 45 48 52 58 61
83 79 76 79 79 84 86 87 90 92 97 99 93 101 105 108 110 119 115 125 122 127 114 95 81 69 59 45 38 30 26 26 24 23 24 30 30 29 34 35 40 42 40 38 43 51 58
81 80 79 80 88 84 86 92 93 97 98 100 98 98 109 112 110 113 121 120 117 113 100 84 74 66 52 40 32 25 23 21 18 20 23 26 27 28 28 32 34 33 30 37 42 47 53
82 84 83 78 80 86 86 90 91 95 95 98 104 100 103 108 114 118 114 116 113 101 89 74 69 57 43 35 27 22 20 17 15 15 17 20 26 26 29 31 32 32 36 35 37 45 54
81 78 87 85 82 84 85 85 89 95 99 102 103 104 107 115 117 114 117 107 99 90 80 72 64 50 38 32 23 20 20 12 12 17 19 19 21 27 29 31 32 30 28 32 35 39 47
79 83 87 87 81 86 86 90 90 95 100 102 104 105 109 112 109 114 105 101 89 81 71 68 57 42 33 26 16 15 15 15 22 22 19 20 24 28 30 32 34 30 27 27 32 30 35
85 79 85 91 95 96 98 96 95 99 104 100 105 107 106 108 105 102 97 85 77 70 66 62 49 37 28 19 9 11 13 19 23 24 27 29 28 28 28 26 32 40 38 27 25 35 42
80 85 85 91 95 96 96 99 99 100 101 106 103 105 101 102 98 91 80 70 69 65 63 53 43 31 24 15 7 12 20 23 23 26 31 34 34 32 34 31 33 39 40 33 39 39 46
78 80 77 78 78 83 86 93 92 97 99 95 98 98 97 88 83 75 66 63 64 63 57 45 38 29 20 13 11 17 20 24 27 31 34 35 37 36 37 32 37 46 46 44 45 41 46
85 83 82 83 83 89 92 97 98 93 97 95 86 82 84 77 73 65 59 61 63 61 50 39 35 27 19 14 14 16 24 27 31 37 40 39 39 39 43 38 42 47 53 46 50 50 46
82 83 80 82 83 83 84 80 83 86 83 83 81 77 69 65 61 57 58 60 61 56 45 35 31 26 20 17 19 19 27 32 36 43 45 49 48 48 45 41 41 45 53 48 49 49 48
82 82 81 84 80 81 81 82 83 78 78 77 72 64 62 59 57 57 57 60 60 51 41 32 27 25 25 19 21 21 26 34 40 47 50 50 52 53 47 46 45 46 50 53 56 60 57
85 85 82 82 80 82 81 85 80 76 75 74 68 63 65 62 60 56 58 60 57 47 38 31 28 25 26 24 25 28 30 37 42 47 52 54 56 53 51 51 49 49 49 49 48 48 55
84 80 80 81 82 79 79 80 77 77 75 76 66 64 63 62 59 56 58 58 53 43 35 28 28 25 26 28 30 33 35 36 42 46 50 55 56 57 55 53 52 54 52 51 50 50 47
83 81 80 81 81 80 79 77 78 76 78 71 66 63 63 61 58 58 59 54 47 40 32 28 27 27 27 31 32 36 39 41 45 47 48 51 58 57 56 55 55 54 53 52 53 54 55
86 86 81 81 79 80 79 81 80 80 81 71 66 62 63 59 57 60 59 48 43 37 30 26 28 28 28 31 35 39 40 41 43 45 47 48 48 53 52 56 59 58 56 56 55 55 55
86 88 83 86 87 84 86 83 82 79 74 64 65 65 62 60 61 61 53 46 38 34 28 26 28 29 29 32 39 40 42 42 44 44 43 46 50 50 45 45 51 57 58 58 58 59 60

GFSGBSN_250_spd_105.txt.gz
Wind_Speed
57 55 60 56 58 57 54 55 55 63 67 68 66 63 63 69 68 71 75 79 78 74 70 70 74 75 80 81 94 95 86 90 90 91 87 82 80 84 84 88 97 104 95 96 87 98 99
57 59 57 56 55 55 55 56 61 62 67 66 67 65 68 72 69 69 68 67 68 73 74 78 80 81 79 83 92 89 92 93 93 98 89 93 88 96 89 92 92 94 98 95 92 90 87
58 57 57 57 55 56 58 63 64 67 64 67 70 69 69 71 69 75 75 75 76 76 79 82 83 85 84 89 84 87 97 96 94 97 93 90 96 103 101 100 94 93 100 98 91 83 87
63 63 61 62 62 61 64 68 68 68 66 67 69 73 72 73 78 81 82 83 84 84 82 87 85 84 77 80 85 88 88 88 94 93 95 96 101 104 103 99 94 100 105 101 85 89 89
69 68 67 65 67 67 67 72 75 71 69 69 74 74 75 76 73 73 81 82 86 87 92 90 92 88 92 95 96 94 90 88 91 94 97 102 105 106 100 97 101 100 102 101 88 87 88
75 74 68 65 71 71 72 74 76 73 71 77 75 77 80 72 71 81 81 80 85 84 93 99 102 102 104 105 102 103 105 101 102 101 103 105 104 106 98 102 102 96 106 104 100 85 92
74 76 73 70 71 75 77 77 72 73 77 80 74 75 78 80 86 84 77 83 89 93 103 104 107 108 106 109 108 109 108 110 112 104 96 95 96 92 92 97 103 99 102 102 102 91 102
84 84 84 75 75 75 78 79 82 81 78 78 75 78 81 84 86 84 88 91 96 98 99 106 107 109 112 111 103 113 114 105 96 95 90 85 80 84 83 80 91 91 89 87 91 95 98
91 91 87 86 81 80 81 81 81 80 78 78 78 82 85 88 88 91 94 96 95 99 104 109 114 117 116 108 108 100 99 88 82 75 77 71 72 67 67 71 77 76 73 74 78 81 83
93 93 89 88 82 81 81 82 80 75 75 80 83 86 85 89 93 95 95 99 103 107 110 113 121 117 112 104 115 96 78 70 72 67 64 64 62 57 58 59 61 61 64 67 67 66 70
93 92 86 85 81 79 80 82 75 79 73 74 80 85 86 90 95 95 98 103 104 104 109 116 121 119 114 106 83 86 66 67 59 55 54 52 51 48 48 50 49 56 55 54 53 56 58
79 79 79 77 74 74 77 77 78 72 67 74 81 83 86 90 93 94 93 100 105 106 107 118 125 121 115 110 88 74 64 52 47 45 41 40 37 39 37 37 41 42 42 43 50 49 49
61 74 71 73 67 72 75 75 74 74 73 73 74 81 83 84 87 92 95 99 102 107 115 123 124 121 111 98 78 67 54 43 41 34 32 28 30 34 34 30 28 25 36 36 37 35 41
76 78 69 66 72 74 73 71 69 70 69 70 75 81 85 85 90 97 97 99 105 110 118 124 118 112 96 83 72 56 43 37 30 28 25 24 27 29 27 27 29 34 33 32 36 37 46
79 74 68 66 67 69 69 73 73 75 70 72 78 81 83 88 91 94 98 101 105 111 121 121 117 108 89 73 57 45 37 28 23 25 22 19 18 21 23 22 22 24 27 32 36 37 38
71 75 66 61 67 70 70 71 77 79 72 72 74 81 86 86 90 96 98 103 111 116 122 118 110 87 75 62 49 38 32 20 17 14 12 10 12 17 21 20 23 23 26 32 34 34 29
71 69 69 63 68 70 70 72 69 75 75 77 80 83 86 90 89 93 100 107 115 118 114 112 100 76 63 53 42 34 25 13 11 10 8 5 11 17 18 21 24 30 32 34 36 33 31
70 72 67 62 70 69 66 72 74 77 78 79 81 83 88 88 95 100 106 109 110 111 110 105 87 69 53 49 36 30 18 12 11 11 16 14 16 18 21 24 29 32 35 36 36 35 33
71 70 67 72 75 74 76 70 69 72 73 72 79 86 91 94 98 102 105 105 106 106 101 88 74 59 50 44 31 26 15 13 15 16 16 18 21 25 28 30 33 34 34 35 31 34 38
63 67 67 68 70 67 69 69 72 74 78 82 86 89 92 94 95 96 94 94 92 93 86 75 63 52 49 39 27 24 17 16 19 19 22 24 26 30 37 37 34 38 37 31 28 31 34
71 70 71 66 65 68 66 71 74 73 76 78 79 83 89 92 88 87 83 91 85 79 69 63 55 48 47 35 22 19 16 20 22 25 28 29 33 36 41 38 32 29 36 38 35 34 36
69 66 66 65 69 65 69 72 68 71 72 76 79 80 84 83 84 80 87 81 75 65 59 56 52 48 43 31 20 17 19 23 25 27 30 32 34 40 42 45 43 44 45 46 43 40 44
71 69 68 68 67 67 67 67 70 70 75 77 82 83 82 83 82 87 81 75 65 60 54 51 49 49 42 28 20 21 23 27 31 31 34 37 41 43 44 45 46 42 42 48 43 35 37
73 69 68 66 67 69 69 76 75 79 82 85 85 84 81 81 81 75 68 64 59 56 52 46 47 48 40 26 22 21 25 31 35 38 40 41 43 47 44 42 40 39 38 38 37 37 34
70 71 70 72 71 74 78 78 83 82 80 75 79 81 79 75 76 72 66 62 58 54 48 47 46 45 38 27 23 21 27 33 37 43 46 45 45 48 52 47 45 46 45 50 47 42 41
70 72 75 73 74 77 78 76 75 75 76 78 79 79 75 75 73 67 63 57 54 52 46 47 45 42 35 29 23 23 34 37 40 47 48 49 51 50 49 51 49 47 46 46 54 50 47
78 76 75 76 79 81 80 74 72 77 77 79 72 76 69 70 72 68 63 56 53 51 48 46 43 39 32 29 24 27 37 43 46 47 53 54 54 52 51 52 51 48 47 48 52 60 54
77 78 78 75 75 77 75 76 75 75 77 75 74 72 74 75 74 64 61 56 54 49 50 44 38 36 30 27 27 28 35 47 49 50 48 56 57 56 55 55 55 51 49 49 50 52 54
79 77 80 75 72 74 72 70 71 71 76 75 71 76 75 74 70 67 59 55 53 51 46 38 35 32 29 26 28 29 31 47 49 50 50 52 57 59 59 58 55 56 56 54 52 53 53

GFSGBSN_250_spd_111.txt.gz
Wind_Speed
73 76 71 73 71 72 67 62 61 64 67 66 62 57 61 65 66 65 65 62 59 60 64 66 66 64 65 68 65 66 68 66 68 68 67 71 74 76 79 78 85 89 84 86 85 81 84
71 68 64 65 62 63 64 59 54 56 60 60 58 57 55 57 60 62 66 64 62 61 64 65 66 67 68 67 64 67 68 70 73 76 78 81 82 84 81 86 93 93 94 89 82 88 85
71 67 67 63 62 60 61 56 55 54 56 55 53 52 54 55 55 54 56 61 62 65 65 68 69 70 70 71 74 76 74 75 76 76 82 83 83 85 90 89 92 89 97 94 85 86 97
78 74 68 66 66 61 59 58 59 57 57 60 60 59 59 60 59 59 62 60 63 67 67 68 70 73 73 75 77 79 78 79 78 82 80 80 86 87 87 99 96 101 104 94 83 98 97
79 79 75 73 72 70 68 67 66 65 63 62 62 64 65 63 64 66 65 67 66 69 71 72 72 75 75 78 85 83 78 77 82 88 87 92 92 95 101 108 100 95 104 110 101 102 106
91 84 85 78 79 79 80 78 73 72 69 68 68 67 67 64 65 66 69 72 71 74 75 75 78 81 82 79 84 85 80 82 88 90 92 95 97 103 109 105 109 116 114 114 114 100 112
98 95 91 89 87 85 86 82 83 77 74 74 72 71 69 67 71 72 74 77 79 78 80 81 82 83 85 86 89 89 87 88 94 94 96 100 102 106 109 116 116 110 115 112 109 109 101
104 101 97 98 94 91 89 87 82 80 79 77 75 74 75 73 75 77 77 78 80 81 85 86 90 89 87 89 89 93 93 97 97 97 103 102 103 113 116 102 101 100 103 97 91 88 82
110 108 106 105 104 102 96 91 90 84 84 83 81 81 80 80 77 79 72 78 82 82 84 87 88 88 82 88 92 93 92 92 97 102 104 101 111 114 96 90 88 82 82 79 72 74 65
115 113 115 111 111 107 101 95 91 85 89 84 81 83 81 78 76 75 79 86 84 85 85 84 84 85 86 89 88 91 95 99 101 106 104 111 101 81 78 76 70 66 63 63 61 58 57
119 120 117 112 107 107 102 97 92 88 88 86 82 83 84 81 78 77 84 82 82 83 83 77 77 78 81 86 89 96 97 102 108 106 112 99 76 71 65 62 56 48 48 47 46 47 43
118 118 115 114 109 104 96 96 91 88 86 89 85 88 87 81 77 78 82 81 82 80 77 77 76 77 80 89 92 95 100 105 106 111 102 80 71 62 53 50 44 41 35 35 36 36 34
118 119 116 114 108 102 95 95 92 91 88 89 87 85 84 81 77 79 80 77 72 69 70 71 75 76 78 88 93 94 102 106 109 100 80 69 63 52 44 41 35 29 24 22 25 24 25
99 108 106 108 107 103 101 99 95 91 91 88 85 80 78 80 74 72 64 61 62 62 63 67 72 73 76 84 95 98 104 108 100 82 64 59 56 43 38 31 26 19 18 17 18 21 21
81 82 87 98 99 106 103 100 96 92 92 89 83 80 73 77 71 63 60 61 58 59 63 66 67 69 81 88 94 99 100 96 88 67 54 51 44 38 32 26 20 17 15 13 17 17 18
61 67 77 84 84 93 99 97 95 93 94 86 85 78 73 74 69 67 60 61 59 57 61 62 69 76 81 89 94 93 90 94 74 59 51 43 35 34 29 23 19 13 10 9 11 15 22
56 60 64 67 75 84 90 92 94 92 90 86 85 75 77 79 75 62 60 57 55 55 62 65 70 76 80 86 88 91 89 80 62 53 47 31 26 26 24 20 16 12 11 12 14 17 22
47 53 56 61 69 72 81 87 85 88 87 85 82 79 78 67 59 58 58 57 56 59 61 64 70 74 78 87 85 92 81 65 52 48 39 28 22 22 22 21 18 14 12 16 19 23 25
41 43 46 51 54 59 62 66 71 77 77 76 80 72 60 59 61 60 52 52 54 59 61 65 70 74 78 80 88 92 75 59 47 42 30 24 19 21 24 22 18 16 17 20 26 26 28
28 35 36 38 43 50 56 62 64 67 70 66 66 58 53 59 58 51 48 50 53 58 63 68 69 71 75 83 87 88 62 51 42 36 23 20 19 21 21 21 22 22 25 28 29 32 33
39 34 38 44 46 49 54 57 60 65 64 61 57 49 52 54 52 49 51 54 58 59 63 66 67 71 78 82 82 75 57 44 37 31 18 18 19 21 21 23 24 30 28 31 31 34 35
49 45 47 52 54 53 56 58 65 62 52 50 48 49 50 45 46 51 51 53 57 59 59 64 65 73 77 79 77 68 51 41 35 27 18 19 20 24 25 27 28 34 36 39 35 39 37
55 55 50 50 54 57 54 54 49 49 49 50 50 52 51 45 46 48 50 53 56 56 58 64 68 73 74 73 69 61 48 40 32 26 20 20 24 28 31 30 37 39 43 44 40 39 38
58 56 55 54 56 57 50 49 46 47 48 53 56 54 49 45 48 51 51 54 56 59 62 65 69 73 69 67 61 54 43 37 29 25 23 23 27 35 37 40 48 47 45 43 43 41 40
60 59 56 56 55 54 46 46 48 49 54 49 46 46 48 50 51 48 51 56 58 62 66 66 68 65 68 61 56 47 40 34 27 25 27 26 33 39 44 45 53 53 50 51 47 46 47
64 57 58 58 57 53 49 48 51 54 53 51 47 49 53 52 52 53 55 57 59 63 62 66 66 67 60 57 53 45 40 30 28 26 30 31 37 42 46 50 54 53 52 52 49 50 49
66 63 59 58 56 55 51 53 52 51 49 50 48 47 49 51 51 50 54 58 63 61 61 63 63 57 57 54 50 42 37 31 30 29 32 34 40 45 48 52 55 55 52 51 48 48 46
64 60 57 59 58 53 51 50 48 49 51 50 51 51 49 49 50 51 56 60 61 64 63 64 66 59 55 52 47 42 37 32 31 32 34 37 41 45 51 53 54 52 53 52 51 46 45
63 57 53 53 52 49 47 47 51 52 54 52 52 52 49 48 53 55 58 60 61 64 63 69 63 58 54 49 44 41 38 33 32 34 37 40 44 50 53 56 56 57 57 56 56 51 47

GFSGBSN_250_spd_114.txt.gz
Wind_Speed
88 85 81 77 72 71 73 74 71 67 63 62 57 60 61 57 57 60 62 59 58 64 65 65 67 65 62 66 69 73 75 74 74 74 74 74 75 76 72 70 71 76 69 70 73 74 79
95 88 87 79 76 70 70 67 64 63 57 57 57 58 56 53 56 58 60 58 59 56 59 61 63 64 62 62 63 66 70 71 73 74 74 75 76 77 78 80 82 84 84 83 86 92 92
90 91 85 81 72 71 67 68 68 61 59 57 54 54 54 52 55 56 54 54 53 56 58 57 58 61 62 64 69 67 67 68 71 75 78 82 85 85 86 86 86 92 87 82 82 95 97
89 84 83 81 75 73 73 70 70 67 62 61 57 59 56 53 56 58 60 61 60 63 62 62 62 65 64 68 70 69 71 74 77 79 81 84 87 90 94 94 91 90 87 89 86 92 94
94 94 93 88 87 79 77 71 74 73 73 66 64 65 67 64 62 63 64 64 65 67 67 67 66 66 68 71 72 70 71 75 79 83 85 86 87 89 93 95 91 97 101 100 81 92 95
95 100 98 96 92 89 85 82 75 77 76 73 69 68 71 71 74 71 69 68 70 70 71 71 71 73 73 74 77 73 74 78 82 85 89 92 92 94 98 102 98 99 100 94 93 95 107
102 104 104 102 100 93 94 88 85 80 82 81 79 75 72 73 73 77 74 71 71 71 74 75 77 74 74 74 76 76 81 86 87 90 87 88 91 95 96 101 102 94 98 100 97 100 111
110 111 108 107 106 102 95 95 90 88 86 86 85 81 81 81 79 77 76 77 77 78 79 80 81 80 78 77 82 81 84 85 87 88 88 89 90 94 97 100 103 106 99 98 98 101 104
120 118 116 113 113 110 106 97 98 93 91 90 89 86 85 84 81 84 80 82 82 81 79 81 80 80 79 81 80 80 86 88 86 85 86 88 91 97 96 104 93 88 94 91 94 85 88
126 126 124 121 119 115 112 109 102 99 97 94 95 92 90 91 88 86 83 83 83 81 81 81 82 80 79 79 82 82 82 80 81 82 84 88 93 99 103 90 78 75 76 74 72 67 67
131 130 127 127 123 122 117 114 107 107 100 101 98 96 96 92 88 86 83 83 83 84 84 82 82 82 79 81 83 78 75 77 77 82 84 91 94 99 89 75 68 63 60 58 56 53 53
127 129 128 128 129 126 122 118 113 113 108 104 99 99 98 92 88 85 83 86 85 84 82 79 79 81 82 80 74 72 72 74 79 83 85 89 86 85 75 65 60 53 48 44 43 43 44
119 117 116 117 120 117 121 119 119 118 114 105 102 102 98 93 86 80 85 87 84 85 81 74 75 77 76 73 69 68 71 75 80 82 87 90 87 75 64 59 52 44 36 33 31 28 27
91 95 99 100 106 108 111 112 115 117 110 106 105 100 94 90 81 83 85 85 83 78 77 73 74 73 73 67 65 69 71 76 79 83 84 82 77 65 60 51 44 32 27 26 24 22 20
73 75 76 77 81 89 96 104 108 107 106 100 97 92 90 83 81 84 83 81 81 74 74 75 69 71 69 64 59 66 71 77 78 83 81 80 66 57 53 45 34 26 24 23 22 22 22
62 66 67 67 71 80 80 88 96 103 102 99 94 90 88 86 84 82 85 82 80 78 73 70 67 72 64 58 61 67 74 77 83 82 85 73 59 52 46 38 26 21 20 22 19 19 18
56 56 55 58 61 64 73 76 85 90 94 95 95 91 89 86 83 83 82 82 79 75 72 69 70 63 57 57 64 70 74 79 81 82 80 61 50 47 40 28 20 20 20 20 19 16 15
48 48 49 52 54 58 60 67 71 77 82 92 87 87 86 86 87 81 80 81 73 73 69 65 60 56 51 56 65 70 75 78 79 82 69 51 45 41 32 22 19 19 19 19 17 15 12
42 44 45 45 47 47 51 54 62 72 76 84 80 87 89 86 84 80 77 74 68 70 65 61 56 50 50 57 64 70 74 76 81 74 59 45 40 36 27 21 21 20 19 21 21 14 12
36 38 39 40 43 43 42 48 56 58 68 74 80 84 82 83 78 79 72 67 66 67 61 55 51 48 53 57 64 68 73 79 77 66 51 41 34 30 20 19 20 20 19 18 16 13 17
32 30 30 33 36 37 42 43 44 49 56 64 69 69 72 77 77 67 62 60 59 55 53 50 47 46 54 58 59 66 73 79 72 58 45 36 29 25 17 21 22 23 19 19 17 22 25
27 29 29 33 31 35 34 35 35 38 40 42 43 50 55 57 61 51 43 44 47 48 47 46 45 48 55 57 61 68 74 77 66 51 41 33 27 19 18 22 25 26 23 24 25 29 33
20 25 27 29 34 26 26 32 39 41 43 44 45 45 44 42 42 43 45 43 44 42 41 43 45 50 55 59 63 64 68 70 60 47 39 31 25 19 24 25 31 28 31 28 31 33 39
31 24 27 34 33 30 31 36 41 41 43 46 46 45 38 38 41 44 40 41 42 39 42 43 49 52 54 57 61 63 69 67 58 43 37 29 25 23 26 30 37 34 33 30 34 35 40
53 53 38 32 36 44 48 43 34 33 40 44 45 42 39 39 39 40 39 42 43 42 42 47 51 53 55 59 61 63 69 62 55 41 36 29 26 27 27 35 36 43 38 38 39 37 46
56 51 46 46 49 45 42 39 35 36 49 43 39 34 36 38 39 41 43 42 41 43 45 49 53 53 56 60 59 63 64 55 47 41 35 30 27 31 30 36 47 45 45 40 37 43 40
61 63 50 49 42 42 36 36 40 39 40 38 36 38 39 41 39 36 38 39 41 44 47 50 52 54 56 57 61 61 59 49 40 42 34 32 28 33 34 36 45 49 51 49 44 42 45
64 62 46 45 43 41 37 41 44 40 40 34 35 36 38 37 35 36 38 39 43 46 48 49 51 56 57 60 59 61 57 47 37 39 35 31 33 33 40 40 44 51 53 52 53 48 44
61 55 50 46 46 43 43 39 40 42 41 39 38 40 39 35 35 37 38 43 45 49 48 49 51 54 58 59 63 61 54 47 37 36 36 34 35 35 41 41 52 54 55 53 55 57 52

GFSGBSN_250_spd_117.txt.gz
Wind_Speed
78 78 78 81 77 79 81 83 83 81 81 75 71 66 66 59 59 56 49 49 50 49 52 52 53 54 53 52 54 53 55 55 57 59 61 65 66 67 67 69 71 73 77 77 77 77 74
84 83 83 84 86 86 84 82 84 74 73 69 66 62 59 59 61 55 50 50 51 53 53 55 53 54 53 51 54 54 52 56 58 62 64 65 66 69 70 73 74 75 76 77 77 79 80
85 92 89 91 95 92 85 85 81 70 70 66 63 59 61 58 58 54 50 46 48 51 53 55 56 55 54 54 55 56 58 60 60 62 65 67 72 75 77 79 80 81 80 81 85 85 91
91 90 95 91 95 93 89 88 86 79 75 72 71 68 68 64 62 62 60 56 56 55 53 54 59 63 63 63 61 60 60 61 64 66 71 74 77 80 80 81 82 84 85 85 88 90 100
101 99 98 96 102 96 98 93 87 83 78 76 75 72 70 66 67 69 62 63 61 60 62 62 61 63 65 68 69 65 66 67 70 72 71 76 79 81 82 82 83 87 85 86 86 94 103
108 106 103 105 103 102 100 96 93 91 85 81 80 77 75 71 70 69 71 67 67 64 65 62 62 66 67 70 71 68 69 71 73 77 78 77 79 82 85 87 87 89 90 89 89 90 101
111 112 112 113 109 105 107 102 100 93 93 88 84 83 78 78 74 75 72 74 73 72 69 70 68 68 71 74 74 74 74 74 75 77 80 84 83 83 85 85 86 87 87 84 81 89 94
115 119 114 118 113 109 107 105 104 100 98 95 91 90 87 81 81 79 78 76 79 77 76 72 74 73 77 79 80 77 79 77 80 82 83 82 81 81 79 76 75 82 81 85 75 84 90
125 124 126 121 117 112 111 107 105 107 104 101 99 97 94 89 83 84 83 82 81 80 80 80 78 76 79 80 80 81 81 79 81 81 82 78 75 74 73 76 75 81 81 81 78 73 84
132 130 127 126 124 116 114 115 114 108 108 107 104 102 99 95 90 90 87 85 84 82 83 82 80 77 80 80 79 81 82 82 85 84 80 74 73 72 76 77 79 82 80 76 74 67 71
129 126 126 126 127 125 121 119 120 118 112 111 112 108 103 102 95 94 94 87 89 88 85 84 81 79 81 81 79 80 82 85 81 80 74 75 70 72 75 78 77 77 72 67 64 61 59
127 126 125 128 127 126 124 124 126 123 122 118 116 115 108 108 99 100 98 94 90 89 85 83 82 81 81 80 80 81 82 81 80 76 76 69 67 68 76 74 72 66 60 57 52 51 50
124 128 127 122 125 126 125 126 123 124 123 126 122 119 113 110 106 105 100 97 95 89 89 82 79 83 80 80 81 81 80 79 78 73 71 73 67 71 75 71 66 56 52 46 46 44 39
108 108 110 111 110 113 114 117 116 116 118 123 122 124 115 115 111 108 106 102 98 95 92 87 81 82 78 81 81 79 79 78 73 70 67 67 74 73 76 66 56 49 43 39 38 33 32
87 90 90 85 80 81 86 93 98 103 105 108 112 117 117 116 112 109 106 106 98 93 91 86 81 79 79 79 79 76 77 76 67 66 64 66 77 73 69 57 49 42 36 32 26 26 29
79 79 80 71 67 65 68 71 75 78 81 86 93 96 107 102 99 99 104 96 91 86 87 81 78 77 78 78 78 75 73 66 65 62 65 67 67 74 59 49 42 35 33 27 20 22 24
73 71 64 53 49 57 62 63 65 67 68 70 79 88 96 91 85 92 91 86 85 84 84 77 72 78 79 77 75 70 66 64 63 64 64 67 72 69 50 45 38 30 27 20 18 19 21
62 57 56 55 58 61 62 60 63 63 62 65 67 73 78 83 84 83 81 81 83 80 77 74 71 72 74 72 71 67 62 62 63 64 64 69 71 60 47 39 32 23 20 15 15 17 15
59 58 57 52 53 54 53 56 56 51 53 60 63 63 70 77 78 75 78 80 81 77 74 72 71 70 70 69 67 64 58 57 58 59 67 71 67 55 45 37 29 19 14 11 11 14 17
45 45 45 45 49 51 49 50 45 47 53 55 56 61 60 64 63 67 71 74 78 74 69 70 68 68 66 62 58 54 54 54 55 61 66 73 63 48 42 34 28 18 11 10 5 17 23
41 41 42 43 44 43 43 42 47 48 48 51 52 49 49 50 53 56 60 65 71 71 70 67 66 65 58 54 53 52 51 52 59 63 68 68 61 45 38 32 25 19 12 8 3 21 27
38 36 36 39 38 42 43 44 44 42 42 39 38 33 32 39 43 50 54 57 59 58 62 64 61 49 45 46 47 45 48 54 58 63 69 65 57 42 35 29 25 22 15 11 6 24 29
31 31 31 31 34 34 36 37 34 34 37 34 33 37 38 37 36 38 42 45 45 46 48 45 39 38 40 42 43 44 48 54 59 64 66 62 49 37 32 29 27 26 21 16 13 26 32
24 23 27 29 33 36 40 39 37 33 33 37 38 37 36 35 34 34 33 36 36 33 31 33 35 33 37 40 42 46 51 54 55 61 61 56 43 36 30 28 28 30 26 25 22 24 35
31 34 32 36 39 41 40 35 37 36 36 37 38 41 38 36 30 30 32 30 26 26 32 34 32 37 38 40 44 49 51 53 55 58 60 53 42 37 30 28 31 33 34 31 31 29 36
47 39 39 41 46 41 42 41 42 38 38 40 44 43 45 41 37 37 35 31 29 34 33 31 34 37 37 42 47 49 52 54 55 54 61 51 43 36 32 27 32 34 40 37 36 34 32
36 44 42 34 39 39 36 33 33 33 35 38 41 41 43 40 36 27 24 27 29 30 30 33 34 35 40 44 47 51 52 57 56 56 54 49 43 37 33 30 33 40 44 47 39 32 37
37 43 37 32 38 32 30 27 28 31 31 37 40 42 37 33 30 28 31 32 31 31 29 31 33 37 42 46 49 52 55 56 58 55 49 45 43 39 33 32 33 42 46 52 46 42 37
38 39 37 33 35 27 28 28 30 31 30 37 36 33 32 30 27 32 31 29 27 26 28 32 37 41 44 49 51 53 54 57 58 53 46 43 40 41 34 34 34 39 50 50 50 42 44

GFSGBSN_250_spd_120.txt.gz
Wind_Speed
70 70 73 77 76 79 74 73 76 72 71 72 74 72 74 68 67 70 61 60 57 57 54 49 47 45 43 42 43 43 45 47 48 47 46 47 49 52 54 58 61 63 66 69 70 72 74
76 77 78 81 77 77 79 76 78 75 73 69 74 74 70 69 65 67 59 59 61 54 55 52 46 45 46 45 44 45 47 48 48 50 50 51 54 54 56 62 64 67 70 73 76 78 79
78 82 83 82 84 78 82 83 80 79 77 78 78 78 75 73 69 66 66 61 63 63 56 54 54 51 48 45 47 50 50 52 55 56 55 56 58 59 61 63 66 70 72 77 79 86 88
86 86 85 86 82 85 85 84 84 89 84 85 84 82 84 78 73 70 71 66 63 61 60 61 61 59 59 57 54 55 56 56 58 59 58 61 63 66 68 69 71 75 77 81 84 93 95
98 95 89 86 87 92 92 89 90 91 90 87 87 89 92 86 80 76 73 74 69 65 62 62 61 61 61 61 60 60 61 61 59 60 63 66 67 69 70 71 75 74 80 83 88 94 95
96 93 88 90 90 94 95 94 91 94 95 94 91 92 95 96 87 83 77 76 77 72 66 66 66 66 62 67 66 69 68 66 66 64 65 66 70 73 75 75 77 80 81 86 89 97 95
93 93 91 96 98 99 102 100 100 99 102 97 100 98 98 100 92 88 84 79 79 76 73 71 68 67 67 69 69 69 71 71 70 73 74 72 70 70 73 75 79 80 85 82 85 84 87
100 99 99 97 98 104 103 102 102 106 106 106 103 103 101 103 96 90 87 84 83 81 79 77 75 71 69 71 74 76 73 73 74 75 74 74 75 72 72 75 77 83 78 78 74 75 80
104 106 106 102 105 104 108 109 112 113 115 113 109 108 109 105 100 96 90 86 86 86 81 80 81 75 72 74 75 78 77 76 77 77 77 77 76 74 76 78 79 78 74 71 69 74 82
111 113 110 110 108 112 117 116 120 121 119 116 111 109 109 104 102 95 93 93 90 92 89 83 81 81 76 76 76 78 79 79 81 78 77 79 77 75 76 79 78 73 74 74 74 72 77
120 125 124 121 122 126 123 127 123 117 120 115 115 112 112 109 107 102 100 98 97 95 96 86 83 84 82 79 78 77 79 80 82 78 81 80 78 78 77 78 73 73 73 72 73 72 66
132 130 128 126 130 133 133 131 127 124 118 115 113 115 114 116 113 109 108 105 103 102 98 91 85 87 87 83 79 76 77 80 83 83 83 82 80 80 81 74 71 74 70 71 67 62 58
131 133 135 134 131 123 120 123 125 122 122 119 122 124 120 117 118 117 113 114 113 109 99 94 91 88 89 87 83 78 77 81 85 87 85 83 82 81 77 71 74 73 72 64 58 54 49
130 129 127 123 123 122 123 121 123 123 120 120 121 126 123 125 118 120 121 118 116 110 105 93 93 90 87 88 86 82 80 79 82 83 83 83 82 79 74 70 77 74 65 55 51 47 41
120 119 115 113 114 114 116 116 111 112 111 111 110 114 111 112 107 113 114 113 107 113 98 98 97 91 86 86 85 82 78 75 80 81 79 78 79 76 71 72 69 65 59 51 45 37 32
106 102 100 103 105 103 100 99 93 85 85 87 88 91 87 89 90 95 104 101 102 103 99 94 94 88 87 83 82 79 77 73 77 77 79 78 74 71 70 66 64 59 51 47 37 31 21
93 89 84 87 89 88 86 83 81 68 70 76 79 82 68 70 77 85 86 93 89 90 88 86 88 83 85 81 79 76 76 73 70 72 74 70 66 67 65 62 61 55 46 40 30 19 13
81 79 81 83 83 84 79 68 67 53 59 70 73 74 57 62 68 68 72 81 82 77 76 77 77 81 74 75 77 73 73 70 69 71 67 62 58 61 64 64 58 48 40 33 25 13 13
72 74 77 79 76 68 62 59 61 52 54 68 73 73 56 58 55 63 61 63 68 63 68 66 69 68 71 72 71 69 67 65 65 67 63 57 57 58 61 63 55 40 34 24 10 8 15
69 72 70 60 58 61 62 60 59 58 67 75 75 58 52 51 52 55 54 53 54 57 58 58 57 59 60 68 66 61 56 59 61 58 54 53 53 55 61 64 53 38 31 19 10 12 22
62 58 57 51 49 51 52 49 52 60 69 71 54 41 43 43 46 48 52 48 46 48 46 44 52 53 56 59 58 60 54 56 55 52 49 49 51 55 61 61 48 38 30 15 9 15 28
52 48 47 44 46 46 47 46 51 60 63 51 41 40 39 44 46 46 46 42 42 43 45 51 50 49 48 56 57 55 53 51 46 47 46 48 53 56 61 56 46 37 30 14 13 11 32
46 41 39 38 41 43 48 52 54 51 43 45 39 40 42 42 41 40 31 33 33 35 35 39 41 43 44 44 42 39 39 42 43 45 44 49 53 56 58 53 46 37 32 17 18 14 26
39 35 34 36 40 42 44 45 44 47 45 40 41 39 36 36 36 33 32 32 33 32 32 32 31 32 32 34 33 33 38 41 44 42 48 50 55 57 59 52 44 38 32 27 21 22 24
35 34 32 33 35 35 36 37 42 36 38 38 37 37 40 40 40 40 40 37 32 31 31 29 30 30 33 33 30 32 37 40 41 46 51 54 55 60 59 51 44 36 33 34 26 27 28
38 36 34 35 35 39 40 39 39 42 40 40 41 44 44 45 43 43 41 40 39 37 34 33 32 34 30 27 31 37 38 38 42 48 53 55 59 58 56 50 46 37 35 34 37 34 32
36 31 35 36 38 38 39 41 43 43 42 43 44 44 43 44 45 44 40 39 39 36 34 33 32 29 25 30 34 35 37 41 46 50 54 57 60 58 52 46 42 41 36 35 41 42 34
29 28 41 44 45 46 49 47 48 48 49 50 51 54 53 51 48 44 40 37 36 35 33 29 27 28 31 33 32 34 39 46 49 54 57 58 61 58 51 43 41 41 39 38 38 47 41
29 25 44 49 47 45 45 46 46 47 48 47 49 49 49 49 46 40 38 35 33 30 26 23 25 29 31 30 31 38 44 48 54 56 58 60 59 57 49 42 39 40 40 40 40 43 47

GFSGBSN_250_spd_123.txt.gz
Wind_Speed
74 74 74 73 68 68 66 64 62 64 68 72 74 67 68 69 67 65 66 66 67 64 65 58 53 57 53 50 44 46 46 47 45 43 41 41 43 45 46 46 47 49 56 57 61 62 66
75 72 72 67 68 69 69 68 68 68 71 77 76 74 73 73 75 73 71 71 67 68 65 64 58 57 53 51 48 45 45 49 47 47 48 48 47 48 51 54 55 56 57 61 64 65 71
72 72 68 71 72 68 68 70 74 74 75 75 78 76 74 76 75 71 71 73 69 69 72 72 66 60 62 53 54 54 53 54 54 52 53 54 55 56 58 58 61 63 63 68 67 68 72
76 80 79 81 79 76 78 81 79 80 79 80 81 81 82 81 82 79 76 76 78 75 74 74 67 65 60 62 57 57 58 57 56 58 60 56 57 60 62 64 65 66 70 74 76 76 81
82 82 85 88 89 86 88 86 87 86 84 82 81 85 89 87 85 83 81 80 80 80 81 80 81 73 62 66 62 60 61 63 63 64 63 65 65 64 63 64 67 66 71 75 84 85 86
85 86 88 91 94 93 92 92 92 94 92 84 80 84 88 91 90 88 87 83 87 87 85 83 82 83 72 64 65 65 63 62 66 67 68 68 68 69 69 70 70 71 70 76 79 80 82
99 96 97 97 97 95 95 93 95 95 90 84 89 91 91 94 92 88 91 90 92 93 92 92 89 86 80 73 67 64 67 67 68 68 68 69 72 72 74 71 73 74 71 72 75 78 80
104 104 98 99 97 100 100 99 97 97 93 92 92 92 95 96 90 93 94 98 98 99 95 93 95 90 80 74 73 69 69 69 70 71 70 72 73 75 77 76 77 76 72 71 74 77 81
113 107 105 103 100 101 98 97 98 99 98 97 98 98 99 96 99 96 101 107 106 103 100 96 87 86 83 77 72 75 75 72 74 75 74 72 74 75 78 79 77 79 74 73 73 78 82
108 109 105 106 105 101 100 101 103 104 104 105 100 101 103 102 105 107 106 111 109 110 109 99 90 83 77 76 77 80 79 77 77 79 77 74 75 76 79 82 82 79 76 76 78 80 78
109 108 108 107 106 106 106 108 107 108 108 109 109 106 110 113 115 114 114 117 115 111 114 105 90 86 82 81 79 80 82 81 78 80 82 81 79 80 81 84 86 83 80 81 83 83 77
110 109 111 110 109 111 110 110 114 114 115 114 117 119 118 119 118 114 118 118 115 117 118 110 103 91 85 86 85 82 81 81 81 82 83 82 81 80 82 84 86 83 81 85 83 78 77
121 120 122 121 122 119 121 121 123 124 121 121 121 122 123 123 120 117 117 116 119 120 114 109 103 101 88 88 87 86 84 82 84 86 83 83 81 80 80 84 85 85 83 81 76 73 75
122 123 124 123 123 123 124 124 125 126 126 128 127 124 130 126 125 127 125 126 124 123 122 118 109 108 102 95 92 91 91 89 86 86 84 83 82 83 79 81 88 83 82 74 70 73 72
120 120 119 119 118 117 118 122 123 126 130 128 125 124 124 128 127 128 127 127 123 121 123 120 112 115 112 103 99 95 93 90 86 83 81 83 82 84 78 79 83 80 76 72 71 74 59
117 116 116 117 118 115 117 121 121 124 126 125 125 124 125 123 119 118 115 111 104 108 98 100 102 106 105 100 97 96 88 82 77 76 77 80 80 82 77 79 77 77 69 70 70 62 49
118 116 115 113 114 114 115 114 113 117 118 113 113 107 100 105 104 98 90 82 77 77 79 83 86 92 90 88 87 81 70 70 73 74 74 80 79 78 77 76 74 66 65 68 64 51 40
113 112 112 113 113 110 110 107 107 110 109 106 95 90 78 87 87 78 62 60 62 65 65 72 72 75 71 72 71 65 59 63 64 72 73 72 72 73 74 67 64 61 66 63 55 43 35
102 99 97 95 96 95 95 98 99 100 94 84 76 72 71 78 81 56 54 51 55 60 61 60 63 63 63 65 61 57 54 46 45 54 62 65 65 67 61 59 57 59 62 58 49 38 34
89 86 84 83 84 82 85 89 92 87 78 73 63 66 69 70 68 44 46 48 56 58 53 51 53 49 50 49 49 47 47 45 54 55 58 60 59 55 52 53 53 54 56 57 45 36 29
78 79 77 74 78 82 85 84 81 72 65 65 59 69 73 70 53 45 49 55 53 45 43 43 39 36 35 29 36 31 38 40 44 50 54 51 54 48 50 51 50 51 54 56 47 34 26
69 69 73 77 78 76 72 67 68 66 65 62 55 69 69 65 50 53 54 52 49 42 35 32 31 30 27 27 32 33 32 40 38 43 46 46 43 45 48 51 49 51 56 57 48 33 26
64 71 72 66 63 62 62 61 60 56 54 43 54 60 44 44 55 53 45 46 43 39 37 40 42 37 37 41 39 35 42 45 42 46 44 39 42 49 48 47 48 53 57 54 47 35 26
65 61 60 60 55 52 51 52 51 47 43 50 54 42 42 47 48 46 47 45 41 41 45 49 49 46 44 41 46 39 36 37 42 41 38 38 45 47 49 48 49 54 57 53 47 38 28
52 54 51 46 43 43 45 46 45 42 47 40 40 48 50 47 46 44 39 37 40 44 45 42 42 46 48 45 40 41 37 39 40 36 36 41 44 45 50 52 51 56 59 56 49 41 33
45 41 38 39 39 39 39 38 34 37 36 37 49 47 43 44 42 44 41 41 41 40 41 41 45 44 41 37 37 39 41 40 35 34 38 42 43 48 51 55 57 58 61 56 50 41 39
34 36 37 36 40 41 38 37 35 36 38 42 41 40 45 46 46 46 44 42 42 42 43 42 42 41 36 37 40 38 36 33 31 36 40 42 45 52 55 58 59 63 61 57 49 42 39
35 36 35 35 35 34 37 38 39 38 40 41 43 45 45 48 53 53 51 47 47 45 44 44 43 40 39 37 35 33 31 29 37 39 39 44 52 56 59 62 64 62 59 56 48 44 40
35 31 32 32 35 38 40 41 40 42 44 44 46 49 52 53 51 50 48 49 48 46 44 44 41 37 34 35 34 29 29 37 37 36 41 51 56 58 61 65 64 61 59 52 48 44 41

GFSGBSN_250_spd_126.txt.gz
Wind_Speed
75 78 72 75 75 70 69 69 74 67 67 67 66 65 64 63 62 64 67 70 70 71 68 67 69 66 59 59 60 56 52 52 47 43 44 48 48 49 47 46 45 44 46 47 49 52 56
76 76 74 73 71 70 70 68 72 68 69 67 68 69 67 64 65 68 70 68 69 73 73 73 71 68 67 64 59 59 55 54 55 51 49 51 51 53 54 54 54 53 52 55 58 58 61
79 81 77 75 73 71 68 70 72 69 64 67 69 71 69 70 74 73 72 74 76 76 75 77 75 73 75 73 70 67 66 63 59 60 56 57 60 61 60 60 59 60 61 61 63 65 67
78 80 81 80 78 76 70 65 63 67 68 71 73 70 69 69 73 76 75 73 79 74 75 80 78 77 75 70 68 69 70 70 70 65 64 61 59 61 60 63 67 65 65 68 69 71 70
80 82 85 84 83 80 72 71 72 78 79 76 78 81 78 84 79 79 78 75 80 73 75 77 80 76 74 74 72 72 73 74 72 74 69 66 65 63 62 61 68 70 69 70 71 74 73
83 81 82 83 84 83 82 77 78 78 79 79 84 84 86 89 83 81 79 81 79 77 82 80 82 83 79 76 73 79 77 80 79 81 76 71 68 67 67 65 65 69 68 70 71 74 75
90 95 94 92 92 83 79 81 80 83 85 88 91 92 93 91 87 88 87 84 85 83 86 86 83 82 81 78 79 83 81 83 82 84 79 71 69 70 70 69 67 69 69 71 74 76 74
98 95 95 94 95 95 96 94 95 97 96 96 96 101 99 94 91 89 91 92 90 88 84 89 88 86 86 85 84 87 85 84 84 81 73 69 67 73 74 74 73 70 70 71 74 76 75
102 102 100 98 100 100 100 101 103 102 100 99 98 98 98 98 94 94 92 90 93 92 94 90 91 88 90 89 91 93 92 80 85 78 76 70 73 74 75 76 75 74 77 77 75 79 78
109 106 106 104 106 107 106 107 105 110 106 105 103 100 99 101 97 95 96 98 98 100 101 92 94 88 94 94 95 92 93 89 82 79 74 74 75 76 75 76 77 77 79 77 80 78 79
114 113 113 113 109 111 111 110 109 110 109 106 103 102 103 103 99 101 100 100 99 100 107 100 96 95 97 93 95 98 97 91 89 83 81 77 76 79 77 76 80 80 80 84 84 81 81
114 114 114 110 109 108 108 105 104 102 102 103 105 105 108 105 99 100 103 103 107 109 110 111 105 103 104 102 104 102 97 95 95 95 86 79 80 79 79 78 80 82 82 85 85 85 81
115 116 117 115 113 109 105 105 104 106 104 106 108 111 112 109 106 108 110 113 114 116 116 112 109 111 111 113 109 107 102 98 92 89 91 85 82 81 82 81 84 84 80 81 82 86 83
122 121 119 118 115 114 112 111 112 112 110 110 112 113 115 117 115 115 118 122 124 117 118 123 120 116 114 115 117 117 109 105 101 98 99 93 90 84 84 86 84 82 80 81 79 81 76
124 122 120 118 118 117 116 115 117 117 118 117 119 121 123 125 127 127 131 127 120 119 120 123 127 127 121 118 117 117 115 112 112 107 103 100 90 88 83 82 83 78 79 80 78 79 74
123 119 118 119 118 120 119 122 122 122 122 120 121 124 121 122 127 126 126 119 115 116 121 123 123 120 120 116 115 110 105 95 95 89 84 81 78 83 84 80 73 74 76 77 77 72 68
110 113 116 119 119 120 124 125 123 124 125 124 117 122 121 121 125 124 121 116 119 116 115 116 116 115 104 97 91 83 77 73 68 65 62 63 65 66 69 65 66 67 68 70 68 65 62
116 114 113 112 113 116 119 113 116 122 117 116 115 116 111 115 116 115 109 110 107 106 106 100 92 83 78 70 66 64 54 54 50 47 42 45 47 51 49 51 54 58 62 61 57 56 60
121 121 118 117 116 117 118 117 116 117 118 115 120 119 116 114 112 104 101 101 97 89 83 71 66 68 62 61 58 53 40 45 47 39 31 32 25 34 46 40 51 57 54 54 54 54 59
110 113 115 115 117 117 118 118 119 120 118 116 115 114 108 102 93 88 84 84 77 68 60 59 61 63 55 55 54 50 45 41 37 31 24 25 31 37 47 45 50 50 46 49 53 53 56
98 101 99 100 104 106 107 109 111 112 110 107 104 99 89 73 67 74 75 69 65 58 54 58 60 53 51 51 43 33 33 31 28 29 29 28 33 39 51 47 46 42 43 50 51 50 54
89 88 90 93 93 94 91 90 93 94 94 93 84 70 69 55 60 70 72 64 60 54 56 60 57 49 39 38 36 33 30 28 35 32 32 36 37 43 44 40 42 39 48 53 51 51 52
80 79 79 81 83 84 83 84 85 85 85 73 59 57 57 55 64 71 65 64 56 53 58 52 49 38 32 34 30 28 32 31 32 34 35 39 37 37 41 45 41 42 51 50 51 52 53
71 71 72 72 72 73 73 74 74 71 63 50 48 60 62 59 66 59 61 51 51 55 51 48 38 36 37 33 36 36 34 33 36 38 38 39 35 40 46 44 37 45 51 51 51 53 55
58 60 62 64 66 66 63 59 57 54 50 49 51 57 56 57 50 49 47 50 52 43 43 39 39 41 43 43 40 34 31 39 39 39 41 41 38 37 44 43 42 47 49 50 54 54 58
51 54 56 52 49 50 51 50 46 44 46 49 51 55 47 44 39 54 51 51 40 36 41 39 42 44 50 47 45 39 38 43 40 42 41 44 43 44 43 43 45 46 49 54 57 55 63
37 38 41 44 42 39 40 42 43 45 44 43 46 44 38 44 51 48 45 39 38 41 40 40 44 51 54 46 42 43 44 45 41 40 40 43 45 42 42 44 46 47 53 60 60 62 62
32 30 31 33 36 40 41 42 43 40 38 34 38 41 46 45 37 33 34 34 37 37 41 48 49 51 51 46 45 47 45 45 42 44 44 45 38 39 43 48 48 53 59 61 62 64 61
29 32 35 37 36 36 39 41 42 42 41 45 44 43 40 28 31 37 36 39 42 47 49 49 49 48 48 49 47 46 45 44 41 39 39 35 38 43 46 49 54 59 60 64 68 65 63

GFSGBSN_250_spd_129.txt.gz
Wind_Speed
77 72 75 71 70 71 68 68 69 63 62 60 59 63 61 57 58 58 60 64 63 64 62 61 59 60 60 61 64 64 67 69 67 66 62 59 56 52 49 47 51 51 53 52 50 50 51
73 70 73 70 72 70 68 67 67 62 65 64 63 63 61 59 60 61 62 65 65 67 64 62 64 64 64 61 65 65 68 69 65 64 60 59 61 63 57 54 53 56 55 59 60 60 60
75 73 74 72 72 72 73 69 66 63 66 67 68 65 69 61 61 62 64 63 66 67 65 68 67 67 68 64 60 65 67 64 62 64 60 60 58 61 62 64 63 61 57 62 62 63 63
80 78 78 76 73 72 74 68 67 68 71 69 67 70 68 57 58 62 64 67 67 67 69 69 71 73 63 63 57 65 68 69 71 68 69 65 64 65 66 67 66 69 65 61 64 66 66
83 87 82 76 73 74 70 67 72 71 70 73 70 71 68 63 65 67 66 69 71 74 71 74 77 74 69 66 68 69 69 74 71 70 72 71 70 69 72 72 77 76 72 63 63 66 68
88 87 89 82 75 76 73 69 70 74 78 72 77 74 72 69 69 70 70 72 68 72 74 79 81 78 72 71 71 75 76 76 75 74 77 76 76 78 79 78 78 80 74 70 67 67 68
92 89 88 85 81 81 80 78 81 78 81 84 80 78 76 77 77 76 77 77 81 82 88 84 86 78 75 75 71 74 81 77 82 82 80 80 77 81 80 78 76 72 74 72 72 72 73
96 97 96 94 94 92 93 96 91 91 90 85 84 85 86 84 84 82 84 86 88 88 86 88 86 82 81 81 73 78 82 81 81 83 84 84 82 82 80 83 80 78 75 72 73 74 74
102 103 100 100 97 97 95 94 93 91 93 92 89 89 94 92 93 93 94 95 92 92 87 84 90 83 86 84 80 84 85 81 82 85 86 87 84 84 84 84 84 78 80 82 78 77 78
108 104 104 102 101 101 101 98 100 98 101 99 99 96 94 96 99 98 100 102 102 101 96 88 85 84 86 87 85 85 90 89 88 87 90 89 86 88 92 92 90 91 90 88 82 79 77
115 117 113 111 108 105 106 107 104 107 106 104 101 103 101 102 100 103 104 106 104 103 99 93 86 86 88 87 87 88 91 94 96 97 98 98 99 99 98 95 98 95 95 87 80 80 80
118 117 114 112 112 113 110 112 109 107 107 108 105 107 105 106 99 101 100 97 99 96 91 94 90 90 90 91 95 95 95 96 100 102 105 102 104 101 97 100 100 96 89 88 86 82 80
121 120 118 116 114 112 111 111 108 107 106 106 108 108 103 102 102 97 96 98 98 94 94 97 96 97 96 98 99 101 100 102 106 110 110 109 107 107 106 103 99 98 94 92 88 83 84
123 122 121 121 119 116 116 113 112 110 107 107 106 106 104 105 105 105 104 99 96 93 98 103 106 102 101 105 107 108 111 114 118 122 121 116 108 109 102 100 100 98 98 94 94 91 78
128 128 127 125 124 122 120 116 114 114 111 110 109 109 111 110 110 108 108 104 99 100 107 110 110 111 112 114 113 116 116 114 116 118 110 106 102 106 100 89 91 89 86 86 79 71 67
131 127 126 127 126 125 122 120 120 120 117 115 114 113 113 112 110 109 110 104 104 109 112 115 115 115 113 114 115 116 119 115 112 113 105 102 89 86 81 70 60 60 58 55 56 57 57
128 127 126 126 127 126 125 126 124 122 119 119 115 115 114 114 114 112 111 107 110 111 114 115 119 117 113 112 118 115 106 108 106 99 91 82 75 61 54 40 41 38 42 38 40 43 48
124 122 121 124 127 126 126 122 119 120 116 117 118 119 116 119 115 111 108 109 111 112 114 112 115 114 114 107 105 103 103 103 91 78 69 67 53 42 31 30 25 26 25 25 31 43 50
109 112 117 118 119 119 121 122 122 119 120 119 115 112 108 111 111 110 106 108 106 104 108 109 109 107 107 105 103 97 90 82 68 63 61 48 28 23 26 26 25 22 17 25 36 46 47
108 107 109 110 111 110 110 110 119 117 112 112 116 111 108 102 99 101 103 104 104 104 102 102 104 102 98 93 88 81 72 68 60 57 47 37 22 24 34 28 23 21 20 29 39 41 37
112 113 112 113 115 115 114 114 114 116 117 118 116 112 108 106 102 105 105 102 98 102 103 101 97 91 81 70 73 66 65 62 54 45 37 30 30 33 35 26 19 19 23 37 40 36 35
110 109 110 111 113 115 114 116 114 117 115 116 112 107 107 109 106 104 105 99 103 106 100 92 84 75 64 59 65 59 57 50 42 40 33 31 35 40 33 26 21 20 28 41 39 37 35
92 94 99 103 101 100 102 107 107 104 106 101 95 93 92 88 90 85 80 83 85 85 79 74 69 62 55 63 57 51 46 42 37 34 32 36 42 38 30 24 26 22 34 34 42 38 40
82 83 86 89 92 90 90 90 90 92 92 87 82 80 75 69 74 70 69 72 70 75 65 65 60 53 58 59 47 45 39 34 32 33 36 39 33 32 29 29 31 28 32 39 42 36 44
71 73 75 78 81 80 78 79 81 78 76 73 67 66 66 63 67 57 62 68 75 63 58 56 49 54 52 46 41 38 32 30 35 38 41 38 35 34 32 30 26 27 34 38 40 40 48
61 63 65 66 66 67 72 73 69 66 66 63 57 57 54 54 49 64 66 68 59 50 48 43 43 51 42 41 36 33 39 42 39 41 39 37 34 30 35 33 32 33 37 42 41 43 48
49 51 53 54 54 57 58 59 60 58 56 48 46 54 56 49 64 63 56 50 44 46 41 40 39 38 38 35 35 46 46 46 43 40 39 39 38 37 36 36 35 39 45 45 44 47 51
39 41 42 42 43 45 46 47 47 48 50 47 55 54 49 52 55 43 39 41 41 39 38 40 37 37 38 39 52 53 51 43 38 39 40 40 35 36 37 37 37 45 45 46 49 51 56
33 34 34 35 36 38 41 42 43 45 45 48 47 44 44 41 38 35 39 38 40 40 36 36 38 38 41 48 55 55 49 39 41 38 36 38 36 34 35 38 42 42 46 49 53 57 63

GFSGBSN_250_spd_132.txt.gz
Wind_Speed
76 74 71 73 74 71 67 66 59 62 61 61 58 55 56 56 50 47 45 47 46 50 50 49 52 56 59 61 61 62 60 63 63 64 56 55 57 59 59 60 53 52 50 50 52 51 50
78 73 75 71 73 70 64 63 63 63 60 62 61 58 59 57 51 49 48 46 49 51 53 53 55 56 56 59 60 63 64 65 68 62 53 55 60 60 64 63 59 55 53 56 54 54 55
81 74 73 71 71 71 65 65 66 65 64 65 63 59 60 55 55 51 50 50 54 53 54 54 54 56 56 59 63 64 65 68 69 64 58 61 62 63 67 63 62 62 60 61 61 60 62
83 79 77 75 73 74 71 68 66 68 67 62 60 60 57 58 57 54 52 54 57 53 51 53 53 59 60 60 62 67 67 70 69 67 67 67 67 67 68 68 66 66 64 66 65 68 70
88 85 84 81 77 75 71 69 69 68 67 65 64 63 60 57 60 61 59 59 61 59 57 59 61 62 67 67 68 64 71 76 75 70 70 69 69 70 71 70 70 70 70 73 73 76 78
88 86 86 84 79 77 75 77 76 74 68 73 69 63 60 62 65 62 64 62 63 61 62 63 62 66 68 67 66 72 79 78 79 76 76 73 71 74 77 73 74 74 74 79 79 80 80
80 82 82 80 79 79 82 82 77 76 74 74 75 71 69 68 68 71 68 74 68 63 62 63 66 68 68 72 69 78 81 79 80 80 80 78 76 78 79 78 77 79 79 80 83 85 85
92 87 85 87 88 88 84 84 82 83 82 80 81 81 79 80 79 82 80 79 77 74 72 72 69 67 71 76 77 79 82 83 82 82 82 80 79 81 81 82 82 82 83 85 87 89 89
92 93 89 88 89 88 91 91 91 89 89 88 86 88 85 84 87 84 85 85 80 79 75 78 80 80 84 83 83 86 87 83 82 83 85 83 81 85 85 86 87 87 88 88 88 88 93
97 100 99 100 100 95 94 95 94 98 97 96 95 93 92 89 89 87 89 89 84 86 86 85 86 86 91 91 89 88 85 81 80 81 83 82 84 85 86 88 92 92 94 94 95 99 99
108 107 108 108 108 106 106 106 105 101 102 103 101 100 97 95 92 93 94 94 93 96 92 91 87 92 95 95 91 85 83 89 90 88 87 85 88 89 90 95 98 98 100 100 104 106 103
122 122 118 116 115 116 114 107 109 108 107 106 105 103 101 102 100 98 99 102 100 99 93 98 96 94 94 92 91 88 87 89 92 90 91 91 94 97 100 102 105 107 107 107 107 102 95
130 129 126 124 121 121 118 113 111 109 107 107 106 105 104 103 101 101 100 96 96 93 96 93 93 94 91 90 91 92 93 93 97 96 95 95 97 102 104 104 107 111 111 109 106 103 97
133 134 129 127 126 121 118 116 112 112 109 108 108 109 107 106 106 103 101 100 96 92 94 98 93 93 93 92 91 94 96 95 98 100 100 101 100 109 111 112 111 109 113 102 98 89 81
135 134 133 130 129 127 124 121 118 112 112 112 112 112 111 109 109 105 102 101 98 98 97 97 97 95 94 94 93 94 96 98 103 106 106 107 105 110 114 114 113 100 99 90 81 72 63
139 137 133 131 130 128 126 123 119 118 118 118 118 118 116 115 114 112 108 99 100 101 103 101 101 100 97 99 98 98 99 102 106 111 111 112 106 110 112 100 90 90 84 64 55 51 43
139 137 136 134 132 129 129 127 125 124 123 124 124 123 120 119 118 113 107 103 103 104 105 105 106 101 98 100 103 103 101 105 108 108 110 111 102 96 98 90 72 63 56 51 45 32 30
124 131 133 134 136 133 132 131 130 127 124 128 129 127 124 121 122 113 107 105 106 105 103 102 104 103 102 105 105 103 104 107 105 104 99 96 89 89 85 64 53 45 40 42 32 27 22
114 117 117 121 123 126 122 125 126 127 124 123 125 124 123 119 118 111 109 108 108 102 102 104 105 106 103 98 96 97 100 100 98 93 89 89 81 68 58 50 42 32 32 26 29 22 22
105 107 110 112 113 114 115 118 117 116 117 114 113 117 118 113 107 110 104 103 100 99 103 104 103 106 97 94 92 90 93 95 92 92 89 86 64 47 47 44 37 34 32 31 26 23 16
106 103 103 103 103 107 110 109 111 111 112 111 107 106 105 104 97 100 101 97 99 101 104 108 99 100 100 97 95 95 96 94 95 93 78 59 47 43 42 42 42 33 35 32 28 22 13
109 107 104 104 103 102 100 101 102 103 103 102 95 95 97 96 98 100 97 93 96 104 104 101 101 106 105 98 98 100 96 90 86 80 60 45 41 40 41 45 39 33 34 31 26 18 15
101 106 108 107 106 104 103 103 104 104 105 96 94 94 95 98 96 96 94 96 99 99 97 102 106 103 97 96 88 84 73 72 64 54 47 40 39 41 40 39 35 35 34 30 22 23 21
86 93 98 101 103 106 107 106 107 110 106 103 99 99 98 97 96 96 100 100 98 102 98 96 90 85 82 71 63 57 54 54 52 50 44 41 38 40 42 41 35 41 35 30 27 25 26
76 80 84 87 89 91 96 102 105 109 106 102 100 97 96 95 96 94 98 101 96 88 84 75 78 74 62 57 50 48 47 46 49 43 40 42 40 41 39 37 36 35 32 31 29 25 30
68 71 73 76 78 79 82 86 88 91 91 86 86 86 82 84 73 84 86 80 78 78 76 74 71 60 52 49 46 42 42 41 37 39 40 39 39 43 39 32 36 36 34 37 34 32 33
59 63 65 67 67 69 72 73 76 75 75 73 70 70 67 61 67 72 67 69 70 69 68 63 57 50 42 41 36 37 39 34 36 39 42 42 39 34 32 30 34 37 37 36 35 34 37
52 53 55 57 57 59 60 61 62 62 62 59 62 62 54 55 64 62 63 63 63 62 59 50 45 42 38 33 35 35 32 36 39 40 41 40 39 38 34 33 33 34 37 37 37 37 40
41 41 43 46 48 49 50 50 51 52 52 49 52 56 57 56 58 58 55 55 56 54 42 44 41 37 33 31 34 33 36 37 38 40 39 40 42 41 38 35 38 37 35 36 36 42 46